<?xml version="1.0" encoding="UTF-8" standalone="no" ?>
<gpx xmlns="http://www.topografix.com/GPX/1/1" xmlns:xsi="http://www.w3.org/2001/XMLSchema-instance" xsi:schemaLocation="http://www.topografix.com/GPX/1/1 http://www.topografix.com/GPX/1/1/gpx.xsd" version="1.1" creator="VisuGPX - https://www.visugpx.com">
  <metadata>
    <name>Lentiol</name>
    <desc><![CDATA[2009-10-31_Lentiol]]></desc>
  </metadata>
  <trk>
    <name><![CDATA[Lentiol]]></name>
    <cmt><![CDATA[Jean Marie, Jean Pierre, Jacques, Thierry2, Edouard, Bruno, LAurent, Fabien, Thibaut]]></cmt>
    <trkseg>
      <trkpt lat="45.13395" lon="4.99053">
        <ele>279.63000488281</ele>
        <time>2009-10-31T12:42:37Z</time>
      </trkpt>
      <trkpt lat="45.13401" lon="4.9906">
        <ele>281.99398803711</ele>
        <time>2009-10-31T12:42:39Z</time>
      </trkpt>
      <trkpt lat="45.13425" lon="4.99083">
        <ele>283.78399658203</ele>
        <time>2009-10-31T12:42:47Z</time>
      </trkpt>
      <trkpt lat="45.13431" lon="4.99089">
        <ele>284.26901245117</ele>
        <time>2009-10-31T12:42:49Z</time>
      </trkpt>
      <trkpt lat="45.13463" lon="4.99117">
        <ele>286.49899291992</ele>
        <time>2009-10-31T12:42:59Z</time>
      </trkpt>
      <trkpt lat="45.13489" lon="4.99141">
        <ele>287.86898803711</ele>
        <time>2009-10-31T12:43:07Z</time>
      </trkpt>
      <trkpt lat="45.1352" lon="4.99168">
        <ele>288.54400634766</ele>
        <time>2009-10-31T12:43:16Z</time>
      </trkpt>
      <trkpt lat="45.13555" lon="4.99193">
        <ele>288.72299194336</ele>
        <time>2009-10-31T12:43:25Z</time>
      </trkpt>
      <trkpt lat="45.13586" lon="4.99212">
        <ele>288.85400390625</ele>
        <time>2009-10-31T12:43:32Z</time>
      </trkpt>
      <trkpt lat="45.13618" lon="4.99225">
        <ele>288.89401245117</ele>
        <time>2009-10-31T12:43:39Z</time>
      </trkpt>
      <trkpt lat="45.1366" lon="4.99223">
        <ele>288.84698486328</ele>
        <time>2009-10-31T12:43:47Z</time>
      </trkpt>
      <trkpt lat="45.13701" lon="4.99205">
        <ele>288.33401489258</ele>
        <time>2009-10-31T12:43:55Z</time>
      </trkpt>
      <trkpt lat="45.13732" lon="4.99188">
        <ele>288.32901000977</ele>
        <time>2009-10-31T12:44:01Z</time>
      </trkpt>
      <trkpt lat="45.13757" lon="4.99172">
        <ele>288.0299987793</ele>
        <time>2009-10-31T12:44:06Z</time>
      </trkpt>
      <trkpt lat="45.13778" lon="4.99159">
        <ele>287.51901245117</ele>
        <time>2009-10-31T12:44:10Z</time>
      </trkpt>
      <trkpt lat="45.13783" lon="4.99156">
        <ele>287.71600341797</ele>
        <time>2009-10-31T12:44:11Z</time>
      </trkpt>
      <trkpt lat="45.13822" lon="4.99132">
        <ele>287.48001098633</ele>
        <time>2009-10-31T12:44:19Z</time>
      </trkpt>
      <trkpt lat="45.1386" lon="4.9911">
        <ele>287.35699462891</ele>
        <time>2009-10-31T12:44:27Z</time>
      </trkpt>
      <trkpt lat="45.13905" lon="4.99087">
        <ele>287.31900024414</ele>
        <time>2009-10-31T12:44:36Z</time>
      </trkpt>
      <trkpt lat="45.1394" lon="4.99081">
        <ele>286.99600219727</ele>
        <time>2009-10-31T12:44:42Z</time>
      </trkpt>
      <trkpt lat="45.13979" lon="4.99081">
        <ele>286.79400634766</ele>
        <time>2009-10-31T12:44:48Z</time>
      </trkpt>
      <trkpt lat="45.14054" lon="4.99084">
        <ele>286.82901000977</ele>
        <time>2009-10-31T12:44:59Z</time>
      </trkpt>
      <trkpt lat="45.14116" lon="4.99085">
        <ele>285.69900512695</ele>
        <time>2009-10-31T12:45:08Z</time>
      </trkpt>
      <trkpt lat="45.14123" lon="4.99086">
        <ele>285.60699462891</ele>
        <time>2009-10-31T12:45:09Z</time>
      </trkpt>
      <trkpt lat="45.14161" lon="4.99095">
        <ele>284.73400878906</ele>
        <time>2009-10-31T12:45:14Z</time>
      </trkpt>
      <trkpt lat="45.14198" lon="4.99116">
        <ele>283.96600341797</ele>
        <time>2009-10-31T12:45:19Z</time>
      </trkpt>
      <trkpt lat="45.14213" lon="4.99123">
        <ele>283.53500366211</ele>
        <time>2009-10-31T12:45:21Z</time>
      </trkpt>
      <trkpt lat="45.14246" lon="4.99129">
        <ele>282.01699829102</ele>
        <time>2009-10-31T12:45:25Z</time>
      </trkpt>
      <trkpt lat="45.14305" lon="4.99126">
        <ele>280.14999389648</ele>
        <time>2009-10-31T12:45:32Z</time>
      </trkpt>
      <trkpt lat="45.14376" lon="4.99123">
        <ele>277.83999633789</ele>
        <time>2009-10-31T12:45:40Z</time>
      </trkpt>
      <trkpt lat="45.14431" lon="4.99126">
        <ele>277.16500854492</ele>
        <time>2009-10-31T12:45:46Z</time>
      </trkpt>
      <trkpt lat="45.14471" lon="4.99143">
        <ele>276.89401245117</ele>
        <time>2009-10-31T12:45:51Z</time>
      </trkpt>
      <trkpt lat="45.1451" lon="4.99153">
        <ele>276.99301147461</ele>
        <time>2009-10-31T12:45:56Z</time>
      </trkpt>
      <trkpt lat="45.14547" lon="4.99158">
        <ele>277.58099365234</ele>
        <time>2009-10-31T12:46:01Z</time>
      </trkpt>
      <trkpt lat="45.14606" lon="4.99163">
        <ele>278.65399169922</ele>
        <time>2009-10-31T12:46:10Z</time>
      </trkpt>
      <trkpt lat="45.14652" lon="4.99167">
        <ele>278.99499511719</ele>
        <time>2009-10-31T12:46:17Z</time>
      </trkpt>
      <trkpt lat="45.1469" lon="4.9917">
        <ele>279.14999389648</ele>
        <time>2009-10-31T12:46:23Z</time>
      </trkpt>
      <trkpt lat="45.14697" lon="4.9917">
        <ele>279.36898803711</ele>
        <time>2009-10-31T12:46:24Z</time>
      </trkpt>
      <trkpt lat="45.14744" lon="4.99181">
        <ele>279.05599975586</ele>
        <time>2009-10-31T12:46:31Z</time>
      </trkpt>
      <trkpt lat="45.14777" lon="4.99202">
        <ele>279.76800537109</ele>
        <time>2009-10-31T12:46:36Z</time>
      </trkpt>
      <trkpt lat="45.14806" lon="4.99223">
        <ele>281.14300537109</ele>
        <time>2009-10-31T12:46:41Z</time>
      </trkpt>
      <trkpt lat="45.14845" lon="4.9925">
        <ele>282.88101196289</ele>
        <time>2009-10-31T12:46:48Z</time>
      </trkpt>
      <trkpt lat="45.14874" lon="4.9927">
        <ele>284.34698486328</ele>
        <time>2009-10-31T12:46:54Z</time>
      </trkpt>
      <trkpt lat="45.14909" lon="4.99293">
        <ele>285.96798706055</ele>
        <time>2009-10-31T12:47:01Z</time>
      </trkpt>
      <trkpt lat="45.14943" lon="4.99313">
        <ele>287.44198608398</ele>
        <time>2009-10-31T12:47:08Z</time>
      </trkpt>
      <trkpt lat="45.14948" lon="4.99316">
        <ele>287.77600097656</ele>
        <time>2009-10-31T12:47:09Z</time>
      </trkpt>
      <trkpt lat="45.14981" lon="4.99333">
        <ele>289.0539855957</ele>
        <time>2009-10-31T12:47:16Z</time>
      </trkpt>
      <trkpt lat="45.15012" lon="4.99358">
        <ele>291.03201293945</ele>
        <time>2009-10-31T12:47:23Z</time>
      </trkpt>
      <trkpt lat="45.15048" lon="4.99393">
        <ele>293.89898681641</ele>
        <time>2009-10-31T12:47:32Z</time>
      </trkpt>
      <trkpt lat="45.15083" lon="4.99428">
        <ele>296.30599975586</ele>
        <time>2009-10-31T12:47:41Z</time>
      </trkpt>
      <trkpt lat="45.15111" lon="4.99453">
        <ele>298.33999633789</ele>
        <time>2009-10-31T12:47:48Z</time>
      </trkpt>
      <trkpt lat="45.15131" lon="4.99469">
        <ele>299.96499633789</ele>
        <time>2009-10-31T12:47:53Z</time>
      </trkpt>
      <trkpt lat="45.15148" lon="4.99482">
        <ele>301.21099853516</ele>
        <time>2009-10-31T12:47:57Z</time>
      </trkpt>
      <trkpt lat="45.15172" lon="4.99522">
        <ele>303.12600708008</ele>
        <time>2009-10-31T12:48:05Z</time>
      </trkpt>
      <trkpt lat="45.15187" lon="4.99557">
        <ele>304.50799560547</ele>
        <time>2009-10-31T12:48:11Z</time>
      </trkpt>
      <trkpt lat="45.15191" lon="4.99597">
        <ele>306.54699707031</ele>
        <time>2009-10-31T12:48:17Z</time>
      </trkpt>
      <trkpt lat="45.1519" lon="4.99611">
        <ele>306.88900756836</ele>
        <time>2009-10-31T12:48:19Z</time>
      </trkpt>
      <trkpt lat="45.15189" lon="4.99633">
        <ele>307.43899536133</ele>
        <time>2009-10-31T12:48:22Z</time>
      </trkpt>
      <trkpt lat="45.15196" lon="4.99664">
        <ele>308.56100463867</ele>
        <time>2009-10-31T12:48:27Z</time>
      </trkpt>
      <trkpt lat="45.15207" lon="4.99671">
        <ele>309.50399780273</ele>
        <time>2009-10-31T12:48:30Z</time>
      </trkpt>
      <trkpt lat="45.15227" lon="4.99673">
        <ele>310.65100097656</ele>
        <time>2009-10-31T12:48:34Z</time>
      </trkpt>
      <trkpt lat="45.15258" lon="4.9967">
        <ele>312.04699707031</ele>
        <time>2009-10-31T12:48:39Z</time>
      </trkpt>
      <trkpt lat="45.15303" lon="4.99658">
        <ele>314.50100708008</ele>
        <time>2009-10-31T12:48:46Z</time>
      </trkpt>
      <trkpt lat="45.15314" lon="4.99652">
        <ele>315.32998657227</ele>
        <time>2009-10-31T12:48:48Z</time>
      </trkpt>
      <trkpt lat="45.15336" lon="4.99626">
        <ele>316.90899658203</ele>
        <time>2009-10-31T12:48:53Z</time>
      </trkpt>
      <trkpt lat="45.15358" lon="4.99586">
        <ele>318.34799194336</ele>
        <time>2009-10-31T12:48:58Z</time>
      </trkpt>
      <trkpt lat="45.15369" lon="4.99553">
        <ele>319.21499633789</ele>
        <time>2009-10-31T12:49:02Z</time>
      </trkpt>
      <trkpt lat="45.15374" lon="4.99519">
        <ele>319.73999023438</ele>
        <time>2009-10-31T12:49:06Z</time>
      </trkpt>
      <trkpt lat="45.15389" lon="4.99495">
        <ele>320.46099853516</ele>
        <time>2009-10-31T12:49:10Z</time>
      </trkpt>
      <trkpt lat="45.15416" lon="4.99475">
        <ele>322.3869934082</ele>
        <time>2009-10-31T12:49:16Z</time>
      </trkpt>
      <trkpt lat="45.15427" lon="4.99469">
        <ele>323.16198730469</ele>
        <time>2009-10-31T12:49:18Z</time>
      </trkpt>
      <trkpt lat="45.15433" lon="4.99466">
        <ele>323.83700561523</ele>
        <time>2009-10-31T12:49:19Z</time>
      </trkpt>
      <trkpt lat="45.15443" lon="4.9946">
        <ele>324.4580078125</ele>
        <time>2009-10-31T12:49:21Z</time>
      </trkpt>
      <trkpt lat="45.15461" lon="4.99431">
        <ele>326.25799560547</ele>
        <time>2009-10-31T12:49:26Z</time>
      </trkpt>
      <trkpt lat="45.1547" lon="4.9941">
        <ele>326.87799072266</ele>
        <time>2009-10-31T12:49:29Z</time>
      </trkpt>
      <trkpt lat="45.15485" lon="4.99387">
        <ele>328.23001098633</ele>
        <time>2009-10-31T12:49:33Z</time>
      </trkpt>
      <trkpt lat="45.15494" lon="4.99379">
        <ele>329.27301025391</ele>
        <time>2009-10-31T12:49:35Z</time>
      </trkpt>
      <trkpt lat="45.1553" lon="4.99359">
        <ele>330.37701416016</ele>
        <time>2009-10-31T12:49:42Z</time>
      </trkpt>
      <trkpt lat="45.15551" lon="4.99344">
        <ele>330.97299194336</ele>
        <time>2009-10-31T12:49:47Z</time>
      </trkpt>
      <trkpt lat="45.15556" lon="4.99341">
        <ele>331.05700683594</ele>
        <time>2009-10-31T12:49:48Z</time>
      </trkpt>
      <trkpt lat="45.15577" lon="4.99327">
        <ele>331.24398803711</ele>
        <time>2009-10-31T12:49:53Z</time>
      </trkpt>
      <trkpt lat="45.15591" lon="4.99309">
        <ele>331.24499511719</ele>
        <time>2009-10-31T12:49:57Z</time>
      </trkpt>
      <trkpt lat="45.1562" lon="4.99271">
        <ele>331.18899536133</ele>
        <time>2009-10-31T12:50:05Z</time>
      </trkpt>
      <trkpt lat="45.15623" lon="4.99267">
        <ele>331.0119934082</ele>
        <time>2009-10-31T12:50:06Z</time>
      </trkpt>
      <trkpt lat="45.15631" lon="4.99259">
        <ele>331.31100463867</ele>
        <time>2009-10-31T12:50:08Z</time>
      </trkpt>
      <trkpt lat="45.15662" lon="4.99248">
        <ele>331.78500366211</ele>
        <time>2009-10-31T12:50:14Z</time>
      </trkpt>
      <trkpt lat="45.15701" lon="4.99239">
        <ele>331.47198486328</ele>
        <time>2009-10-31T12:50:21Z</time>
      </trkpt>
      <trkpt lat="45.15728" lon="4.99233">
        <ele>331.0419921875</ele>
        <time>2009-10-31T12:50:26Z</time>
      </trkpt>
      <trkpt lat="45.15762" lon="4.99222">
        <ele>330.79699707031</ele>
        <time>2009-10-31T12:50:33Z</time>
      </trkpt>
      <trkpt lat="45.15784" lon="4.99216">
        <ele>330.69198608398</ele>
        <time>2009-10-31T12:50:37Z</time>
      </trkpt>
      <trkpt lat="45.15816" lon="4.99211">
        <ele>330.17401123047</ele>
        <time>2009-10-31T12:50:42Z</time>
      </trkpt>
      <trkpt lat="45.15842" lon="4.99209">
        <ele>329.83099365234</ele>
        <time>2009-10-31T12:50:47Z</time>
      </trkpt>
      <trkpt lat="45.15867" lon="4.99206">
        <ele>329.99499511719</ele>
        <time>2009-10-31T12:50:52Z</time>
      </trkpt>
      <trkpt lat="45.15905" lon="4.99202">
        <ele>330.11099243164</ele>
        <time>2009-10-31T12:50:59Z</time>
      </trkpt>
      <trkpt lat="45.15924" lon="4.99198">
        <ele>329.78500366211</ele>
        <time>2009-10-31T12:51:02Z</time>
      </trkpt>
      <trkpt lat="45.1595" lon="4.99185">
        <ele>329.36401367188</ele>
        <time>2009-10-31T12:51:07Z</time>
      </trkpt>
      <trkpt lat="45.15973" lon="4.99173">
        <ele>329.25299072266</ele>
        <time>2009-10-31T12:51:11Z</time>
      </trkpt>
      <trkpt lat="45.16013" lon="4.99163">
        <ele>328.72198486328</ele>
        <time>2009-10-31T12:51:18Z</time>
      </trkpt>
      <trkpt lat="45.16063" lon="4.99154">
        <ele>328.13400268555</ele>
        <time>2009-10-31T12:51:26Z</time>
      </trkpt>
      <trkpt lat="45.16086" lon="4.99149">
        <ele>327.85101318359</ele>
        <time>2009-10-31T12:51:30Z</time>
      </trkpt>
      <trkpt lat="45.16113" lon="4.99158">
        <ele>328.59399414062</ele>
        <time>2009-10-31T12:51:35Z</time>
      </trkpt>
      <trkpt lat="45.16122" lon="4.99172">
        <ele>329.18701171875</ele>
        <time>2009-10-31T12:51:38Z</time>
      </trkpt>
      <trkpt lat="45.16134" lon="4.99195">
        <ele>330.33499145508</ele>
        <time>2009-10-31T12:51:42Z</time>
      </trkpt>
      <trkpt lat="45.16153" lon="4.99214">
        <ele>331.46398925781</ele>
        <time>2009-10-31T12:51:47Z</time>
      </trkpt>
      <trkpt lat="45.16167" lon="4.99215">
        <ele>332.35400390625</ele>
        <time>2009-10-31T12:51:50Z</time>
      </trkpt>
      <trkpt lat="45.16203" lon="4.99211">
        <ele>333.98699951172</ele>
        <time>2009-10-31T12:51:57Z</time>
      </trkpt>
      <trkpt lat="45.16232" lon="4.99204">
        <ele>335.47601318359</ele>
        <time>2009-10-31T12:52:02Z</time>
      </trkpt>
      <trkpt lat="45.16257" lon="4.99197">
        <ele>336.82400512695</ele>
        <time>2009-10-31T12:52:07Z</time>
      </trkpt>
      <trkpt lat="45.16309" lon="4.99178">
        <ele>339.77899169922</ele>
        <time>2009-10-31T12:52:16Z</time>
      </trkpt>
      <trkpt lat="45.16344" lon="4.99165">
        <ele>341.33200073242</ele>
        <time>2009-10-31T12:52:21Z</time>
      </trkpt>
      <trkpt lat="45.16367" lon="4.99156">
        <ele>342.87298583984</ele>
        <time>2009-10-31T12:52:24Z</time>
      </trkpt>
      <trkpt lat="45.16375" lon="4.99152">
        <ele>343.03399658203</ele>
        <time>2009-10-31T12:52:25Z</time>
      </trkpt>
      <trkpt lat="45.16401" lon="4.99143">
        <ele>344.64999389648</ele>
        <time>2009-10-31T12:52:28Z</time>
      </trkpt>
      <trkpt lat="45.16425" lon="4.99133">
        <ele>346.29400634766</ele>
        <time>2009-10-31T12:52:31Z</time>
      </trkpt>
      <trkpt lat="45.16439" lon="4.99127">
        <ele>347.4049987793</ele>
        <time>2009-10-31T12:52:33Z</time>
      </trkpt>
      <trkpt lat="45.16451" lon="4.99124">
        <ele>348.18399047852</ele>
        <time>2009-10-31T12:52:35Z</time>
      </trkpt>
      <trkpt lat="45.1646" lon="4.99121">
        <ele>348.83499145508</ele>
        <time>2009-10-31T12:52:37Z</time>
      </trkpt>
      <trkpt lat="45.16484" lon="4.99113">
        <ele>350.11099243164</ele>
        <time>2009-10-31T12:52:43Z</time>
      </trkpt>
      <trkpt lat="45.16499" lon="4.99113">
        <ele>350.97299194336</ele>
        <time>2009-10-31T12:52:47Z</time>
      </trkpt>
      <trkpt lat="45.16512" lon="4.99112">
        <ele>352.00799560547</ele>
        <time>2009-10-31T12:52:51Z</time>
      </trkpt>
      <trkpt lat="45.16527" lon="4.99111">
        <ele>352.50698852539</ele>
        <time>2009-10-31T12:52:57Z</time>
      </trkpt>
      <trkpt lat="45.16545" lon="4.9911">
        <ele>354.01400756836</ele>
        <time>2009-10-31T12:53:04Z</time>
      </trkpt>
      <trkpt lat="45.16561" lon="4.99109">
        <ele>355.1780090332</ele>
        <time>2009-10-31T12:53:10Z</time>
      </trkpt>
      <trkpt lat="45.16581" lon="4.99109">
        <ele>356.27499389648</ele>
        <time>2009-10-31T12:53:17Z</time>
      </trkpt>
      <trkpt lat="45.166" lon="4.99119">
        <ele>357.27499389648</ele>
        <time>2009-10-31T12:53:24Z</time>
      </trkpt>
      <trkpt lat="45.16613" lon="4.99141">
        <ele>358.47399902344</ele>
        <time>2009-10-31T12:53:31Z</time>
      </trkpt>
      <trkpt lat="45.16626" lon="4.99162">
        <ele>359.73699951172</ele>
        <time>2009-10-31T12:53:38Z</time>
      </trkpt>
      <trkpt lat="45.16639" lon="4.99168">
        <ele>360.56298828125</ele>
        <time>2009-10-31T12:53:43Z</time>
      </trkpt>
      <trkpt lat="45.16658" lon="4.99167">
        <ele>361.75299072266</ele>
        <time>2009-10-31T12:53:49Z</time>
      </trkpt>
      <trkpt lat="45.16672" lon="4.9916">
        <ele>362.57400512695</ele>
        <time>2009-10-31T12:53:54Z</time>
      </trkpt>
      <trkpt lat="45.16693" lon="4.99152">
        <ele>363.74499511719</ele>
        <time>2009-10-31T12:54:01Z</time>
      </trkpt>
      <trkpt lat="45.16709" lon="4.9916">
        <ele>364.60699462891</ele>
        <time>2009-10-31T12:54:07Z</time>
      </trkpt>
      <trkpt lat="45.16724" lon="4.99182">
        <ele>366.1789855957</ele>
        <time>2009-10-31T12:54:14Z</time>
      </trkpt>
      <trkpt lat="45.16739" lon="4.99197">
        <ele>367.06799316406</ele>
        <time>2009-10-31T12:54:20Z</time>
      </trkpt>
      <trkpt lat="45.16756" lon="4.99196">
        <ele>368.35998535156</ele>
        <time>2009-10-31T12:54:25Z</time>
      </trkpt>
      <trkpt lat="45.16777" lon="4.99183">
        <ele>369.5830078125</ele>
        <time>2009-10-31T12:54:31Z</time>
      </trkpt>
      <trkpt lat="45.16803" lon="4.99186">
        <ele>371.23901367188</ele>
        <time>2009-10-31T12:54:37Z</time>
      </trkpt>
      <trkpt lat="45.16811" lon="4.99193">
        <ele>371.45599365234</ele>
        <time>2009-10-31T12:54:39Z</time>
      </trkpt>
      <trkpt lat="45.16838" lon="4.9922">
        <ele>373.00399780273</ele>
        <time>2009-10-31T12:54:46Z</time>
      </trkpt>
      <trkpt lat="45.16859" lon="4.99239">
        <ele>374.65399169922</ele>
        <time>2009-10-31T12:54:52Z</time>
      </trkpt>
      <trkpt lat="45.16879" lon="4.99255">
        <ele>375.76901245117</ele>
        <time>2009-10-31T12:54:58Z</time>
      </trkpt>
      <trkpt lat="45.16903" lon="4.9926">
        <ele>377.22500610352</ele>
        <time>2009-10-31T12:55:05Z</time>
      </trkpt>
      <trkpt lat="45.16923" lon="4.99252">
        <ele>377.84298706055</ele>
        <time>2009-10-31T12:55:13Z</time>
      </trkpt>
      <trkpt lat="45.16936" lon="4.99248">
        <ele>378.13198852539</ele>
        <time>2009-10-31T12:55:18Z</time>
      </trkpt>
      <trkpt lat="45.16961" lon="4.99237">
        <ele>378.23699951172</ele>
        <time>2009-10-31T12:55:26Z</time>
      </trkpt>
      <trkpt lat="45.16992" lon="4.99226">
        <ele>378.8450012207</ele>
        <time>2009-10-31T12:55:35Z</time>
      </trkpt>
      <trkpt lat="45.17027" lon="4.99213">
        <ele>379.60598754883</ele>
        <time>2009-10-31T12:55:44Z</time>
      </trkpt>
      <trkpt lat="45.17065" lon="4.99198">
        <ele>381.17999267578</ele>
        <time>2009-10-31T12:55:53Z</time>
      </trkpt>
      <trkpt lat="45.17105" lon="4.9918">
        <ele>382.93798828125</ele>
        <time>2009-10-31T12:56:02Z</time>
      </trkpt>
      <trkpt lat="45.17137" lon="4.99161">
        <ele>383.57400512695</ele>
        <time>2009-10-31T12:56:09Z</time>
      </trkpt>
      <trkpt lat="45.1718" lon="4.99135">
        <ele>385.31698608398</ele>
        <time>2009-10-31T12:56:18Z</time>
      </trkpt>
      <trkpt lat="45.17213" lon="4.99127">
        <ele>385.75</ele>
        <time>2009-10-31T12:56:24Z</time>
      </trkpt>
      <trkpt lat="45.17248" lon="4.99131">
        <ele>385.46200561523</ele>
        <time>2009-10-31T12:56:30Z</time>
      </trkpt>
      <trkpt lat="45.1729" lon="4.99147">
        <ele>385.72799682617</ele>
        <time>2009-10-31T12:56:37Z</time>
      </trkpt>
      <trkpt lat="45.17326" lon="4.99174">
        <ele>385.625</ele>
        <time>2009-10-31T12:56:43Z</time>
      </trkpt>
      <trkpt lat="45.17377" lon="4.99214">
        <ele>385.31100463867</ele>
        <time>2009-10-31T12:56:51Z</time>
      </trkpt>
      <trkpt lat="45.17415" lon="4.99224">
        <ele>385.29901123047</ele>
        <time>2009-10-31T12:56:56Z</time>
      </trkpt>
      <trkpt lat="45.17475" lon="4.99229">
        <ele>385.83499145508</ele>
        <time>2009-10-31T12:57:04Z</time>
      </trkpt>
      <trkpt lat="45.17545" lon="4.99235">
        <ele>387.65701293945</ele>
        <time>2009-10-31T12:57:14Z</time>
      </trkpt>
      <trkpt lat="45.17601" lon="4.99235">
        <ele>388.90399169922</ele>
        <time>2009-10-31T12:57:23Z</time>
      </trkpt>
      <trkpt lat="45.1766" lon="4.99217">
        <ele>388.56298828125</ele>
        <time>2009-10-31T12:57:32Z</time>
      </trkpt>
      <trkpt lat="45.17702" lon="4.99214">
        <ele>388.03500366211</ele>
        <time>2009-10-31T12:57:38Z</time>
      </trkpt>
      <trkpt lat="45.17717" lon="4.99219">
        <ele>387.80801391602</ele>
        <time>2009-10-31T12:57:40Z</time>
      </trkpt>
      <trkpt lat="45.17749" lon="4.99246">
        <ele>387.75399780273</ele>
        <time>2009-10-31T12:57:45Z</time>
      </trkpt>
      <trkpt lat="45.17754" lon="4.99253">
        <ele>387.54299926758</ele>
        <time>2009-10-31T12:57:46Z</time>
      </trkpt>
      <trkpt lat="45.17769" lon="4.99277">
        <ele>387.61999511719</ele>
        <time>2009-10-31T12:57:49Z</time>
      </trkpt>
      <trkpt lat="45.17807" lon="4.99315">
        <ele>387.25601196289</ele>
        <time>2009-10-31T12:57:55Z</time>
      </trkpt>
      <trkpt lat="45.17841" lon="4.99335">
        <ele>385.7619934082</ele>
        <time>2009-10-31T12:58:00Z</time>
      </trkpt>
      <trkpt lat="45.17873" lon="4.99349">
        <ele>384.875</ele>
        <time>2009-10-31T12:58:04Z</time>
      </trkpt>
      <trkpt lat="45.17913" lon="4.99352">
        <ele>383.91500854492</ele>
        <time>2009-10-31T12:58:09Z</time>
      </trkpt>
      <trkpt lat="45.17941" lon="4.9937">
        <ele>383.66101074219</ele>
        <time>2009-10-31T12:58:13Z</time>
      </trkpt>
      <trkpt lat="45.17951" lon="4.99397">
        <ele>383.91799926758</ele>
        <time>2009-10-31T12:58:16Z</time>
      </trkpt>
      <trkpt lat="45.17952" lon="4.99407">
        <ele>384.12298583984</ele>
        <time>2009-10-31T12:58:17Z</time>
      </trkpt>
      <trkpt lat="45.17958" lon="4.99469">
        <ele>385.41799926758</ele>
        <time>2009-10-31T12:58:24Z</time>
      </trkpt>
      <trkpt lat="45.17971" lon="4.99502">
        <ele>386.05899047852</ele>
        <time>2009-10-31T12:58:29Z</time>
      </trkpt>
      <trkpt lat="45.18003" lon="4.99551">
        <ele>385.02801513672</ele>
        <time>2009-10-31T12:58:37Z</time>
      </trkpt>
      <trkpt lat="45.18008" lon="4.99557">
        <ele>384.51901245117</ele>
        <time>2009-10-31T12:58:38Z</time>
      </trkpt>
      <trkpt lat="45.18023" lon="4.99572">
        <ele>384.46301269531</ele>
        <time>2009-10-31T12:58:41Z</time>
      </trkpt>
      <trkpt lat="45.18051" lon="4.99579">
        <ele>384.65701293945</ele>
        <time>2009-10-31T12:58:46Z</time>
      </trkpt>
      <trkpt lat="45.18073" lon="4.9956">
        <ele>384.12701416016</ele>
        <time>2009-10-31T12:58:50Z</time>
      </trkpt>
      <trkpt lat="45.18095" lon="4.99535">
        <ele>383.10501098633</ele>
        <time>2009-10-31T12:58:54Z</time>
      </trkpt>
      <trkpt lat="45.18105" lon="4.99523">
        <ele>383.00500488281</ele>
        <time>2009-10-31T12:58:56Z</time>
      </trkpt>
      <trkpt lat="45.1813" lon="4.9951">
        <ele>383.40701293945</ele>
        <time>2009-10-31T12:59:00Z</time>
      </trkpt>
      <trkpt lat="45.18174" lon="4.99508">
        <ele>383.33700561523</ele>
        <time>2009-10-31T12:59:07Z</time>
      </trkpt>
      <trkpt lat="45.18227" lon="4.99506">
        <ele>383.84399414062</ele>
        <time>2009-10-31T12:59:16Z</time>
      </trkpt>
      <trkpt lat="45.18256" lon="4.99504">
        <ele>384.4289855957</ele>
        <time>2009-10-31T12:59:21Z</time>
      </trkpt>
      <trkpt lat="45.1828" lon="4.99513">
        <ele>384.86599731445</ele>
        <time>2009-10-31T12:59:25Z</time>
      </trkpt>
      <trkpt lat="45.18314" lon="4.9955">
        <ele>386.18899536133</ele>
        <time>2009-10-31T12:59:32Z</time>
      </trkpt>
      <trkpt lat="45.18346" lon="4.99602">
        <ele>388.1669921875</ele>
        <time>2009-10-31T12:59:41Z</time>
      </trkpt>
      <trkpt lat="45.18362" lon="4.99626">
        <ele>389.57998657227</ele>
        <time>2009-10-31T12:59:46Z</time>
      </trkpt>
      <trkpt lat="45.1837" lon="4.99634">
        <ele>389.73699951172</ele>
        <time>2009-10-31T12:59:48Z</time>
      </trkpt>
      <trkpt lat="45.18378" lon="4.99641">
        <ele>390.26699829102</ele>
        <time>2009-10-31T12:59:50Z</time>
      </trkpt>
      <trkpt lat="45.18405" lon="4.99653">
        <ele>390.60400390625</ele>
        <time>2009-10-31T12:59:56Z</time>
      </trkpt>
      <trkpt lat="45.18439" lon="4.99658">
        <ele>389.34298706055</ele>
        <time>2009-10-31T13:00:02Z</time>
      </trkpt>
      <trkpt lat="45.1848" lon="4.99675">
        <ele>387.74200439453</ele>
        <time>2009-10-31T13:00:08Z</time>
      </trkpt>
      <trkpt lat="45.18486" lon="4.99679">
        <ele>387.14801025391</ele>
        <time>2009-10-31T13:00:09Z</time>
      </trkpt>
      <trkpt lat="45.18515" lon="4.99681">
        <ele>386.19198608398</ele>
        <time>2009-10-31T13:00:13Z</time>
      </trkpt>
      <trkpt lat="45.18533" lon="4.99658">
        <ele>386.02200317383</ele>
        <time>2009-10-31T13:00:16Z</time>
      </trkpt>
      <trkpt lat="45.18537" lon="4.99636">
        <ele>385.67498779297</ele>
        <time>2009-10-31T13:00:18Z</time>
      </trkpt>
      <trkpt lat="45.18541" lon="4.99619">
        <ele>385.35101318359</ele>
        <time>2009-10-31T13:00:20Z</time>
      </trkpt>
      <trkpt lat="45.18558" lon="4.99594">
        <ele>385.39401245117</ele>
        <time>2009-10-31T13:00:24Z</time>
      </trkpt>
      <trkpt lat="45.18573" lon="4.99595">
        <ele>385.19000244141</ele>
        <time>2009-10-31T13:00:26Z</time>
      </trkpt>
      <trkpt lat="45.18579" lon="4.99596">
        <ele>385.27398681641</ele>
        <time>2009-10-31T13:00:27Z</time>
      </trkpt>
      <trkpt lat="45.18593" lon="4.996">
        <ele>385.42599487305</ele>
        <time>2009-10-31T13:00:29Z</time>
      </trkpt>
      <trkpt lat="45.18625" lon="4.99589">
        <ele>385.79800415039</ele>
        <time>2009-10-31T13:00:34Z</time>
      </trkpt>
      <trkpt lat="45.18631" lon="4.99584">
        <ele>386.15399169922</ele>
        <time>2009-10-31T13:00:35Z</time>
      </trkpt>
      <trkpt lat="45.18665" lon="4.99568">
        <ele>386.57299804688</ele>
        <time>2009-10-31T13:00:41Z</time>
      </trkpt>
      <trkpt lat="45.18692" lon="4.99577">
        <ele>386.82901000977</ele>
        <time>2009-10-31T13:00:45Z</time>
      </trkpt>
      <trkpt lat="45.18698" lon="4.99581">
        <ele>386.99798583984</ele>
        <time>2009-10-31T13:00:46Z</time>
      </trkpt>
      <trkpt lat="45.18736" lon="4.99615">
        <ele>387.88198852539</ele>
        <time>2009-10-31T13:00:53Z</time>
      </trkpt>
      <trkpt lat="45.18777" lon="4.99631">
        <ele>388.61199951172</ele>
        <time>2009-10-31T13:01:00Z</time>
      </trkpt>
      <trkpt lat="45.18818" lon="4.99641">
        <ele>389.23498535156</ele>
        <time>2009-10-31T13:01:07Z</time>
      </trkpt>
      <trkpt lat="45.18845" lon="4.99647">
        <ele>390.05200195312</ele>
        <time>2009-10-31T13:01:12Z</time>
      </trkpt>
      <trkpt lat="45.18856" lon="4.9965">
        <ele>390.26800537109</ele>
        <time>2009-10-31T13:01:14Z</time>
      </trkpt>
      <trkpt lat="45.18885" lon="4.99645">
        <ele>390.49499511719</ele>
        <time>2009-10-31T13:01:19Z</time>
      </trkpt>
      <trkpt lat="45.18891" lon="4.99642">
        <ele>390.54998779297</ele>
        <time>2009-10-31T13:01:20Z</time>
      </trkpt>
      <trkpt lat="45.1892" lon="4.99639">
        <ele>390.74798583984</ele>
        <time>2009-10-31T13:01:25Z</time>
      </trkpt>
      <trkpt lat="45.18925" lon="4.99643">
        <ele>390.81799316406</ele>
        <time>2009-10-31T13:01:26Z</time>
      </trkpt>
      <trkpt lat="45.18958" lon="4.99687">
        <ele>389.31500244141</ele>
        <time>2009-10-31T13:01:33Z</time>
      </trkpt>
      <trkpt lat="45.18985" lon="4.99725">
        <ele>387.97198486328</ele>
        <time>2009-10-31T13:01:39Z</time>
      </trkpt>
      <trkpt lat="45.19019" lon="4.99771">
        <ele>387.34100341797</ele>
        <time>2009-10-31T13:01:46Z</time>
      </trkpt>
      <trkpt lat="45.19043" lon="4.99819">
        <ele>387.8210144043</ele>
        <time>2009-10-31T13:01:52Z</time>
      </trkpt>
      <trkpt lat="45.19052" lon="4.99843">
        <ele>388.03399658203</ele>
        <time>2009-10-31T13:01:55Z</time>
      </trkpt>
      <trkpt lat="45.19072" lon="4.99875">
        <ele>389.14599609375</ele>
        <time>2009-10-31T13:02:00Z</time>
      </trkpt>
      <trkpt lat="45.19104" lon="4.99896">
        <ele>389.66101074219</ele>
        <time>2009-10-31T13:02:06Z</time>
      </trkpt>
      <trkpt lat="45.19147" lon="4.99908">
        <ele>389.92700195312</ele>
        <time>2009-10-31T13:02:13Z</time>
      </trkpt>
      <trkpt lat="45.1917" lon="4.99928">
        <ele>388.64801025391</ele>
        <time>2009-10-31T13:02:17Z</time>
      </trkpt>
      <trkpt lat="45.19201" lon="4.99937">
        <ele>386.15899658203</ele>
        <time>2009-10-31T13:02:21Z</time>
      </trkpt>
      <trkpt lat="45.19247" lon="4.99945">
        <ele>382.57400512695</ele>
        <time>2009-10-31T13:02:26Z</time>
      </trkpt>
      <trkpt lat="45.19255" lon="4.99954">
        <ele>381.94299316406</ele>
        <time>2009-10-31T13:02:27Z</time>
      </trkpt>
      <trkpt lat="45.19313" lon="5.00001">
        <ele>376.66198730469</ele>
        <time>2009-10-31T13:02:33Z</time>
      </trkpt>
      <trkpt lat="45.19347" lon="5.00022">
        <ele>373.52301025391</ele>
        <time>2009-10-31T13:02:36Z</time>
      </trkpt>
      <trkpt lat="45.19397" lon="5.0003">
        <ele>368.14498901367</ele>
        <time>2009-10-31T13:02:40Z</time>
      </trkpt>
      <trkpt lat="45.19424" lon="5.00028">
        <ele>366.68099975586</ele>
        <time>2009-10-31T13:02:42Z</time>
      </trkpt>
      <trkpt lat="45.19464" lon="5.00037">
        <ele>363.72698974609</ele>
        <time>2009-10-31T13:02:45Z</time>
      </trkpt>
      <trkpt lat="45.19486" lon="5.00061">
        <ele>360.04501342773</ele>
        <time>2009-10-31T13:02:47Z</time>
      </trkpt>
      <trkpt lat="45.19496" lon="5.00076">
        <ele>359.51300048828</ele>
        <time>2009-10-31T13:02:48Z</time>
      </trkpt>
      <trkpt lat="45.19541" lon="5.00149">
        <ele>356.86199951172</ele>
        <time>2009-10-31T13:02:53Z</time>
      </trkpt>
      <trkpt lat="45.19592" lon="5.00224">
        <ele>357.2799987793</ele>
        <time>2009-10-31T13:02:59Z</time>
      </trkpt>
      <trkpt lat="45.19629" lon="5.00283">
        <ele>360.05999755859</ele>
        <time>2009-10-31T13:03:04Z</time>
      </trkpt>
      <trkpt lat="45.1965" lon="5.00318">
        <ele>359.72799682617</ele>
        <time>2009-10-31T13:03:07Z</time>
      </trkpt>
      <trkpt lat="45.19664" lon="5.00341">
        <ele>360.5719909668</ele>
        <time>2009-10-31T13:03:09Z</time>
      </trkpt>
      <trkpt lat="45.19677" lon="5.00362">
        <ele>361.67599487305</ele>
        <time>2009-10-31T13:03:11Z</time>
      </trkpt>
      <trkpt lat="45.1969" lon="5.00384">
        <ele>362.63800048828</ele>
        <time>2009-10-31T13:03:13Z</time>
      </trkpt>
      <trkpt lat="45.19701" lon="5.00404">
        <ele>364.62298583984</ele>
        <time>2009-10-31T13:03:15Z</time>
      </trkpt>
      <trkpt lat="45.19712" lon="5.00422">
        <ele>365.68499755859</ele>
        <time>2009-10-31T13:03:17Z</time>
      </trkpt>
      <trkpt lat="45.19722" lon="5.00438">
        <ele>367.36801147461</ele>
        <time>2009-10-31T13:03:19Z</time>
      </trkpt>
      <trkpt lat="45.1973" lon="5.00452">
        <ele>368.0950012207</ele>
        <time>2009-10-31T13:03:21Z</time>
      </trkpt>
      <trkpt lat="45.19741" lon="5.00471">
        <ele>369.80899047852</ele>
        <time>2009-10-31T13:03:24Z</time>
      </trkpt>
      <trkpt lat="45.19748" lon="5.00482">
        <ele>370.87701416016</ele>
        <time>2009-10-31T13:03:26Z</time>
      </trkpt>
      <trkpt lat="45.19757" lon="5.00497">
        <ele>372.75399780273</ele>
        <time>2009-10-31T13:03:30Z</time>
      </trkpt>
      <trkpt lat="45.19767" lon="5.00514">
        <ele>374.10598754883</ele>
        <time>2009-10-31T13:03:35Z</time>
      </trkpt>
      <trkpt lat="45.19775" lon="5.00532">
        <ele>375.70098876953</ele>
        <time>2009-10-31T13:03:40Z</time>
      </trkpt>
      <trkpt lat="45.19783" lon="5.00562">
        <ele>378.10800170898</ele>
        <time>2009-10-31T13:03:48Z</time>
      </trkpt>
      <trkpt lat="45.1979" lon="5.00588">
        <ele>380.4049987793</ele>
        <time>2009-10-31T13:03:55Z</time>
      </trkpt>
      <trkpt lat="45.19796" lon="5.00614">
        <ele>382.33099365234</ele>
        <time>2009-10-31T13:04:02Z</time>
      </trkpt>
      <trkpt lat="45.19802" lon="5.00644">
        <ele>384.55200195312</ele>
        <time>2009-10-31T13:04:10Z</time>
      </trkpt>
      <trkpt lat="45.19809" lon="5.00671">
        <ele>385.88900756836</ele>
        <time>2009-10-31T13:04:17Z</time>
      </trkpt>
      <trkpt lat="45.19815" lon="5.00688">
        <ele>386.50799560547</ele>
        <time>2009-10-31T13:04:23Z</time>
      </trkpt>
      <trkpt lat="45.19829" lon="5.007">
        <ele>386.26800537109</ele>
        <time>2009-10-31T13:04:29Z</time>
      </trkpt>
      <trkpt lat="45.19847" lon="5.00712">
        <ele>385.71600341797</ele>
        <time>2009-10-31T13:04:34Z</time>
      </trkpt>
      <trkpt lat="45.1988" lon="5.00736">
        <ele>384.79598999023</ele>
        <time>2009-10-31T13:04:41Z</time>
      </trkpt>
      <trkpt lat="45.19921" lon="5.00759">
        <ele>384.07501220703</ele>
        <time>2009-10-31T13:04:48Z</time>
      </trkpt>
      <trkpt lat="45.19959" lon="5.00775">
        <ele>384.1780090332</ele>
        <time>2009-10-31T13:04:54Z</time>
      </trkpt>
      <trkpt lat="45.19971" lon="5.00781">
        <ele>384.34399414062</ele>
        <time>2009-10-31T13:04:56Z</time>
      </trkpt>
      <trkpt lat="45.20005" lon="5.00813">
        <ele>383.85000610352</ele>
        <time>2009-10-31T13:05:02Z</time>
      </trkpt>
      <trkpt lat="45.20031" lon="5.00834">
        <ele>383.02398681641</ele>
        <time>2009-10-31T13:05:06Z</time>
      </trkpt>
      <trkpt lat="45.20073" lon="5.0086">
        <ele>383.80099487305</ele>
        <time>2009-10-31T13:05:13Z</time>
      </trkpt>
      <trkpt lat="45.20089" lon="5.0087">
        <ele>384.91299438477</ele>
        <time>2009-10-31T13:05:16Z</time>
      </trkpt>
      <trkpt lat="45.20105" lon="5.00877">
        <ele>385.53698730469</ele>
        <time>2009-10-31T13:05:19Z</time>
      </trkpt>
      <trkpt lat="45.20136" lon="5.00893">
        <ele>387.52301025391</ele>
        <time>2009-10-31T13:05:26Z</time>
      </trkpt>
      <trkpt lat="45.20166" lon="5.00908">
        <ele>389.79598999023</ele>
        <time>2009-10-31T13:05:33Z</time>
      </trkpt>
      <trkpt lat="45.20199" lon="5.00925">
        <ele>391.90200805664</ele>
        <time>2009-10-31T13:05:41Z</time>
      </trkpt>
      <trkpt lat="45.20232" lon="5.00936">
        <ele>394.15399169922</ele>
        <time>2009-10-31T13:05:49Z</time>
      </trkpt>
      <trkpt lat="45.20258" lon="5.0094">
        <ele>395.57998657227</ele>
        <time>2009-10-31T13:05:55Z</time>
      </trkpt>
      <trkpt lat="45.20277" lon="5.00951">
        <ele>396.57501220703</ele>
        <time>2009-10-31T13:06:00Z</time>
      </trkpt>
      <trkpt lat="45.2029" lon="5.00964">
        <ele>396.86999511719</ele>
        <time>2009-10-31T13:06:04Z</time>
      </trkpt>
      <trkpt lat="45.20314" lon="5.00994">
        <ele>395.22698974609</ele>
        <time>2009-10-31T13:06:11Z</time>
      </trkpt>
      <trkpt lat="45.20326" lon="5.01014">
        <ele>394.14700317383</ele>
        <time>2009-10-31T13:06:14Z</time>
      </trkpt>
      <trkpt lat="45.20332" lon="5.01055">
        <ele>391.9169921875</ele>
        <time>2009-10-31T13:06:18Z</time>
      </trkpt>
      <trkpt lat="45.2033" lon="5.01066">
        <ele>391.68798828125</ele>
        <time>2009-10-31T13:06:19Z</time>
      </trkpt>
      <trkpt lat="45.20314" lon="5.01092">
        <ele>390.11401367188</ele>
        <time>2009-10-31T13:06:22Z</time>
      </trkpt>
      <trkpt lat="45.20307" lon="5.01098">
        <ele>390.04598999023</ele>
        <time>2009-10-31T13:06:23Z</time>
      </trkpt>
      <trkpt lat="45.2028" lon="5.01144">
        <ele>388.15100097656</ele>
        <time>2009-10-31T13:06:28Z</time>
      </trkpt>
      <trkpt lat="45.20288" lon="5.01152">
        <ele>387.32800292969</ele>
        <time>2009-10-31T13:06:30Z</time>
      </trkpt>
      <trkpt lat="45.20303" lon="5.01145">
        <ele>387.46301269531</ele>
        <time>2009-10-31T13:06:32Z</time>
      </trkpt>
      <trkpt lat="45.20313" lon="5.01142">
        <ele>387.60198974609</ele>
        <time>2009-10-31T13:06:33Z</time>
      </trkpt>
      <trkpt lat="45.20341" lon="5.01134">
        <ele>387.64999389648</ele>
        <time>2009-10-31T13:06:36Z</time>
      </trkpt>
      <trkpt lat="45.20372" lon="5.01111">
        <ele>388.76901245117</ele>
        <time>2009-10-31T13:06:41Z</time>
      </trkpt>
      <trkpt lat="45.20403" lon="5.01081">
        <ele>390.01800537109</ele>
        <time>2009-10-31T13:06:47Z</time>
      </trkpt>
      <trkpt lat="45.20435" lon="5.01078">
        <ele>388.60501098633</ele>
        <time>2009-10-31T13:06:52Z</time>
      </trkpt>
      <trkpt lat="45.20447" lon="5.01096">
        <ele>387.98098754883</ele>
        <time>2009-10-31T13:06:54Z</time>
      </trkpt>
      <trkpt lat="45.20456" lon="5.01121">
        <ele>387.91799926758</ele>
        <time>2009-10-31T13:06:56Z</time>
      </trkpt>
      <trkpt lat="45.20453" lon="5.01165">
        <ele>386.31399536133</ele>
        <time>2009-10-31T13:07:00Z</time>
      </trkpt>
      <trkpt lat="45.20453" lon="5.01176">
        <ele>385.74301147461</ele>
        <time>2009-10-31T13:07:01Z</time>
      </trkpt>
      <trkpt lat="45.20467" lon="5.0118">
        <ele>385.96701049805</ele>
        <time>2009-10-31T13:07:06Z</time>
      </trkpt>
      <trkpt lat="45.20481" lon="5.01178">
        <ele>385.92098999023</ele>
        <time>2009-10-31T13:07:09Z</time>
      </trkpt>
      <trkpt lat="45.20518" lon="5.01191">
        <ele>386.55599975586</ele>
        <time>2009-10-31T13:07:14Z</time>
      </trkpt>
      <trkpt lat="45.20567" lon="5.01212">
        <ele>387.56298828125</ele>
        <time>2009-10-31T13:07:21Z</time>
      </trkpt>
      <trkpt lat="45.2058" lon="5.01217">
        <ele>387.54501342773</ele>
        <time>2009-10-31T13:07:23Z</time>
      </trkpt>
      <trkpt lat="45.20604" lon="5.01236">
        <ele>387.64099121094</ele>
        <time>2009-10-31T13:07:27Z</time>
      </trkpt>
      <trkpt lat="45.20641" lon="5.01288">
        <ele>387.29800415039</ele>
        <time>2009-10-31T13:07:35Z</time>
      </trkpt>
      <trkpt lat="45.20667" lon="5.01337">
        <ele>386.32400512695</ele>
        <time>2009-10-31T13:07:41Z</time>
      </trkpt>
      <trkpt lat="45.2068" lon="5.01361">
        <ele>385.87100219727</ele>
        <time>2009-10-31T13:07:44Z</time>
      </trkpt>
      <trkpt lat="45.20707" lon="5.01383">
        <ele>385.23999023438</ele>
        <time>2009-10-31T13:07:48Z</time>
      </trkpt>
      <trkpt lat="45.20752" lon="5.01414">
        <ele>383.10900878906</ele>
        <time>2009-10-31T13:07:54Z</time>
      </trkpt>
      <trkpt lat="45.20771" lon="5.01435">
        <ele>382.98498535156</ele>
        <time>2009-10-31T13:07:57Z</time>
      </trkpt>
      <trkpt lat="45.20812" lon="5.01466">
        <ele>382.35800170898</ele>
        <time>2009-10-31T13:08:03Z</time>
      </trkpt>
      <trkpt lat="45.20839" lon="5.01486">
        <ele>381.86099243164</ele>
        <time>2009-10-31T13:08:07Z</time>
      </trkpt>
      <trkpt lat="45.20852" lon="5.01492">
        <ele>381.64300537109</ele>
        <time>2009-10-31T13:08:09Z</time>
      </trkpt>
      <trkpt lat="45.20902" lon="5.01521">
        <ele>381.03500366211</ele>
        <time>2009-10-31T13:08:17Z</time>
      </trkpt>
      <trkpt lat="45.20934" lon="5.01536">
        <ele>380.57699584961</ele>
        <time>2009-10-31T13:08:22Z</time>
      </trkpt>
      <trkpt lat="45.20959" lon="5.01567">
        <ele>380.6789855957</ele>
        <time>2009-10-31T13:08:27Z</time>
      </trkpt>
      <trkpt lat="45.20981" lon="5.01633">
        <ele>380.89498901367</ele>
        <time>2009-10-31T13:08:35Z</time>
      </trkpt>
      <trkpt lat="45.20987" lon="5.01658">
        <ele>381.24899291992</ele>
        <time>2009-10-31T13:08:38Z</time>
      </trkpt>
      <trkpt lat="45.20992" lon="5.01694">
        <ele>381.26098632812</ele>
        <time>2009-10-31T13:08:42Z</time>
      </trkpt>
      <trkpt lat="45.20995" lon="5.01722">
        <ele>380.98599243164</ele>
        <time>2009-10-31T13:08:45Z</time>
      </trkpt>
      <trkpt lat="45.2101" lon="5.01763">
        <ele>381.06298828125</ele>
        <time>2009-10-31T13:08:50Z</time>
      </trkpt>
      <trkpt lat="45.21027" lon="5.01777">
        <ele>381.41101074219</ele>
        <time>2009-10-31T13:08:53Z</time>
      </trkpt>
      <trkpt lat="45.21062" lon="5.0179">
        <ele>382.10000610352</ele>
        <time>2009-10-31T13:08:59Z</time>
      </trkpt>
      <trkpt lat="45.21099" lon="5.01792">
        <ele>382.25500488281</ele>
        <time>2009-10-31T13:09:05Z</time>
      </trkpt>
      <trkpt lat="45.21117" lon="5.01793">
        <ele>382.58099365234</ele>
        <time>2009-10-31T13:09:08Z</time>
      </trkpt>
      <trkpt lat="45.21143" lon="5.01807">
        <ele>383.02600097656</ele>
        <time>2009-10-31T13:09:13Z</time>
      </trkpt>
      <trkpt lat="45.2115" lon="5.01818">
        <ele>383.36898803711</ele>
        <time>2009-10-31T13:09:15Z</time>
      </trkpt>
      <trkpt lat="45.2116" lon="5.01837">
        <ele>383.97900390625</ele>
        <time>2009-10-31T13:09:18Z</time>
      </trkpt>
      <trkpt lat="45.21164" lon="5.01851">
        <ele>384.62899780273</ele>
        <time>2009-10-31T13:09:20Z</time>
      </trkpt>
      <trkpt lat="45.21166" lon="5.0189">
        <ele>384.14801025391</ele>
        <time>2009-10-31T13:09:25Z</time>
      </trkpt>
      <trkpt lat="45.21168" lon="5.01948">
        <ele>382.6369934082</ele>
        <time>2009-10-31T13:09:31Z</time>
      </trkpt>
      <trkpt lat="45.21168" lon="5.0197">
        <ele>381.70001220703</ele>
        <time>2009-10-31T13:09:33Z</time>
      </trkpt>
      <trkpt lat="45.21163" lon="5.02053">
        <ele>378.72500610352</ele>
        <time>2009-10-31T13:09:40Z</time>
      </trkpt>
      <trkpt lat="45.21158" lon="5.02104">
        <ele>377.19000244141</ele>
        <time>2009-10-31T13:09:44Z</time>
      </trkpt>
      <trkpt lat="45.21167" lon="5.02152">
        <ele>376.15600585938</ele>
        <time>2009-10-31T13:09:48Z</time>
      </trkpt>
      <trkpt lat="45.21185" lon="5.02156">
        <ele>376.38400268555</ele>
        <time>2009-10-31T13:09:50Z</time>
      </trkpt>
      <trkpt lat="45.21193" lon="5.02156">
        <ele>376.33499145508</ele>
        <time>2009-10-31T13:09:51Z</time>
      </trkpt>
      <trkpt lat="45.21209" lon="5.02157">
        <ele>375.51300048828</ele>
        <time>2009-10-31T13:09:53Z</time>
      </trkpt>
      <trkpt lat="45.21247" lon="5.02177">
        <ele>373.92498779297</ele>
        <time>2009-10-31T13:09:58Z</time>
      </trkpt>
      <trkpt lat="45.21293" lon="5.02216">
        <ele>372.15100097656</ele>
        <time>2009-10-31T13:10:05Z</time>
      </trkpt>
      <trkpt lat="45.21316" lon="5.02229">
        <ele>371.43899536133</ele>
        <time>2009-10-31T13:10:08Z</time>
      </trkpt>
      <trkpt lat="45.21349" lon="5.02234">
        <ele>370.31799316406</ele>
        <time>2009-10-31T13:10:12Z</time>
      </trkpt>
      <trkpt lat="45.21373" lon="5.02223">
        <ele>369.88198852539</ele>
        <time>2009-10-31T13:10:15Z</time>
      </trkpt>
      <trkpt lat="45.21427" lon="5.02194">
        <ele>367.24798583984</ele>
        <time>2009-10-31T13:10:22Z</time>
      </trkpt>
      <trkpt lat="45.21492" lon="5.02168">
        <ele>365.45401000977</ele>
        <time>2009-10-31T13:10:30Z</time>
      </trkpt>
      <trkpt lat="45.21551" lon="5.02156">
        <ele>363.64999389648</ele>
        <time>2009-10-31T13:10:37Z</time>
      </trkpt>
      <trkpt lat="45.21568" lon="5.02153">
        <ele>363.12899780273</ele>
        <time>2009-10-31T13:10:39Z</time>
      </trkpt>
      <trkpt lat="45.21597" lon="5.02129">
        <ele>363.00500488281</ele>
        <time>2009-10-31T13:10:43Z</time>
      </trkpt>
      <trkpt lat="45.21606" lon="5.02109">
        <ele>362.41500854492</ele>
        <time>2009-10-31T13:10:45Z</time>
      </trkpt>
      <trkpt lat="45.21619" lon="5.02079">
        <ele>362.86499023438</ele>
        <time>2009-10-31T13:10:48Z</time>
      </trkpt>
      <trkpt lat="45.21649" lon="5.02044">
        <ele>361.9460144043</ele>
        <time>2009-10-31T13:10:53Z</time>
      </trkpt>
      <trkpt lat="45.21699" lon="5.02013">
        <ele>362.67300415039</ele>
        <time>2009-10-31T13:11:01Z</time>
      </trkpt>
      <trkpt lat="45.21734" lon="5.01985">
        <ele>364.19299316406</ele>
        <time>2009-10-31T13:11:08Z</time>
      </trkpt>
      <trkpt lat="45.2176" lon="5.01964">
        <ele>365.24899291992</ele>
        <time>2009-10-31T13:11:14Z</time>
      </trkpt>
      <trkpt lat="45.21792" lon="5.01941">
        <ele>366.46701049805</ele>
        <time>2009-10-31T13:11:21Z</time>
      </trkpt>
      <trkpt lat="45.2182" lon="5.01922">
        <ele>368.00601196289</ele>
        <time>2009-10-31T13:11:27Z</time>
      </trkpt>
      <trkpt lat="45.21844" lon="5.01912">
        <ele>369.19400024414</ele>
        <time>2009-10-31T13:11:32Z</time>
      </trkpt>
      <trkpt lat="45.21873" lon="5.0192">
        <ele>369.53399658203</ele>
        <time>2009-10-31T13:11:38Z</time>
      </trkpt>
      <trkpt lat="45.21888" lon="5.01941">
        <ele>369.35598754883</ele>
        <time>2009-10-31T13:11:42Z</time>
      </trkpt>
      <trkpt lat="45.21892" lon="5.01956">
        <ele>369.52099609375</ele>
        <time>2009-10-31T13:11:44Z</time>
      </trkpt>
      <trkpt lat="45.21895" lon="5.01971">
        <ele>369.30599975586</ele>
        <time>2009-10-31T13:11:46Z</time>
      </trkpt>
      <trkpt lat="45.21911" lon="5.02036">
        <ele>369.23098754883</ele>
        <time>2009-10-31T13:11:54Z</time>
      </trkpt>
      <trkpt lat="45.21925" lon="5.02105">
        <ele>368.95001220703</ele>
        <time>2009-10-31T13:12:02Z</time>
      </trkpt>
      <trkpt lat="45.21944" lon="5.02129">
        <ele>369.07998657227</ele>
        <time>2009-10-31T13:12:06Z</time>
      </trkpt>
      <trkpt lat="45.21967" lon="5.02136">
        <ele>369.75399780273</ele>
        <time>2009-10-31T13:12:10Z</time>
      </trkpt>
      <trkpt lat="45.21979" lon="5.02133">
        <ele>370.23901367188</ele>
        <time>2009-10-31T13:12:12Z</time>
      </trkpt>
      <trkpt lat="45.21993" lon="5.02126">
        <ele>371.11700439453</ele>
        <time>2009-10-31T13:12:15Z</time>
      </trkpt>
      <trkpt lat="45.22011" lon="5.02118">
        <ele>371.55899047852</ele>
        <time>2009-10-31T13:12:19Z</time>
      </trkpt>
      <trkpt lat="45.22022" lon="5.02116">
        <ele>372.35000610352</ele>
        <time>2009-10-31T13:12:21Z</time>
      </trkpt>
      <trkpt lat="45.22043" lon="5.02097">
        <ele>372.84399414062</ele>
        <time>2009-10-31T13:12:26Z</time>
      </trkpt>
      <trkpt lat="45.22049" lon="5.02068">
        <ele>374.11599731445</ele>
        <time>2009-10-31T13:12:30Z</time>
      </trkpt>
      <trkpt lat="45.2205" lon="5.02062">
        <ele>374.35400390625</ele>
        <time>2009-10-31T13:12:31Z</time>
      </trkpt>
      <trkpt lat="45.2205" lon="5.02048">
        <ele>374.84799194336</ele>
        <time>2009-10-31T13:12:33Z</time>
      </trkpt>
      <trkpt lat="45.22059" lon="5.02018">
        <ele>375.90399169922</ele>
        <time>2009-10-31T13:12:38Z</time>
      </trkpt>
      <trkpt lat="45.22063" lon="5.02014">
        <ele>376.28298950195</ele>
        <time>2009-10-31T13:12:39Z</time>
      </trkpt>
      <trkpt lat="45.22079" lon="5.02001">
        <ele>377.59399414062</ele>
        <time>2009-10-31T13:12:43Z</time>
      </trkpt>
      <trkpt lat="45.22086" lon="5.01993">
        <ele>377.6369934082</ele>
        <time>2009-10-31T13:12:45Z</time>
      </trkpt>
      <trkpt lat="45.22097" lon="5.01963">
        <ele>378.70098876953</ele>
        <time>2009-10-31T13:12:50Z</time>
      </trkpt>
      <trkpt lat="45.22098" lon="5.01948">
        <ele>379.08499145508</ele>
        <time>2009-10-31T13:12:52Z</time>
      </trkpt>
      <trkpt lat="45.22098" lon="5.01919">
        <ele>379.85800170898</ele>
        <time>2009-10-31T13:12:56Z</time>
      </trkpt>
      <trkpt lat="45.22106" lon="5.01886">
        <ele>380.55099487305</ele>
        <time>2009-10-31T13:13:01Z</time>
      </trkpt>
      <trkpt lat="45.22128" lon="5.01857">
        <ele>381.88800048828</ele>
        <time>2009-10-31T13:13:07Z</time>
      </trkpt>
      <trkpt lat="45.22169" lon="5.01829">
        <ele>383.12701416016</ele>
        <time>2009-10-31T13:13:16Z</time>
      </trkpt>
      <trkpt lat="45.22194" lon="5.01817">
        <ele>383.93798828125</ele>
        <time>2009-10-31T13:13:21Z</time>
      </trkpt>
      <trkpt lat="45.22218" lon="5.01825">
        <ele>384.72500610352</ele>
        <time>2009-10-31T13:13:26Z</time>
      </trkpt>
      <trkpt lat="45.22234" lon="5.01845">
        <ele>385.51800537109</ele>
        <time>2009-10-31T13:13:30Z</time>
      </trkpt>
      <trkpt lat="45.22252" lon="5.01853">
        <ele>386.60501098633</ele>
        <time>2009-10-31T13:13:34Z</time>
      </trkpt>
      <trkpt lat="45.22261" lon="5.01851">
        <ele>386.91500854492</ele>
        <time>2009-10-31T13:13:36Z</time>
      </trkpt>
      <trkpt lat="45.22277" lon="5.01839">
        <ele>388.06698608398</ele>
        <time>2009-10-31T13:13:40Z</time>
      </trkpt>
      <trkpt lat="45.22313" lon="5.01817">
        <ele>390.15600585938</ele>
        <time>2009-10-31T13:13:48Z</time>
      </trkpt>
      <trkpt lat="45.22322" lon="5.01813">
        <ele>390.40701293945</ele>
        <time>2009-10-31T13:13:50Z</time>
      </trkpt>
      <trkpt lat="45.22342" lon="5.01811">
        <ele>390.97900390625</ele>
        <time>2009-10-31T13:13:54Z</time>
      </trkpt>
      <trkpt lat="45.22377" lon="5.01821">
        <ele>392.79901123047</ele>
        <time>2009-10-31T13:14:01Z</time>
      </trkpt>
      <trkpt lat="45.22382" lon="5.01822">
        <ele>392.88598632812</ele>
        <time>2009-10-31T13:14:02Z</time>
      </trkpt>
      <trkpt lat="45.22412" lon="5.01819">
        <ele>394.45999145508</ele>
        <time>2009-10-31T13:14:08Z</time>
      </trkpt>
      <trkpt lat="45.22451" lon="5.01801">
        <ele>395.98498535156</ele>
        <time>2009-10-31T13:14:16Z</time>
      </trkpt>
      <trkpt lat="45.22464" lon="5.0179">
        <ele>396.49398803711</ele>
        <time>2009-10-31T13:14:19Z</time>
      </trkpt>
      <trkpt lat="45.22477" lon="5.01768">
        <ele>397.58401489258</ele>
        <time>2009-10-31T13:14:23Z</time>
      </trkpt>
      <trkpt lat="45.225" lon="5.01734">
        <ele>399.19900512695</ele>
        <time>2009-10-31T13:14:30Z</time>
      </trkpt>
      <trkpt lat="45.22528" lon="5.01709">
        <ele>400.38500976562</ele>
        <time>2009-10-31T13:14:37Z</time>
      </trkpt>
      <trkpt lat="45.22552" lon="5.01697">
        <ele>401.12600708008</ele>
        <time>2009-10-31T13:14:43Z</time>
      </trkpt>
      <trkpt lat="45.22581" lon="5.01699">
        <ele>401.74099731445</ele>
        <time>2009-10-31T13:14:50Z</time>
      </trkpt>
      <trkpt lat="45.22599" lon="5.017">
        <ele>401.43798828125</ele>
        <time>2009-10-31T13:14:55Z</time>
      </trkpt>
      <trkpt lat="45.22622" lon="5.01685">
        <ele>400.22100830078</ele>
        <time>2009-10-31T13:15:00Z</time>
      </trkpt>
      <trkpt lat="45.22626" lon="5.0168">
        <ele>400.12799072266</ele>
        <time>2009-10-31T13:15:01Z</time>
      </trkpt>
      <trkpt lat="45.22654" lon="5.01635">
        <ele>397.96099853516</ele>
        <time>2009-10-31T13:15:08Z</time>
      </trkpt>
      <trkpt lat="45.22662" lon="5.0162">
        <ele>397.79901123047</ele>
        <time>2009-10-31T13:15:10Z</time>
      </trkpt>
      <trkpt lat="45.22682" lon="5.01581">
        <ele>396.30099487305</ele>
        <time>2009-10-31T13:15:15Z</time>
      </trkpt>
      <trkpt lat="45.22712" lon="5.0152">
        <ele>394.12899780273</ele>
        <time>2009-10-31T13:15:22Z</time>
      </trkpt>
      <trkpt lat="45.22734" lon="5.01473">
        <ele>392.46301269531</ele>
        <time>2009-10-31T13:15:27Z</time>
      </trkpt>
      <trkpt lat="45.22755" lon="5.01419">
        <ele>389.77398681641</ele>
        <time>2009-10-31T13:15:32Z</time>
      </trkpt>
      <trkpt lat="45.2278" lon="5.01355">
        <ele>385.35800170898</ele>
        <time>2009-10-31T13:15:37Z</time>
      </trkpt>
      <trkpt lat="45.22801" lon="5.01299">
        <ele>381.14199829102</ele>
        <time>2009-10-31T13:15:41Z</time>
      </trkpt>
      <trkpt lat="45.22811" lon="5.01234">
        <ele>378.9880065918</ele>
        <time>2009-10-31T13:15:45Z</time>
      </trkpt>
      <trkpt lat="45.22817" lon="5.01147">
        <ele>376.45999145508</ele>
        <time>2009-10-31T13:15:50Z</time>
      </trkpt>
      <trkpt lat="45.2282" lon="5.01097">
        <ele>374.88299560547</ele>
        <time>2009-10-31T13:15:53Z</time>
      </trkpt>
      <trkpt lat="45.22826" lon="5.01006">
        <ele>372.70700073242</ele>
        <time>2009-10-31T13:15:59Z</time>
      </trkpt>
      <trkpt lat="45.22829" lon="5.00946">
        <ele>373.73699951172</ele>
        <time>2009-10-31T13:16:04Z</time>
      </trkpt>
      <trkpt lat="45.22834" lon="5.00907">
        <ele>374.18200683594</ele>
        <time>2009-10-31T13:16:08Z</time>
      </trkpt>
      <trkpt lat="45.22847" lon="5.00883">
        <ele>374.79998779297</ele>
        <time>2009-10-31T13:16:12Z</time>
      </trkpt>
      <trkpt lat="45.22861" lon="5.00875">
        <ele>374.72799682617</ele>
        <time>2009-10-31T13:16:15Z</time>
      </trkpt>
      <trkpt lat="45.22914" lon="5.00859">
        <ele>374.29400634766</ele>
        <time>2009-10-31T13:16:24Z</time>
      </trkpt>
      <trkpt lat="45.22926" lon="5.00857">
        <ele>373.3219909668</ele>
        <time>2009-10-31T13:16:26Z</time>
      </trkpt>
      <trkpt lat="45.22954" lon="5.00859">
        <ele>371.70401000977</ele>
        <time>2009-10-31T13:16:30Z</time>
      </trkpt>
      <trkpt lat="45.22979" lon="5.00867">
        <ele>370.27801513672</ele>
        <time>2009-10-31T13:16:33Z</time>
      </trkpt>
      <trkpt lat="45.23018" lon="5.00878">
        <ele>367.88198852539</ele>
        <time>2009-10-31T13:16:37Z</time>
      </trkpt>
      <trkpt lat="45.23051" lon="5.00887">
        <ele>366.0419921875</ele>
        <time>2009-10-31T13:16:40Z</time>
      </trkpt>
      <trkpt lat="45.23074" lon="5.00893">
        <ele>364.88400268555</ele>
        <time>2009-10-31T13:16:42Z</time>
      </trkpt>
      <trkpt lat="45.23108" lon="5.00902">
        <ele>362.42199707031</ele>
        <time>2009-10-31T13:16:45Z</time>
      </trkpt>
      <trkpt lat="45.23178" lon="5.00918">
        <ele>359.83099365234</ele>
        <time>2009-10-31T13:16:51Z</time>
      </trkpt>
      <trkpt lat="45.23235" lon="5.00928">
        <ele>356.78799438477</ele>
        <time>2009-10-31T13:16:56Z</time>
      </trkpt>
      <trkpt lat="45.23294" lon="5.00951">
        <ele>357.04800415039</ele>
        <time>2009-10-31T13:17:02Z</time>
      </trkpt>
      <trkpt lat="45.2333" lon="5.00957">
        <ele>357.57598876953</ele>
        <time>2009-10-31T13:17:06Z</time>
      </trkpt>
      <trkpt lat="45.23357" lon="5.0096">
        <ele>358.45999145508</ele>
        <time>2009-10-31T13:17:09Z</time>
      </trkpt>
      <trkpt lat="45.23383" lon="5.00965">
        <ele>359.51300048828</ele>
        <time>2009-10-31T13:17:12Z</time>
      </trkpt>
      <trkpt lat="45.23416" lon="5.0097">
        <ele>360.8219909668</ele>
        <time>2009-10-31T13:17:16Z</time>
      </trkpt>
      <trkpt lat="45.23432" lon="5.00973">
        <ele>361.90100097656</ele>
        <time>2009-10-31T13:17:18Z</time>
      </trkpt>
      <trkpt lat="45.23455" lon="5.00977">
        <ele>363.04000854492</ele>
        <time>2009-10-31T13:17:21Z</time>
      </trkpt>
      <trkpt lat="45.23486" lon="5.00982">
        <ele>364.30499267578</ele>
        <time>2009-10-31T13:17:25Z</time>
      </trkpt>
      <trkpt lat="45.2353" lon="5.00996">
        <ele>366.01098632812</ele>
        <time>2009-10-31T13:17:31Z</time>
      </trkpt>
      <trkpt lat="45.23576" lon="5.01021">
        <ele>367.29400634766</ele>
        <time>2009-10-31T13:17:38Z</time>
      </trkpt>
      <trkpt lat="45.23617" lon="5.01036">
        <ele>368.49301147461</ele>
        <time>2009-10-31T13:17:45Z</time>
      </trkpt>
      <trkpt lat="45.23656" lon="5.01047">
        <ele>368.76000976562</ele>
        <time>2009-10-31T13:17:52Z</time>
      </trkpt>
      <trkpt lat="45.23703" lon="5.01059">
        <ele>368.88101196289</ele>
        <time>2009-10-31T13:18:00Z</time>
      </trkpt>
      <trkpt lat="45.23754" lon="5.01072">
        <ele>368.85998535156</ele>
        <time>2009-10-31T13:18:08Z</time>
      </trkpt>
      <trkpt lat="45.23805" lon="5.01086">
        <ele>369.42498779297</ele>
        <time>2009-10-31T13:18:16Z</time>
      </trkpt>
      <trkpt lat="45.23857" lon="5.01098">
        <ele>369.85800170898</ele>
        <time>2009-10-31T13:18:24Z</time>
      </trkpt>
      <trkpt lat="45.23899" lon="5.01096">
        <ele>371.03900146484</ele>
        <time>2009-10-31T13:18:31Z</time>
      </trkpt>
      <trkpt lat="45.23944" lon="5.01088">
        <ele>371.16500854492</ele>
        <time>2009-10-31T13:18:39Z</time>
      </trkpt>
      <trkpt lat="45.23985" lon="5.0108">
        <ele>368.63000488281</ele>
        <time>2009-10-31T13:18:45Z</time>
      </trkpt>
      <trkpt lat="45.24001" lon="5.01077">
        <ele>367.8450012207</ele>
        <time>2009-10-31T13:18:47Z</time>
      </trkpt>
      <trkpt lat="45.24043" lon="5.01068">
        <ele>365.1960144043</ele>
        <time>2009-10-31T13:18:52Z</time>
      </trkpt>
      <trkpt lat="45.24081" lon="5.01062">
        <ele>363.125</ele>
        <time>2009-10-31T13:18:56Z</time>
      </trkpt>
      <trkpt lat="45.24121" lon="5.01054">
        <ele>360.26901245117</ele>
        <time>2009-10-31T13:19:00Z</time>
      </trkpt>
      <trkpt lat="45.24152" lon="5.01048">
        <ele>358.60198974609</ele>
        <time>2009-10-31T13:19:03Z</time>
      </trkpt>
      <trkpt lat="45.24173" lon="5.01044">
        <ele>357.48300170898</ele>
        <time>2009-10-31T13:19:05Z</time>
      </trkpt>
      <trkpt lat="45.242" lon="5.01015">
        <ele>355.67001342773</ele>
        <time>2009-10-31T13:19:08Z</time>
      </trkpt>
      <trkpt lat="45.24207" lon="5.00984">
        <ele>354.17199707031</ele>
        <time>2009-10-31T13:19:10Z</time>
      </trkpt>
      <trkpt lat="45.24204" lon="5.00951">
        <ele>353.32598876953</ele>
        <time>2009-10-31T13:19:12Z</time>
      </trkpt>
      <trkpt lat="45.24198" lon="5.00905">
        <ele>351.9580078125</ele>
        <time>2009-10-31T13:19:15Z</time>
      </trkpt>
      <trkpt lat="45.24208" lon="5.00891">
        <ele>351.22900390625</ele>
        <time>2009-10-31T13:19:17Z</time>
      </trkpt>
      <trkpt lat="45.24223" lon="5.00903">
        <ele>349.89999389648</ele>
        <time>2009-10-31T13:19:19Z</time>
      </trkpt>
      <trkpt lat="45.24229" lon="5.00913">
        <ele>349.95300292969</ele>
        <time>2009-10-31T13:19:20Z</time>
      </trkpt>
      <trkpt lat="45.24231" lon="5.00935">
        <ele>349.29400634766</ele>
        <time>2009-10-31T13:19:22Z</time>
      </trkpt>
      <trkpt lat="45.24232" lon="5.00956">
        <ele>348.81399536133</ele>
        <time>2009-10-31T13:19:24Z</time>
      </trkpt>
      <trkpt lat="45.24236" lon="5.00979">
        <ele>348.31900024414</ele>
        <time>2009-10-31T13:19:26Z</time>
      </trkpt>
      <trkpt lat="45.24252" lon="5.01021">
        <ele>346.38800048828</ele>
        <time>2009-10-31T13:19:30Z</time>
      </trkpt>
      <trkpt lat="45.24283" lon="5.01051">
        <ele>344.51998901367</ele>
        <time>2009-10-31T13:19:34Z</time>
      </trkpt>
      <trkpt lat="45.24313" lon="5.01054">
        <ele>341.75500488281</ele>
        <time>2009-10-31T13:19:37Z</time>
      </trkpt>
      <trkpt lat="45.24356" lon="5.01055">
        <ele>338.70901489258</ele>
        <time>2009-10-31T13:19:41Z</time>
      </trkpt>
      <trkpt lat="45.24379" lon="5.01062">
        <ele>337.40798950195</ele>
        <time>2009-10-31T13:19:43Z</time>
      </trkpt>
      <trkpt lat="45.24408" lon="5.0109">
        <ele>334.88000488281</ele>
        <time>2009-10-31T13:19:46Z</time>
      </trkpt>
      <trkpt lat="45.24425" lon="5.01133">
        <ele>332.6369934082</ele>
        <time>2009-10-31T13:19:49Z</time>
      </trkpt>
      <trkpt lat="45.24416" lon="5.01166">
        <ele>330.49600219727</ele>
        <time>2009-10-31T13:19:51Z</time>
      </trkpt>
      <trkpt lat="45.24394" lon="5.01185">
        <ele>329.12899780273</ele>
        <time>2009-10-31T13:19:53Z</time>
      </trkpt>
      <trkpt lat="45.24365" lon="5.01212">
        <ele>327.93399047852</ele>
        <time>2009-10-31T13:19:56Z</time>
      </trkpt>
      <trkpt lat="45.24358" lon="5.01227">
        <ele>327.13400268555</ele>
        <time>2009-10-31T13:19:57Z</time>
      </trkpt>
      <trkpt lat="45.24336" lon="5.01277">
        <ele>322.89199829102</ele>
        <time>2009-10-31T13:20:00Z</time>
      </trkpt>
      <trkpt lat="45.24306" lon="5.01309">
        <ele>321.17001342773</ele>
        <time>2009-10-31T13:20:03Z</time>
      </trkpt>
      <trkpt lat="45.2429" lon="5.01333">
        <ele>319.34201049805</ele>
        <time>2009-10-31T13:20:05Z</time>
      </trkpt>
      <trkpt lat="45.243" lon="5.01374">
        <ele>317.43499755859</ele>
        <time>2009-10-31T13:20:08Z</time>
      </trkpt>
      <trkpt lat="45.24314" lon="5.01383">
        <ele>316.41198730469</ele>
        <time>2009-10-31T13:20:09Z</time>
      </trkpt>
      <trkpt lat="45.24339" lon="5.01399">
        <ele>314.94900512695</ele>
        <time>2009-10-31T13:20:11Z</time>
      </trkpt>
      <trkpt lat="45.2438" lon="5.01412">
        <ele>312.65899658203</ele>
        <time>2009-10-31T13:20:14Z</time>
      </trkpt>
      <trkpt lat="45.24416" lon="5.01405">
        <ele>311.12701416016</ele>
        <time>2009-10-31T13:20:17Z</time>
      </trkpt>
      <trkpt lat="45.24451" lon="5.01396">
        <ele>308.81799316406</ele>
        <time>2009-10-31T13:20:20Z</time>
      </trkpt>
      <trkpt lat="45.24485" lon="5.01408">
        <ele>308.15100097656</ele>
        <time>2009-10-31T13:20:23Z</time>
      </trkpt>
      <trkpt lat="45.245" lon="5.01433">
        <ele>308.08999633789</ele>
        <time>2009-10-31T13:20:25Z</time>
      </trkpt>
      <trkpt lat="45.24508" lon="5.01473">
        <ele>309.83099365234</ele>
        <time>2009-10-31T13:20:28Z</time>
      </trkpt>
      <trkpt lat="45.24511" lon="5.01496">
        <ele>310.45901489258</ele>
        <time>2009-10-31T13:20:30Z</time>
      </trkpt>
      <trkpt lat="45.24518" lon="5.01544">
        <ele>310.63900756836</ele>
        <time>2009-10-31T13:20:35Z</time>
      </trkpt>
      <trkpt lat="45.24524" lon="5.01598">
        <ele>311.36999511719</ele>
        <time>2009-10-31T13:20:42Z</time>
      </trkpt>
      <trkpt lat="45.2453" lon="5.01645">
        <ele>312.03201293945</ele>
        <time>2009-10-31T13:20:49Z</time>
      </trkpt>
      <trkpt lat="45.24533" lon="5.01684">
        <ele>312.84698486328</ele>
        <time>2009-10-31T13:20:55Z</time>
      </trkpt>
      <trkpt lat="45.24535" lon="5.01698">
        <ele>313.24099731445</ele>
        <time>2009-10-31T13:20:57Z</time>
      </trkpt>
      <trkpt lat="45.2454" lon="5.01755">
        <ele>313.35000610352</ele>
        <time>2009-10-31T13:21:05Z</time>
      </trkpt>
      <trkpt lat="45.24544" lon="5.01799">
        <ele>314.60998535156</ele>
        <time>2009-10-31T13:21:11Z</time>
      </trkpt>
      <trkpt lat="45.2456" lon="5.01853">
        <ele>315.2619934082</ele>
        <time>2009-10-31T13:21:19Z</time>
      </trkpt>
      <trkpt lat="45.24585" lon="5.01924">
        <ele>315.38900756836</ele>
        <time>2009-10-31T13:21:29Z</time>
      </trkpt>
      <trkpt lat="45.24604" lon="5.01979">
        <ele>315.40200805664</ele>
        <time>2009-10-31T13:21:37Z</time>
      </trkpt>
      <trkpt lat="45.24623" lon="5.02036">
        <ele>315.59899902344</ele>
        <time>2009-10-31T13:21:45Z</time>
      </trkpt>
      <trkpt lat="45.24643" lon="5.02093">
        <ele>315.60699462891</ele>
        <time>2009-10-31T13:21:53Z</time>
      </trkpt>
      <trkpt lat="45.24673" lon="5.02178">
        <ele>317.44299316406</ele>
        <time>2009-10-31T13:22:05Z</time>
      </trkpt>
      <trkpt lat="45.24696" lon="5.02239">
        <ele>315.79098510742</ele>
        <time>2009-10-31T13:22:12Z</time>
      </trkpt>
      <trkpt lat="45.2479" lon="5.02452">
        <ele>315.75500488281</ele>
        <time>2009-10-31T13:22:39Z</time>
      </trkpt>
      <trkpt lat="45.24803" lon="5.02479">
        <ele>316.07901000977</ele>
        <time>2009-10-31T13:22:45Z</time>
      </trkpt>
      <trkpt lat="45.24814" lon="5.02506">
        <ele>317.60000610352</ele>
        <time>2009-10-31T13:22:50Z</time>
      </trkpt>
      <trkpt lat="45.2482" lon="5.02516">
        <ele>318.22900390625</ele>
        <time>2009-10-31T13:22:52Z</time>
      </trkpt>
      <trkpt lat="45.2483" lon="5.02535">
        <ele>319.52600097656</ele>
        <time>2009-10-31T13:22:56Z</time>
      </trkpt>
      <trkpt lat="45.24842" lon="5.02554">
        <ele>320.26300048828</ele>
        <time>2009-10-31T13:23:02Z</time>
      </trkpt>
      <trkpt lat="45.24847" lon="5.02558">
        <ele>320.59100341797</ele>
        <time>2009-10-31T13:23:07Z</time>
      </trkpt>
      <trkpt lat="45.24848" lon="5.02559">
        <ele>320.64001464844</ele>
        <time>2009-10-31T13:23:11Z</time>
      </trkpt>
      <trkpt lat="45.24859" lon="5.02552">
        <ele>320.06399536133</ele>
        <time>2009-10-31T13:23:16Z</time>
      </trkpt>
      <trkpt lat="45.24877" lon="5.02538">
        <ele>319.18099975586</ele>
        <time>2009-10-31T13:23:20Z</time>
      </trkpt>
      <trkpt lat="45.24896" lon="5.02537">
        <ele>318</ele>
        <time>2009-10-31T13:23:23Z</time>
      </trkpt>
      <trkpt lat="45.24913" lon="5.02552">
        <ele>316.59799194336</ele>
        <time>2009-10-31T13:23:26Z</time>
      </trkpt>
      <trkpt lat="45.24923" lon="5.02579">
        <ele>315.70001220703</ele>
        <time>2009-10-31T13:23:29Z</time>
      </trkpt>
      <trkpt lat="45.2493" lon="5.0261">
        <ele>314.85800170898</ele>
        <time>2009-10-31T13:23:32Z</time>
      </trkpt>
      <trkpt lat="45.24952" lon="5.02683">
        <ele>313.2799987793</ele>
        <time>2009-10-31T13:23:39Z</time>
      </trkpt>
      <trkpt lat="45.24973" lon="5.02718">
        <ele>311.58700561523</ele>
        <time>2009-10-31T13:23:43Z</time>
      </trkpt>
      <trkpt lat="45.24993" lon="5.02742">
        <ele>310.63598632812</ele>
        <time>2009-10-31T13:23:46Z</time>
      </trkpt>
      <trkpt lat="45.25049" lon="5.02799">
        <ele>308.79501342773</ele>
        <time>2009-10-31T13:23:54Z</time>
      </trkpt>
      <trkpt lat="45.25063" lon="5.02812">
        <ele>308.30801391602</ele>
        <time>2009-10-31T13:23:56Z</time>
      </trkpt>
      <trkpt lat="45.25092" lon="5.02821">
        <ele>307.95300292969</ele>
        <time>2009-10-31T13:24:00Z</time>
      </trkpt>
      <trkpt lat="45.25121" lon="5.02811">
        <ele>308.08401489258</ele>
        <time>2009-10-31T13:24:04Z</time>
      </trkpt>
      <trkpt lat="45.25127" lon="5.02806">
        <ele>307.99798583984</ele>
        <time>2009-10-31T13:24:05Z</time>
      </trkpt>
      <trkpt lat="45.25179" lon="5.02751">
        <ele>307.41500854492</ele>
        <time>2009-10-31T13:24:14Z</time>
      </trkpt>
      <trkpt lat="45.25218" lon="5.02705">
        <ele>306.79699707031</ele>
        <time>2009-10-31T13:24:21Z</time>
      </trkpt>
      <trkpt lat="45.25276" lon="5.02637">
        <ele>306.29901123047</ele>
        <time>2009-10-31T13:24:31Z</time>
      </trkpt>
      <trkpt lat="45.25324" lon="5.02582">
        <ele>306.3630065918</ele>
        <time>2009-10-31T13:24:39Z</time>
      </trkpt>
      <trkpt lat="45.25359" lon="5.02541">
        <ele>306.71600341797</ele>
        <time>2009-10-31T13:24:45Z</time>
      </trkpt>
      <trkpt lat="45.25393" lon="5.02502">
        <ele>306.14700317383</ele>
        <time>2009-10-31T13:24:51Z</time>
      </trkpt>
      <trkpt lat="45.25417" lon="5.02475">
        <ele>305.86401367188</ele>
        <time>2009-10-31T13:24:55Z</time>
      </trkpt>
      <trkpt lat="45.25452" lon="5.02439">
        <ele>305.40100097656</ele>
        <time>2009-10-31T13:25:01Z</time>
      </trkpt>
      <trkpt lat="45.25472" lon="5.02438">
        <ele>305.55700683594</ele>
        <time>2009-10-31T13:25:04Z</time>
      </trkpt>
      <trkpt lat="45.25483" lon="5.02454">
        <ele>305.18499755859</ele>
        <time>2009-10-31T13:25:06Z</time>
      </trkpt>
      <trkpt lat="45.25526" lon="5.02529">
        <ele>304.85998535156</ele>
        <time>2009-10-31T13:25:15Z</time>
      </trkpt>
      <trkpt lat="45.25547" lon="5.02581">
        <ele>305.99600219727</ele>
        <time>2009-10-31T13:25:22Z</time>
      </trkpt>
      <trkpt lat="45.2556" lon="5.02625">
        <ele>306.49301147461</ele>
        <time>2009-10-31T13:25:28Z</time>
      </trkpt>
      <trkpt lat="45.25581" lon="5.02662">
        <ele>307.57598876953</ele>
        <time>2009-10-31T13:25:34Z</time>
      </trkpt>
      <trkpt lat="45.25611" lon="5.02705">
        <ele>310.02301025391</ele>
        <time>2009-10-31T13:25:43Z</time>
      </trkpt>
      <trkpt lat="45.25632" lon="5.02728">
        <ele>311.24398803711</ele>
        <time>2009-10-31T13:25:50Z</time>
      </trkpt>
      <trkpt lat="45.25651" lon="5.02745">
        <ele>312.67599487305</ele>
        <time>2009-10-31T13:25:56Z</time>
      </trkpt>
      <trkpt lat="45.25662" lon="5.02757">
        <ele>313.61499023438</ele>
        <time>2009-10-31T13:26:00Z</time>
      </trkpt>
      <trkpt lat="45.25682" lon="5.02774">
        <ele>315.16799926758</ele>
        <time>2009-10-31T13:26:07Z</time>
      </trkpt>
      <trkpt lat="45.25704" lon="5.02796">
        <ele>316.16500854492</ele>
        <time>2009-10-31T13:26:15Z</time>
      </trkpt>
      <trkpt lat="45.25716" lon="5.02813">
        <ele>317.43798828125</ele>
        <time>2009-10-31T13:26:20Z</time>
      </trkpt>
      <trkpt lat="45.25734" lon="5.02815">
        <ele>317.97900390625</ele>
        <time>2009-10-31T13:26:25Z</time>
      </trkpt>
      <trkpt lat="45.2575" lon="5.02824">
        <ele>318.93600463867</ele>
        <time>2009-10-31T13:26:30Z</time>
      </trkpt>
      <trkpt lat="45.25768" lon="5.02837">
        <ele>320.2380065918</ele>
        <time>2009-10-31T13:26:36Z</time>
      </trkpt>
      <trkpt lat="45.25794" lon="5.02857">
        <ele>321.9469909668</ele>
        <time>2009-10-31T13:26:45Z</time>
      </trkpt>
      <trkpt lat="45.25814" lon="5.02871">
        <ele>323.39801025391</ele>
        <time>2009-10-31T13:26:52Z</time>
      </trkpt>
      <trkpt lat="45.25836" lon="5.02884">
        <ele>324.59799194336</ele>
        <time>2009-10-31T13:27:00Z</time>
      </trkpt>
      <trkpt lat="45.25855" lon="5.02891">
        <ele>326.10998535156</ele>
        <time>2009-10-31T13:27:06Z</time>
      </trkpt>
      <trkpt lat="45.25877" lon="5.02897">
        <ele>327.31201171875</ele>
        <time>2009-10-31T13:27:13Z</time>
      </trkpt>
      <trkpt lat="45.25899" lon="5.02905">
        <ele>328.75100708008</ele>
        <time>2009-10-31T13:27:20Z</time>
      </trkpt>
      <trkpt lat="45.25922" lon="5.02913">
        <ele>329.86801147461</ele>
        <time>2009-10-31T13:27:27Z</time>
      </trkpt>
      <trkpt lat="45.25948" lon="5.02917">
        <ele>331.48699951172</ele>
        <time>2009-10-31T13:27:35Z</time>
      </trkpt>
      <trkpt lat="45.25969" lon="5.02917">
        <ele>332.61999511719</ele>
        <time>2009-10-31T13:27:41Z</time>
      </trkpt>
      <trkpt lat="45.25991" lon="5.02911">
        <ele>334.0299987793</ele>
        <time>2009-10-31T13:27:48Z</time>
      </trkpt>
      <trkpt lat="45.26008" lon="5.02905">
        <ele>335.20999145508</ele>
        <time>2009-10-31T13:27:54Z</time>
      </trkpt>
      <trkpt lat="45.26033" lon="5.02896">
        <ele>337.19000244141</ele>
        <time>2009-10-31T13:28:02Z</time>
      </trkpt>
      <trkpt lat="45.26056" lon="5.02888">
        <ele>338.35000610352</ele>
        <time>2009-10-31T13:28:09Z</time>
      </trkpt>
      <trkpt lat="45.26078" lon="5.02884">
        <ele>340.05700683594</ele>
        <time>2009-10-31T13:28:16Z</time>
      </trkpt>
      <trkpt lat="45.26099" lon="5.02883">
        <ele>341.4049987793</ele>
        <time>2009-10-31T13:28:22Z</time>
      </trkpt>
      <trkpt lat="45.26116" lon="5.02885">
        <ele>342.28900146484</ele>
        <time>2009-10-31T13:28:27Z</time>
      </trkpt>
      <trkpt lat="45.26134" lon="5.02891">
        <ele>343.32998657227</ele>
        <time>2009-10-31T13:28:32Z</time>
      </trkpt>
      <trkpt lat="45.26154" lon="5.02902">
        <ele>344.91198730469</ele>
        <time>2009-10-31T13:28:39Z</time>
      </trkpt>
      <trkpt lat="45.26173" lon="5.02911">
        <ele>346.19100952148</ele>
        <time>2009-10-31T13:28:45Z</time>
      </trkpt>
      <trkpt lat="45.26189" lon="5.02916">
        <ele>347.0530090332</ele>
        <time>2009-10-31T13:28:50Z</time>
      </trkpt>
      <trkpt lat="45.26202" lon="5.02922">
        <ele>348.17001342773</ele>
        <time>2009-10-31T13:28:54Z</time>
      </trkpt>
      <trkpt lat="45.26228" lon="5.02933">
        <ele>349.63598632812</ele>
        <time>2009-10-31T13:29:02Z</time>
      </trkpt>
      <trkpt lat="45.26245" lon="5.0294">
        <ele>350.98999023438</ele>
        <time>2009-10-31T13:29:07Z</time>
      </trkpt>
      <trkpt lat="45.26257" lon="5.02947">
        <ele>351.85800170898</ele>
        <time>2009-10-31T13:29:11Z</time>
      </trkpt>
      <trkpt lat="45.26282" lon="5.02951">
        <ele>353.61700439453</ele>
        <time>2009-10-31T13:29:18Z</time>
      </trkpt>
      <trkpt lat="45.26311" lon="5.02947">
        <ele>355.34600830078</ele>
        <time>2009-10-31T13:29:26Z</time>
      </trkpt>
      <trkpt lat="45.26339" lon="5.02938">
        <ele>356.88101196289</ele>
        <time>2009-10-31T13:29:34Z</time>
      </trkpt>
      <trkpt lat="45.26363" lon="5.02931">
        <ele>358.66400146484</ele>
        <time>2009-10-31T13:29:41Z</time>
      </trkpt>
      <trkpt lat="45.26382" lon="5.02925">
        <ele>359.65600585938</ele>
        <time>2009-10-31T13:29:47Z</time>
      </trkpt>
      <trkpt lat="45.264" lon="5.02922">
        <ele>361.21200561523</ele>
        <time>2009-10-31T13:29:52Z</time>
      </trkpt>
      <trkpt lat="45.26418" lon="5.02918">
        <ele>362.42199707031</ele>
        <time>2009-10-31T13:29:57Z</time>
      </trkpt>
      <trkpt lat="45.26436" lon="5.02915">
        <ele>363.34100341797</ele>
        <time>2009-10-31T13:30:02Z</time>
      </trkpt>
      <trkpt lat="45.26464" lon="5.02912">
        <ele>365.17498779297</ele>
        <time>2009-10-31T13:30:10Z</time>
      </trkpt>
      <trkpt lat="45.26498" lon="5.02908">
        <ele>367.38198852539</ele>
        <time>2009-10-31T13:30:20Z</time>
      </trkpt>
      <trkpt lat="45.26526" lon="5.02908">
        <ele>368.92599487305</ele>
        <time>2009-10-31T13:30:28Z</time>
      </trkpt>
      <trkpt lat="45.26546" lon="5.02912">
        <ele>370.19100952148</ele>
        <time>2009-10-31T13:30:34Z</time>
      </trkpt>
      <trkpt lat="45.26572" lon="5.02922">
        <ele>371.9469909668</ele>
        <time>2009-10-31T13:30:42Z</time>
      </trkpt>
      <trkpt lat="45.26591" lon="5.0293">
        <ele>373.48699951172</ele>
        <time>2009-10-31T13:30:48Z</time>
      </trkpt>
      <trkpt lat="45.26606" lon="5.02937">
        <ele>374.22299194336</ele>
        <time>2009-10-31T13:30:53Z</time>
      </trkpt>
      <trkpt lat="45.26628" lon="5.02947">
        <ele>376.23098754883</ele>
        <time>2009-10-31T13:31:00Z</time>
      </trkpt>
      <trkpt lat="45.26656" lon="5.02961">
        <ele>378.13900756836</ele>
        <time>2009-10-31T13:31:09Z</time>
      </trkpt>
      <trkpt lat="45.26678" lon="5.02971">
        <ele>379.09698486328</ele>
        <time>2009-10-31T13:31:16Z</time>
      </trkpt>
      <trkpt lat="45.267" lon="5.02981">
        <ele>380.68301391602</ele>
        <time>2009-10-31T13:31:23Z</time>
      </trkpt>
      <trkpt lat="45.26723" lon="5.02991">
        <ele>382.09600830078</ele>
        <time>2009-10-31T13:31:30Z</time>
      </trkpt>
      <trkpt lat="45.26744" lon="5.03001">
        <ele>383.6669921875</ele>
        <time>2009-10-31T13:31:36Z</time>
      </trkpt>
      <trkpt lat="45.26766" lon="5.03014">
        <ele>385.3030090332</ele>
        <time>2009-10-31T13:31:43Z</time>
      </trkpt>
      <trkpt lat="45.26788" lon="5.03025">
        <ele>386.81799316406</ele>
        <time>2009-10-31T13:31:50Z</time>
      </trkpt>
      <trkpt lat="45.26814" lon="5.03038">
        <ele>388.48199462891</ele>
        <time>2009-10-31T13:31:58Z</time>
      </trkpt>
      <trkpt lat="45.26841" lon="5.03049">
        <ele>390.81698608398</ele>
        <time>2009-10-31T13:32:05Z</time>
      </trkpt>
      <trkpt lat="45.26877" lon="5.03062">
        <ele>393.18899536133</ele>
        <time>2009-10-31T13:32:13Z</time>
      </trkpt>
      <trkpt lat="45.26929" lon="5.03086">
        <ele>396.22799682617</ele>
        <time>2009-10-31T13:32:24Z</time>
      </trkpt>
      <trkpt lat="45.2697" lon="5.03107">
        <ele>399.37200927734</ele>
        <time>2009-10-31T13:32:33Z</time>
      </trkpt>
      <trkpt lat="45.27011" lon="5.03128">
        <ele>402.23999023438</ele>
        <time>2009-10-31T13:32:42Z</time>
      </trkpt>
      <trkpt lat="45.2706" lon="5.03154">
        <ele>405.16900634766</ele>
        <time>2009-10-31T13:32:52Z</time>
      </trkpt>
      <trkpt lat="45.27103" lon="5.03177">
        <ele>408.08401489258</ele>
        <time>2009-10-31T13:33:01Z</time>
      </trkpt>
      <trkpt lat="45.27134" lon="5.03197">
        <ele>408.57901000977</ele>
        <time>2009-10-31T13:33:08Z</time>
      </trkpt>
      <trkpt lat="45.27139" lon="5.03201">
        <ele>410.03900146484</ele>
        <time>2009-10-31T13:33:09Z</time>
      </trkpt>
      <trkpt lat="45.2717" lon="5.03234">
        <ele>412.72601318359</ele>
        <time>2009-10-31T13:33:17Z</time>
      </trkpt>
      <trkpt lat="45.27198" lon="5.03272">
        <ele>415.15600585938</ele>
        <time>2009-10-31T13:33:25Z</time>
      </trkpt>
      <trkpt lat="45.272" lon="5.03278">
        <ele>415.17098999023</ele>
        <time>2009-10-31T13:33:26Z</time>
      </trkpt>
      <trkpt lat="45.27217" lon="5.0333">
        <ele>418.09298706055</ele>
        <time>2009-10-31T13:33:35Z</time>
      </trkpt>
      <trkpt lat="45.27228" lon="5.0337">
        <ele>419.91101074219</ele>
        <time>2009-10-31T13:33:42Z</time>
      </trkpt>
      <trkpt lat="45.27238" lon="5.03395">
        <ele>421.31201171875</ele>
        <time>2009-10-31T13:33:47Z</time>
      </trkpt>
      <trkpt lat="45.27267" lon="5.03429">
        <ele>423.5119934082</ele>
        <time>2009-10-31T13:33:56Z</time>
      </trkpt>
      <trkpt lat="45.27277" lon="5.03438">
        <ele>424.54400634766</ele>
        <time>2009-10-31T13:33:59Z</time>
      </trkpt>
      <trkpt lat="45.27307" lon="5.0346">
        <ele>426.82998657227</ele>
        <time>2009-10-31T13:34:07Z</time>
      </trkpt>
      <trkpt lat="45.27343" lon="5.03484">
        <ele>429.47100830078</ele>
        <time>2009-10-31T13:34:16Z</time>
      </trkpt>
      <trkpt lat="45.27382" lon="5.03501">
        <ele>432.13900756836</ele>
        <time>2009-10-31T13:34:25Z</time>
      </trkpt>
      <trkpt lat="45.27419" lon="5.03504">
        <ele>434.22601318359</ele>
        <time>2009-10-31T13:34:33Z</time>
      </trkpt>
      <trkpt lat="45.27456" lon="5.035">
        <ele>434.61401367188</ele>
        <time>2009-10-31T13:34:41Z</time>
      </trkpt>
      <trkpt lat="45.27484" lon="5.03497">
        <ele>435.08401489258</ele>
        <time>2009-10-31T13:34:48Z</time>
      </trkpt>
      <trkpt lat="45.27518" lon="5.03493">
        <ele>434.97100830078</ele>
        <time>2009-10-31T13:34:56Z</time>
      </trkpt>
      <trkpt lat="45.27555" lon="5.0349">
        <ele>434.29501342773</ele>
        <time>2009-10-31T13:35:04Z</time>
      </trkpt>
      <trkpt lat="45.27596" lon="5.03483">
        <ele>433.55599975586</ele>
        <time>2009-10-31T13:35:12Z</time>
      </trkpt>
      <trkpt lat="45.27627" lon="5.03479">
        <ele>432.62399291992</ele>
        <time>2009-10-31T13:35:18Z</time>
      </trkpt>
      <trkpt lat="45.27649" lon="5.03476">
        <ele>431.96398925781</ele>
        <time>2009-10-31T13:35:22Z</time>
      </trkpt>
      <trkpt lat="45.27678" lon="5.03474">
        <ele>431.12298583984</ele>
        <time>2009-10-31T13:35:27Z</time>
      </trkpt>
      <trkpt lat="45.27708" lon="5.03471">
        <ele>430.46899414062</ele>
        <time>2009-10-31T13:35:32Z</time>
      </trkpt>
      <trkpt lat="45.27767" lon="5.03465">
        <ele>428.57901000977</ele>
        <time>2009-10-31T13:35:41Z</time>
      </trkpt>
      <trkpt lat="45.27794" lon="5.03462">
        <ele>427.80499267578</ele>
        <time>2009-10-31T13:35:45Z</time>
      </trkpt>
      <trkpt lat="45.27861" lon="5.03454">
        <ele>426.54501342773</ele>
        <time>2009-10-31T13:35:55Z</time>
      </trkpt>
      <trkpt lat="45.279" lon="5.0345">
        <ele>426.45300292969</ele>
        <time>2009-10-31T13:36:02Z</time>
      </trkpt>
      <trkpt lat="45.27943" lon="5.03446">
        <ele>427.64001464844</ele>
        <time>2009-10-31T13:36:11Z</time>
      </trkpt>
      <trkpt lat="45.27978" lon="5.03442">
        <ele>428.63800048828</ele>
        <time>2009-10-31T13:36:19Z</time>
      </trkpt>
      <trkpt lat="45.28022" lon="5.03436">
        <ele>429.88198852539</ele>
        <time>2009-10-31T13:36:29Z</time>
      </trkpt>
      <trkpt lat="45.28054" lon="5.03433">
        <ele>430.73999023438</ele>
        <time>2009-10-31T13:36:36Z</time>
      </trkpt>
      <trkpt lat="45.28099" lon="5.03428">
        <ele>430.4880065918</ele>
        <time>2009-10-31T13:36:46Z</time>
      </trkpt>
      <trkpt lat="45.28133" lon="5.03424">
        <ele>430.10101318359</ele>
        <time>2009-10-31T13:36:54Z</time>
      </trkpt>
      <trkpt lat="45.28149" lon="5.03421">
        <ele>429.61499023438</ele>
        <time>2009-10-31T13:36:58Z</time>
      </trkpt>
      <trkpt lat="45.28167" lon="5.03421">
        <ele>429.14498901367</ele>
        <time>2009-10-31T13:37:02Z</time>
      </trkpt>
      <trkpt lat="45.28181" lon="5.03422">
        <ele>428.7080078125</ele>
        <time>2009-10-31T13:37:05Z</time>
      </trkpt>
      <trkpt lat="45.28217" lon="5.03432">
        <ele>427.63800048828</ele>
        <time>2009-10-31T13:37:12Z</time>
      </trkpt>
      <trkpt lat="45.28233" lon="5.0344">
        <ele>427.08898925781</ele>
        <time>2009-10-31T13:37:15Z</time>
      </trkpt>
      <trkpt lat="45.28265" lon="5.03464">
        <ele>425.90399169922</ele>
        <time>2009-10-31T13:37:21Z</time>
      </trkpt>
      <trkpt lat="45.2827" lon="5.0347">
        <ele>425.64801025391</ele>
        <time>2009-10-31T13:37:22Z</time>
      </trkpt>
      <trkpt lat="45.28287" lon="5.03488">
        <ele>424.3330078125</ele>
        <time>2009-10-31T13:37:25Z</time>
      </trkpt>
      <trkpt lat="45.28324" lon="5.0351">
        <ele>422.50799560547</ele>
        <time>2009-10-31T13:37:30Z</time>
      </trkpt>
      <trkpt lat="45.28362" lon="5.03522">
        <ele>420.82699584961</ele>
        <time>2009-10-31T13:37:34Z</time>
      </trkpt>
      <trkpt lat="45.28433" lon="5.03533">
        <ele>416.54400634766</ele>
        <time>2009-10-31T13:37:41Z</time>
      </trkpt>
      <trkpt lat="45.28443" lon="5.03536">
        <ele>416.50201416016</ele>
        <time>2009-10-31T13:37:42Z</time>
      </trkpt>
      <trkpt lat="45.28483" lon="5.03542">
        <ele>414.07998657227</ele>
        <time>2009-10-31T13:37:46Z</time>
      </trkpt>
      <trkpt lat="45.28534" lon="5.03551">
        <ele>411.48498535156</ele>
        <time>2009-10-31T13:37:51Z</time>
      </trkpt>
      <trkpt lat="45.28576" lon="5.0356">
        <ele>409.37100219727</ele>
        <time>2009-10-31T13:37:55Z</time>
      </trkpt>
      <trkpt lat="45.28613" lon="5.03587">
        <ele>406.51098632812</ele>
        <time>2009-10-31T13:37:59Z</time>
      </trkpt>
      <trkpt lat="45.28624" lon="5.03615">
        <ele>405.5950012207</ele>
        <time>2009-10-31T13:38:01Z</time>
      </trkpt>
      <trkpt lat="45.28624" lon="5.03646">
        <ele>404.41299438477</ele>
        <time>2009-10-31T13:38:03Z</time>
      </trkpt>
      <trkpt lat="45.28614" lon="5.03675">
        <ele>402.89401245117</ele>
        <time>2009-10-31T13:38:05Z</time>
      </trkpt>
      <trkpt lat="45.28608" lon="5.03688">
        <ele>402.62600708008</ele>
        <time>2009-10-31T13:38:06Z</time>
      </trkpt>
      <trkpt lat="45.2856" lon="5.03777">
        <ele>397.70599365234</ele>
        <time>2009-10-31T13:38:13Z</time>
      </trkpt>
      <trkpt lat="45.28548" lon="5.03805">
        <ele>396.8450012207</ele>
        <time>2009-10-31T13:38:15Z</time>
      </trkpt>
      <trkpt lat="45.28542" lon="5.03819">
        <ele>396.17001342773</ele>
        <time>2009-10-31T13:38:16Z</time>
      </trkpt>
      <trkpt lat="45.28509" lon="5.03865">
        <ele>393.77700805664</ele>
        <time>2009-10-31T13:38:20Z</time>
      </trkpt>
      <trkpt lat="45.28497" lon="5.03891">
        <ele>392.49798583984</ele>
        <time>2009-10-31T13:38:22Z</time>
      </trkpt>
      <trkpt lat="45.28504" lon="5.0392">
        <ele>391.77200317383</ele>
        <time>2009-10-31T13:38:24Z</time>
      </trkpt>
      <trkpt lat="45.28525" lon="5.03922">
        <ele>391.00299072266</ele>
        <time>2009-10-31T13:38:26Z</time>
      </trkpt>
      <trkpt lat="45.28535" lon="5.03915">
        <ele>390.62799072266</ele>
        <time>2009-10-31T13:38:27Z</time>
      </trkpt>
      <trkpt lat="45.28588" lon="5.03887">
        <ele>387.46200561523</ele>
        <time>2009-10-31T13:38:32Z</time>
      </trkpt>
      <trkpt lat="45.28666" lon="5.03861">
        <ele>382.9700012207</ele>
        <time>2009-10-31T13:38:39Z</time>
      </trkpt>
      <trkpt lat="45.28735" lon="5.03836">
        <ele>378.73199462891</ele>
        <time>2009-10-31T13:38:45Z</time>
      </trkpt>
      <trkpt lat="45.28778" lon="5.03812">
        <ele>376.69400024414</ele>
        <time>2009-10-31T13:38:49Z</time>
      </trkpt>
      <trkpt lat="45.28822" lon="5.03791">
        <ele>373.67001342773</ele>
        <time>2009-10-31T13:38:53Z</time>
      </trkpt>
      <trkpt lat="45.28869" lon="5.03792">
        <ele>370.78298950195</ele>
        <time>2009-10-31T13:38:57Z</time>
      </trkpt>
      <trkpt lat="45.289" lon="5.03819">
        <ele>368.32400512695</ele>
        <time>2009-10-31T13:39:00Z</time>
      </trkpt>
      <trkpt lat="45.28907" lon="5.03836">
        <ele>368.1780090332</ele>
        <time>2009-10-31T13:39:01Z</time>
      </trkpt>
      <trkpt lat="45.28912" lon="5.03852">
        <ele>367.22100830078</ele>
        <time>2009-10-31T13:39:02Z</time>
      </trkpt>
      <trkpt lat="45.2893" lon="5.03897">
        <ele>364.81399536133</ele>
        <time>2009-10-31T13:39:05Z</time>
      </trkpt>
      <trkpt lat="45.28955" lon="5.03936">
        <ele>362.76901245117</ele>
        <time>2009-10-31T13:39:08Z</time>
      </trkpt>
      <trkpt lat="45.28968" lon="5.03966">
        <ele>361.60699462891</ele>
        <time>2009-10-31T13:39:10Z</time>
      </trkpt>
      <trkpt lat="45.28983" lon="5.04035">
        <ele>358.51300048828</ele>
        <time>2009-10-31T13:39:14Z</time>
      </trkpt>
      <trkpt lat="45.28979" lon="5.0407">
        <ele>357.22799682617</ele>
        <time>2009-10-31T13:39:16Z</time>
      </trkpt>
      <trkpt lat="45.28959" lon="5.04119">
        <ele>354.92199707031</ele>
        <time>2009-10-31T13:39:19Z</time>
      </trkpt>
      <trkpt lat="45.28941" lon="5.04145">
        <ele>353.25399780273</ele>
        <time>2009-10-31T13:39:21Z</time>
      </trkpt>
      <trkpt lat="45.28867" lon="5.04236">
        <ele>348.75100708008</ele>
        <time>2009-10-31T13:39:28Z</time>
      </trkpt>
      <trkpt lat="45.28857" lon="5.04248">
        <ele>348.11898803711</ele>
        <time>2009-10-31T13:39:29Z</time>
      </trkpt>
      <trkpt lat="45.28806" lon="5.04282">
        <ele>344.76098632812</ele>
        <time>2009-10-31T13:39:33Z</time>
      </trkpt>
      <trkpt lat="45.28765" lon="5.04292">
        <ele>342.19000244141</ele>
        <time>2009-10-31T13:39:36Z</time>
      </trkpt>
      <trkpt lat="45.28741" lon="5.04332">
        <ele>339.44900512695</ele>
        <time>2009-10-31T13:39:39Z</time>
      </trkpt>
      <trkpt lat="45.28751" lon="5.04363">
        <ele>338.51998901367</ele>
        <time>2009-10-31T13:39:41Z</time>
      </trkpt>
      <trkpt lat="45.28772" lon="5.04376">
        <ele>338.8039855957</ele>
        <time>2009-10-31T13:39:43Z</time>
      </trkpt>
      <trkpt lat="45.28809" lon="5.04374">
        <ele>336.95498657227</ele>
        <time>2009-10-31T13:39:46Z</time>
      </trkpt>
      <trkpt lat="45.2882" lon="5.04371">
        <ele>336.3630065918</ele>
        <time>2009-10-31T13:39:47Z</time>
      </trkpt>
      <trkpt lat="45.28899" lon="5.0434">
        <ele>331.0530090332</ele>
        <time>2009-10-31T13:39:54Z</time>
      </trkpt>
      <trkpt lat="45.28975" lon="5.04305">
        <ele>326.54598999023</ele>
        <time>2009-10-31T13:40:01Z</time>
      </trkpt>
      <trkpt lat="45.29042" lon="5.04283">
        <ele>322.32901000977</ele>
        <time>2009-10-31T13:40:07Z</time>
      </trkpt>
      <trkpt lat="45.29109" lon="5.04275">
        <ele>316.73498535156</ele>
        <time>2009-10-31T13:40:13Z</time>
      </trkpt>
      <trkpt lat="45.29129" lon="5.04277">
        <ele>315.07400512695</ele>
        <time>2009-10-31T13:40:16Z</time>
      </trkpt>
      <trkpt lat="45.29141" lon="5.04278">
        <ele>314.03201293945</ele>
        <time>2009-10-31T13:40:19Z</time>
      </trkpt>
      <trkpt lat="45.29149" lon="5.04279">
        <ele>313.52801513672</ele>
        <time>2009-10-31T13:40:24Z</time>
      </trkpt>
      <trkpt lat="45.29148" lon="5.04279">
        <ele>313.2200012207</ele>
        <time>2009-10-31T13:40:30Z</time>
      </trkpt>
      <trkpt lat="45.29149" lon="5.04278">
        <ele>313.06799316406</ele>
        <time>2009-10-31T13:40:35Z</time>
      </trkpt>
      <trkpt lat="45.29155" lon="5.04289">
        <ele>313.11999511719</ele>
        <time>2009-10-31T13:40:40Z</time>
      </trkpt>
      <trkpt lat="45.29157" lon="5.04304">
        <ele>313.33200073242</ele>
        <time>2009-10-31T13:40:43Z</time>
      </trkpt>
      <trkpt lat="45.29155" lon="5.0432">
        <ele>314.05200195312</ele>
        <time>2009-10-31T13:40:46Z</time>
      </trkpt>
      <trkpt lat="45.29152" lon="5.04347">
        <ele>315.0830078125</ele>
        <time>2009-10-31T13:40:50Z</time>
      </trkpt>
      <trkpt lat="45.29149" lon="5.04378">
        <ele>315.93399047852</ele>
        <time>2009-10-31T13:40:54Z</time>
      </trkpt>
      <trkpt lat="45.29147" lon="5.04408">
        <ele>316.96899414062</ele>
        <time>2009-10-31T13:40:58Z</time>
      </trkpt>
      <trkpt lat="45.29145" lon="5.04423">
        <ele>317.36599731445</ele>
        <time>2009-10-31T13:41:00Z</time>
      </trkpt>
      <trkpt lat="45.29142" lon="5.04456">
        <ele>318.39898681641</ele>
        <time>2009-10-31T13:41:05Z</time>
      </trkpt>
      <trkpt lat="45.29139" lon="5.04491">
        <ele>318.84899902344</ele>
        <time>2009-10-31T13:41:11Z</time>
      </trkpt>
      <trkpt lat="45.29136" lon="5.04532">
        <ele>319.16000366211</ele>
        <time>2009-10-31T13:41:17Z</time>
      </trkpt>
      <trkpt lat="45.29132" lon="5.04561">
        <ele>319.35800170898</ele>
        <time>2009-10-31T13:41:21Z</time>
      </trkpt>
      <trkpt lat="45.29128" lon="5.04623">
        <ele>319.50900268555</ele>
        <time>2009-10-31T13:41:29Z</time>
      </trkpt>
      <trkpt lat="45.29123" lon="5.04689">
        <ele>320.3869934082</ele>
        <time>2009-10-31T13:41:38Z</time>
      </trkpt>
      <trkpt lat="45.29126" lon="5.04748">
        <ele>320.83499145508</ele>
        <time>2009-10-31T13:41:46Z</time>
      </trkpt>
      <trkpt lat="45.29134" lon="5.04811">
        <ele>320.38101196289</ele>
        <time>2009-10-31T13:41:54Z</time>
      </trkpt>
      <trkpt lat="45.29142" lon="5.04882">
        <ele>319.93899536133</ele>
        <time>2009-10-31T13:42:02Z</time>
      </trkpt>
      <trkpt lat="45.29151" lon="5.04934">
        <ele>319.29901123047</ele>
        <time>2009-10-31T13:42:08Z</time>
      </trkpt>
      <trkpt lat="45.2917" lon="5.04989">
        <ele>319.34698486328</ele>
        <time>2009-10-31T13:42:15Z</time>
      </trkpt>
      <trkpt lat="45.29194" lon="5.05053">
        <ele>319.52301025391</ele>
        <time>2009-10-31T13:42:23Z</time>
      </trkpt>
      <trkpt lat="45.29216" lon="5.05121">
        <ele>319.17199707031</ele>
        <time>2009-10-31T13:42:31Z</time>
      </trkpt>
      <trkpt lat="45.29233" lon="5.05197">
        <ele>320.11999511719</ele>
        <time>2009-10-31T13:42:40Z</time>
      </trkpt>
      <trkpt lat="45.29243" lon="5.05245">
        <ele>321.51501464844</ele>
        <time>2009-10-31T13:42:47Z</time>
      </trkpt>
      <trkpt lat="45.29251" lon="5.05284">
        <ele>322.64099121094</ele>
        <time>2009-10-31T13:42:53Z</time>
      </trkpt>
      <trkpt lat="45.29255" lon="5.05308">
        <ele>323.71398925781</ele>
        <time>2009-10-31T13:42:57Z</time>
      </trkpt>
      <trkpt lat="45.29262" lon="5.05329">
        <ele>324.01501464844</ele>
        <time>2009-10-31T13:43:01Z</time>
      </trkpt>
      <trkpt lat="45.29271" lon="5.05378">
        <ele>324.00299072266</ele>
        <time>2009-10-31T13:43:08Z</time>
      </trkpt>
      <trkpt lat="45.29271" lon="5.05386">
        <ele>323.83999633789</ele>
        <time>2009-10-31T13:43:09Z</time>
      </trkpt>
      <trkpt lat="45.2927" lon="5.05415">
        <ele>324.26400756836</ele>
        <time>2009-10-31T13:43:13Z</time>
      </trkpt>
      <trkpt lat="45.2925" lon="5.05474">
        <ele>324.60800170898</ele>
        <time>2009-10-31T13:43:21Z</time>
      </trkpt>
      <trkpt lat="45.29233" lon="5.05517">
        <ele>325.16299438477</ele>
        <time>2009-10-31T13:43:27Z</time>
      </trkpt>
      <trkpt lat="45.29228" lon="5.05561">
        <ele>325.90600585938</ele>
        <time>2009-10-31T13:43:33Z</time>
      </trkpt>
      <trkpt lat="45.29229" lon="5.05568">
        <ele>326.14498901367</ele>
        <time>2009-10-31T13:43:34Z</time>
      </trkpt>
      <trkpt lat="45.29236" lon="5.05625">
        <ele>326.85598754883</ele>
        <time>2009-10-31T13:43:42Z</time>
      </trkpt>
      <trkpt lat="45.29235" lon="5.05672">
        <ele>327.0950012207</ele>
        <time>2009-10-31T13:43:48Z</time>
      </trkpt>
      <trkpt lat="45.29232" lon="5.05751">
        <ele>327.22698974609</ele>
        <time>2009-10-31T13:43:57Z</time>
      </trkpt>
      <trkpt lat="45.29234" lon="5.05814">
        <ele>326.66500854492</ele>
        <time>2009-10-31T13:44:03Z</time>
      </trkpt>
      <trkpt lat="45.29236" lon="5.05866">
        <ele>326.69400024414</ele>
        <time>2009-10-31T13:44:08Z</time>
      </trkpt>
      <trkpt lat="45.29228" lon="5.05916">
        <ele>326.12399291992</ele>
        <time>2009-10-31T13:44:13Z</time>
      </trkpt>
      <trkpt lat="45.29225" lon="5.05926">
        <ele>326.01400756836</ele>
        <time>2009-10-31T13:44:14Z</time>
      </trkpt>
      <trkpt lat="45.2921" lon="5.05962">
        <ele>325.9580078125</ele>
        <time>2009-10-31T13:44:18Z</time>
      </trkpt>
      <trkpt lat="45.29202" lon="5.06021">
        <ele>326.15301513672</ele>
        <time>2009-10-31T13:44:24Z</time>
      </trkpt>
      <trkpt lat="45.292" lon="5.06095">
        <ele>326.87399291992</ele>
        <time>2009-10-31T13:44:32Z</time>
      </trkpt>
      <trkpt lat="45.292" lon="5.06172">
        <ele>328.42199707031</ele>
        <time>2009-10-31T13:44:41Z</time>
      </trkpt>
      <trkpt lat="45.29196" lon="5.06247">
        <ele>329.91598510742</ele>
        <time>2009-10-31T13:44:50Z</time>
      </trkpt>
      <trkpt lat="45.29183" lon="5.06293">
        <ele>331.21099853516</ele>
        <time>2009-10-31T13:44:56Z</time>
      </trkpt>
      <trkpt lat="45.2918" lon="5.06325">
        <ele>331.66198730469</ele>
        <time>2009-10-31T13:45:00Z</time>
      </trkpt>
      <trkpt lat="45.29185" lon="5.06372">
        <ele>333.10800170898</ele>
        <time>2009-10-31T13:45:06Z</time>
      </trkpt>
      <trkpt lat="45.2919" lon="5.06402">
        <ele>333.57400512695</ele>
        <time>2009-10-31T13:45:10Z</time>
      </trkpt>
      <trkpt lat="45.29186" lon="5.06442">
        <ele>334.46301269531</ele>
        <time>2009-10-31T13:45:15Z</time>
      </trkpt>
      <trkpt lat="45.29168" lon="5.06507">
        <ele>336.09899902344</ele>
        <time>2009-10-31T13:45:24Z</time>
      </trkpt>
      <trkpt lat="45.29157" lon="5.06567">
        <ele>337.52899169922</ele>
        <time>2009-10-31T13:45:32Z</time>
      </trkpt>
      <trkpt lat="45.29147" lon="5.06623">
        <ele>338.96899414062</ele>
        <time>2009-10-31T13:45:40Z</time>
      </trkpt>
      <trkpt lat="45.29139" lon="5.06676">
        <ele>339.53799438477</ele>
        <time>2009-10-31T13:45:47Z</time>
      </trkpt>
      <trkpt lat="45.29137" lon="5.067">
        <ele>340.48400878906</ele>
        <time>2009-10-31T13:45:50Z</time>
      </trkpt>
      <trkpt lat="45.29138" lon="5.06753">
        <ele>341.41101074219</ele>
        <time>2009-10-31T13:45:57Z</time>
      </trkpt>
      <trkpt lat="45.29144" lon="5.06824">
        <ele>342.74398803711</ele>
        <time>2009-10-31T13:46:06Z</time>
      </trkpt>
      <trkpt lat="45.29151" lon="5.06897">
        <ele>344.44100952148</ele>
        <time>2009-10-31T13:46:15Z</time>
      </trkpt>
      <trkpt lat="45.29155" lon="5.06967">
        <ele>345.90701293945</ele>
        <time>2009-10-31T13:46:24Z</time>
      </trkpt>
      <trkpt lat="45.29161" lon="5.07009">
        <ele>347.16101074219</ele>
        <time>2009-10-31T13:46:30Z</time>
      </trkpt>
      <trkpt lat="45.29168" lon="5.07045">
        <ele>347.48400878906</ele>
        <time>2009-10-31T13:46:35Z</time>
      </trkpt>
      <trkpt lat="45.29178" lon="5.07097">
        <ele>348.64099121094</ele>
        <time>2009-10-31T13:46:42Z</time>
      </trkpt>
      <trkpt lat="45.29185" lon="5.07152">
        <ele>348.85900878906</ele>
        <time>2009-10-31T13:46:49Z</time>
      </trkpt>
      <trkpt lat="45.29194" lon="5.07218">
        <ele>349.55200195312</ele>
        <time>2009-10-31T13:46:57Z</time>
      </trkpt>
      <trkpt lat="45.29201" lon="5.07294">
        <ele>350.85299682617</ele>
        <time>2009-10-31T13:47:06Z</time>
      </trkpt>
      <trkpt lat="45.29203" lon="5.0731">
        <ele>351.17999267578</ele>
        <time>2009-10-31T13:47:08Z</time>
      </trkpt>
      <trkpt lat="45.29211" lon="5.07341">
        <ele>351.54098510742</ele>
        <time>2009-10-31T13:47:12Z</time>
      </trkpt>
      <trkpt lat="45.29227" lon="5.07377">
        <ele>352.14599609375</ele>
        <time>2009-10-31T13:47:17Z</time>
      </trkpt>
      <trkpt lat="45.29237" lon="5.07408">
        <ele>352.59698486328</ele>
        <time>2009-10-31T13:47:21Z</time>
      </trkpt>
      <trkpt lat="45.29242" lon="5.07461">
        <ele>353.35101318359</ele>
        <time>2009-10-31T13:47:27Z</time>
      </trkpt>
      <trkpt lat="45.29243" lon="5.07552">
        <ele>354.17999267578</ele>
        <time>2009-10-31T13:47:37Z</time>
      </trkpt>
      <trkpt lat="45.29241" lon="5.07616">
        <ele>354.34799194336</ele>
        <time>2009-10-31T13:47:44Z</time>
      </trkpt>
      <trkpt lat="45.29241" lon="5.07671">
        <ele>354.89599609375</ele>
        <time>2009-10-31T13:47:50Z</time>
      </trkpt>
      <trkpt lat="45.29254" lon="5.07733">
        <ele>355.15100097656</ele>
        <time>2009-10-31T13:47:57Z</time>
      </trkpt>
      <trkpt lat="45.29281" lon="5.07791">
        <ele>355.16299438477</ele>
        <time>2009-10-31T13:48:04Z</time>
      </trkpt>
      <trkpt lat="45.29292" lon="5.07816">
        <ele>355.52301025391</ele>
        <time>2009-10-31T13:48:07Z</time>
      </trkpt>
      <trkpt lat="45.29301" lon="5.07863">
        <ele>356.59698486328</ele>
        <time>2009-10-31T13:48:12Z</time>
      </trkpt>
      <trkpt lat="45.29306" lon="5.07916">
        <ele>358.49899291992</ele>
        <time>2009-10-31T13:48:18Z</time>
      </trkpt>
      <trkpt lat="45.29308" lon="5.07976">
        <ele>357.07400512695</ele>
        <time>2009-10-31T13:48:24Z</time>
      </trkpt>
      <trkpt lat="45.29316" lon="5.0804">
        <ele>356.95999145508</ele>
        <time>2009-10-31T13:48:30Z</time>
      </trkpt>
      <trkpt lat="45.29332" lon="5.08087">
        <ele>357.87100219727</ele>
        <time>2009-10-31T13:48:35Z</time>
      </trkpt>
      <trkpt lat="45.29341" lon="5.08113">
        <ele>358.52499389648</ele>
        <time>2009-10-31T13:48:38Z</time>
      </trkpt>
      <trkpt lat="45.29348" lon="5.08184">
        <ele>358.55599975586</ele>
        <time>2009-10-31T13:48:45Z</time>
      </trkpt>
      <trkpt lat="45.29335" lon="5.08267">
        <ele>358.71600341797</ele>
        <time>2009-10-31T13:48:53Z</time>
      </trkpt>
      <trkpt lat="45.29313" lon="5.08387">
        <ele>360.16598510742</ele>
        <time>2009-10-31T13:49:05Z</time>
      </trkpt>
      <trkpt lat="45.29303" lon="5.08469">
        <ele>361.19299316406</ele>
        <time>2009-10-31T13:49:13Z</time>
      </trkpt>
      <trkpt lat="45.29309" lon="5.0851">
        <ele>361.23599243164</ele>
        <time>2009-10-31T13:49:17Z</time>
      </trkpt>
      <trkpt lat="45.29338" lon="5.08599">
        <ele>361.74301147461</ele>
        <time>2009-10-31T13:49:26Z</time>
      </trkpt>
      <trkpt lat="45.29368" lon="5.08689">
        <ele>363.93899536133</ele>
        <time>2009-10-31T13:49:36Z</time>
      </trkpt>
      <trkpt lat="45.29399" lon="5.08786">
        <ele>366.31100463867</ele>
        <time>2009-10-31T13:49:48Z</time>
      </trkpt>
      <trkpt lat="45.29413" lon="5.08842">
        <ele>367.06500244141</ele>
        <time>2009-10-31T13:49:55Z</time>
      </trkpt>
      <trkpt lat="45.29418" lon="5.08902">
        <ele>368.41500854492</ele>
        <time>2009-10-31T13:50:02Z</time>
      </trkpt>
      <trkpt lat="45.29424" lon="5.08966">
        <ele>368.54400634766</ele>
        <time>2009-10-31T13:50:09Z</time>
      </trkpt>
      <trkpt lat="45.29441" lon="5.09025">
        <ele>368.71099853516</ele>
        <time>2009-10-31T13:50:16Z</time>
      </trkpt>
      <trkpt lat="45.29458" lon="5.09091">
        <ele>371.11801147461</ele>
        <time>2009-10-31T13:50:24Z</time>
      </trkpt>
      <trkpt lat="45.29475" lon="5.09172">
        <ele>373.22799682617</ele>
        <time>2009-10-31T13:50:34Z</time>
      </trkpt>
      <trkpt lat="45.29487" lon="5.09223">
        <ele>373.89401245117</ele>
        <time>2009-10-31T13:50:40Z</time>
      </trkpt>
      <trkpt lat="45.29505" lon="5.09295">
        <ele>374.82901000977</ele>
        <time>2009-10-31T13:50:48Z</time>
      </trkpt>
      <trkpt lat="45.29522" lon="5.09367">
        <ele>376.28900146484</ele>
        <time>2009-10-31T13:50:56Z</time>
      </trkpt>
      <trkpt lat="45.29546" lon="5.09455">
        <ele>377.80599975586</ele>
        <time>2009-10-31T13:51:06Z</time>
      </trkpt>
      <trkpt lat="45.29574" lon="5.09531">
        <ele>378.71701049805</ele>
        <time>2009-10-31T13:51:15Z</time>
      </trkpt>
      <trkpt lat="45.29606" lon="5.09608">
        <ele>380.33599853516</ele>
        <time>2009-10-31T13:51:24Z</time>
      </trkpt>
      <trkpt lat="45.29632" lon="5.09671">
        <ele>380.90301513672</ele>
        <time>2009-10-31T13:51:32Z</time>
      </trkpt>
      <trkpt lat="45.29656" lon="5.09742">
        <ele>382.10299682617</ele>
        <time>2009-10-31T13:51:41Z</time>
      </trkpt>
      <trkpt lat="45.29667" lon="5.09795">
        <ele>382.03601074219</ele>
        <time>2009-10-31T13:51:47Z</time>
      </trkpt>
      <trkpt lat="45.29671" lon="5.09832">
        <ele>382.15701293945</ele>
        <time>2009-10-31T13:51:51Z</time>
      </trkpt>
      <trkpt lat="45.29688" lon="5.09872">
        <ele>382.93798828125</ele>
        <time>2009-10-31T13:51:56Z</time>
      </trkpt>
      <trkpt lat="45.29703" lon="5.09891">
        <ele>383.60998535156</ele>
        <time>2009-10-31T13:51:59Z</time>
      </trkpt>
      <trkpt lat="45.29719" lon="5.09922">
        <ele>384.05999755859</ele>
        <time>2009-10-31T13:52:03Z</time>
      </trkpt>
      <trkpt lat="45.29739" lon="5.09995">
        <ele>386.62100219727</ele>
        <time>2009-10-31T13:52:12Z</time>
      </trkpt>
      <trkpt lat="45.2975" lon="5.10029">
        <ele>388.13500976562</ele>
        <time>2009-10-31T13:52:17Z</time>
      </trkpt>
      <trkpt lat="45.29774" lon="5.10116">
        <ele>389.14999389648</ele>
        <time>2009-10-31T13:52:28Z</time>
      </trkpt>
      <trkpt lat="45.298" lon="5.10205">
        <ele>389.86499023438</ele>
        <time>2009-10-31T13:52:38Z</time>
      </trkpt>
      <trkpt lat="45.29818" lon="5.10244">
        <ele>390.71701049805</ele>
        <time>2009-10-31T13:52:43Z</time>
      </trkpt>
      <trkpt lat="45.29853" lon="5.10287">
        <ele>391.86700439453</ele>
        <time>2009-10-31T13:52:50Z</time>
      </trkpt>
      <trkpt lat="45.29894" lon="5.10335">
        <ele>393.49499511719</ele>
        <time>2009-10-31T13:52:58Z</time>
      </trkpt>
      <trkpt lat="45.29913" lon="5.10375">
        <ele>393.89700317383</ele>
        <time>2009-10-31T13:53:03Z</time>
      </trkpt>
      <trkpt lat="45.29936" lon="5.10437">
        <ele>394.3450012207</ele>
        <time>2009-10-31T13:53:10Z</time>
      </trkpt>
      <trkpt lat="45.29979" lon="5.10531">
        <ele>396.46899414062</ele>
        <time>2009-10-31T13:53:21Z</time>
      </trkpt>
      <trkpt lat="45.30016" lon="5.10613">
        <ele>397.79699707031</ele>
        <time>2009-10-31T13:53:31Z</time>
      </trkpt>
      <trkpt lat="45.30036" lon="5.10682">
        <ele>399.4280090332</ele>
        <time>2009-10-31T13:53:39Z</time>
      </trkpt>
      <trkpt lat="45.30043" lon="5.10708">
        <ele>400.18600463867</ele>
        <time>2009-10-31T13:53:42Z</time>
      </trkpt>
      <trkpt lat="45.30044" lon="5.10766">
        <ele>400.56100463867</ele>
        <time>2009-10-31T13:53:48Z</time>
      </trkpt>
      <trkpt lat="45.30026" lon="5.10876">
        <ele>401.20599365234</ele>
        <time>2009-10-31T13:53:59Z</time>
      </trkpt>
      <trkpt lat="45.30015" lon="5.10957">
        <ele>402.87298583984</ele>
        <time>2009-10-31T13:54:07Z</time>
      </trkpt>
      <trkpt lat="45.30011" lon="5.1103">
        <ele>402.88198852539</ele>
        <time>2009-10-31T13:54:14Z</time>
      </trkpt>
      <trkpt lat="45.30011" lon="5.11101">
        <ele>403.32000732422</ele>
        <time>2009-10-31T13:54:21Z</time>
      </trkpt>
      <trkpt lat="45.3001" lon="5.1112">
        <ele>403.81201171875</ele>
        <time>2009-10-31T13:54:23Z</time>
      </trkpt>
      <trkpt lat="45.29996" lon="5.11178">
        <ele>403.28500366211</ele>
        <time>2009-10-31T13:54:29Z</time>
      </trkpt>
      <trkpt lat="45.29976" lon="5.11222">
        <ele>403.64898681641</ele>
        <time>2009-10-31T13:54:34Z</time>
      </trkpt>
      <trkpt lat="45.29972" lon="5.11231">
        <ele>403.57901000977</ele>
        <time>2009-10-31T13:54:35Z</time>
      </trkpt>
      <trkpt lat="45.29966" lon="5.11251">
        <ele>403.27899169922</ele>
        <time>2009-10-31T13:54:37Z</time>
      </trkpt>
      <trkpt lat="45.29963" lon="5.11298">
        <ele>404.43099975586</ele>
        <time>2009-10-31T13:54:42Z</time>
      </trkpt>
      <trkpt lat="45.29961" lon="5.11347">
        <ele>404.48098754883</ele>
        <time>2009-10-31T13:54:48Z</time>
      </trkpt>
      <trkpt lat="45.29953" lon="5.11412">
        <ele>405.8330078125</ele>
        <time>2009-10-31T13:54:56Z</time>
      </trkpt>
      <trkpt lat="45.29941" lon="5.11471">
        <ele>405.47799682617</ele>
        <time>2009-10-31T13:55:03Z</time>
      </trkpt>
      <trkpt lat="45.29933" lon="5.11513">
        <ele>405.8450012207</ele>
        <time>2009-10-31T13:55:08Z</time>
      </trkpt>
      <trkpt lat="45.29921" lon="5.11574">
        <ele>405.99899291992</ele>
        <time>2009-10-31T13:55:15Z</time>
      </trkpt>
      <trkpt lat="45.2991" lon="5.11641">
        <ele>407.48999023438</ele>
        <time>2009-10-31T13:55:23Z</time>
      </trkpt>
      <trkpt lat="45.29899" lon="5.11714">
        <ele>408.32299804688</ele>
        <time>2009-10-31T13:55:32Z</time>
      </trkpt>
      <trkpt lat="45.29891" lon="5.11785">
        <ele>410.04998779297</ele>
        <time>2009-10-31T13:55:41Z</time>
      </trkpt>
      <trkpt lat="45.29882" lon="5.1186">
        <ele>411.90301513672</ele>
        <time>2009-10-31T13:55:50Z</time>
      </trkpt>
      <trkpt lat="45.29873" lon="5.11943">
        <ele>413.75900268555</ele>
        <time>2009-10-31T13:56:00Z</time>
      </trkpt>
      <trkpt lat="45.29871" lon="5.12009">
        <ele>415.01699829102</ele>
        <time>2009-10-31T13:56:08Z</time>
      </trkpt>
      <trkpt lat="45.29877" lon="5.12068">
        <ele>416.19400024414</ele>
        <time>2009-10-31T13:56:15Z</time>
      </trkpt>
      <trkpt lat="45.2989" lon="5.12154">
        <ele>416.02801513672</ele>
        <time>2009-10-31T13:56:24Z</time>
      </trkpt>
      <trkpt lat="45.29897" lon="5.12236">
        <ele>416.43301391602</ele>
        <time>2009-10-31T13:56:32Z</time>
      </trkpt>
      <trkpt lat="45.29892" lon="5.12308">
        <ele>417.11499023438</ele>
        <time>2009-10-31T13:56:39Z</time>
      </trkpt>
      <trkpt lat="45.29889" lon="5.12392">
        <ele>417.95098876953</ele>
        <time>2009-10-31T13:56:47Z</time>
      </trkpt>
      <trkpt lat="45.29895" lon="5.12442">
        <ele>418.67700195312</ele>
        <time>2009-10-31T13:56:52Z</time>
      </trkpt>
      <trkpt lat="45.29897" lon="5.12473">
        <ele>418.79998779297</ele>
        <time>2009-10-31T13:56:55Z</time>
      </trkpt>
      <trkpt lat="45.29891" lon="5.12533">
        <ele>419.84799194336</ele>
        <time>2009-10-31T13:57:01Z</time>
      </trkpt>
      <trkpt lat="45.29875" lon="5.12587">
        <ele>420.99798583984</ele>
        <time>2009-10-31T13:57:07Z</time>
      </trkpt>
      <trkpt lat="45.29871" lon="5.12605">
        <ele>421.36401367188</ele>
        <time>2009-10-31T13:57:09Z</time>
      </trkpt>
      <trkpt lat="45.29869" lon="5.1265">
        <ele>422.29501342773</ele>
        <time>2009-10-31T13:57:14Z</time>
      </trkpt>
      <trkpt lat="45.29858" lon="5.12683">
        <ele>423.30499267578</ele>
        <time>2009-10-31T13:57:18Z</time>
      </trkpt>
      <trkpt lat="45.29849" lon="5.12695">
        <ele>423.63800048828</ele>
        <time>2009-10-31T13:57:20Z</time>
      </trkpt>
      <trkpt lat="45.29833" lon="5.12733">
        <ele>424.25698852539</ele>
        <time>2009-10-31T13:57:25Z</time>
      </trkpt>
      <trkpt lat="45.29829" lon="5.128">
        <ele>425.88101196289</ele>
        <time>2009-10-31T13:57:32Z</time>
      </trkpt>
      <trkpt lat="45.29831" lon="5.12872">
        <ele>426.53399658203</ele>
        <time>2009-10-31T13:57:39Z</time>
      </trkpt>
      <trkpt lat="45.29834" lon="5.12891">
        <ele>426.75698852539</ele>
        <time>2009-10-31T13:57:41Z</time>
      </trkpt>
      <trkpt lat="45.29833" lon="5.12935">
        <ele>427.5299987793</ele>
        <time>2009-10-31T13:57:45Z</time>
      </trkpt>
      <trkpt lat="45.29821" lon="5.12998">
        <ele>428.06500244141</ele>
        <time>2009-10-31T13:57:51Z</time>
      </trkpt>
      <trkpt lat="45.29813" lon="5.13043">
        <ele>428.42999267578</ele>
        <time>2009-10-31T13:57:55Z</time>
      </trkpt>
      <trkpt lat="45.29813" lon="5.13088">
        <ele>428.62399291992</ele>
        <time>2009-10-31T13:57:59Z</time>
      </trkpt>
      <trkpt lat="45.2982" lon="5.1314">
        <ele>429.39700317383</ele>
        <time>2009-10-31T13:58:04Z</time>
      </trkpt>
      <trkpt lat="45.29826" lon="5.13205">
        <ele>430.3450012207</ele>
        <time>2009-10-31T13:58:09Z</time>
      </trkpt>
      <trkpt lat="45.29833" lon="5.13272">
        <ele>431.36599731445</ele>
        <time>2009-10-31T13:58:14Z</time>
      </trkpt>
      <trkpt lat="45.29835" lon="5.13284">
        <ele>431.21301269531</ele>
        <time>2009-10-31T13:58:15Z</time>
      </trkpt>
      <trkpt lat="45.29853" lon="5.13343">
        <ele>432.5</ele>
        <time>2009-10-31T13:58:21Z</time>
      </trkpt>
      <trkpt lat="45.29858" lon="5.13367">
        <ele>432.91299438477</ele>
        <time>2009-10-31T13:58:23Z</time>
      </trkpt>
      <trkpt lat="45.29864" lon="5.13436">
        <ele>433.53799438477</ele>
        <time>2009-10-31T13:58:29Z</time>
      </trkpt>
      <trkpt lat="45.29866" lon="5.1348">
        <ele>434.02099609375</ele>
        <time>2009-10-31T13:58:33Z</time>
      </trkpt>
      <trkpt lat="45.29871" lon="5.13534">
        <ele>434.86999511719</ele>
        <time>2009-10-31T13:58:38Z</time>
      </trkpt>
      <trkpt lat="45.29872" lon="5.13545">
        <ele>435.03500366211</ele>
        <time>2009-10-31T13:58:39Z</time>
      </trkpt>
      <trkpt lat="45.29867" lon="5.13587">
        <ele>436.0539855957</ele>
        <time>2009-10-31T13:58:43Z</time>
      </trkpt>
      <trkpt lat="45.29848" lon="5.13665">
        <ele>437.61999511719</ele>
        <time>2009-10-31T13:58:51Z</time>
      </trkpt>
      <trkpt lat="45.29831" lon="5.13719">
        <ele>438.25799560547</ele>
        <time>2009-10-31T13:58:57Z</time>
      </trkpt>
      <trkpt lat="45.29802" lon="5.13774">
        <ele>438.98901367188</ele>
        <time>2009-10-31T13:59:04Z</time>
      </trkpt>
      <trkpt lat="45.29774" lon="5.13821">
        <ele>441.17498779297</ele>
        <time>2009-10-31T13:59:10Z</time>
      </trkpt>
      <trkpt lat="45.29758" lon="5.13839">
        <ele>441.3210144043</ele>
        <time>2009-10-31T13:59:13Z</time>
      </trkpt>
      <trkpt lat="45.29738" lon="5.13859">
        <ele>441.54000854492</ele>
        <time>2009-10-31T13:59:17Z</time>
      </trkpt>
      <trkpt lat="45.2971" lon="5.13885">
        <ele>442.24499511719</ele>
        <time>2009-10-31T13:59:24Z</time>
      </trkpt>
      <trkpt lat="45.29695" lon="5.13895">
        <ele>442.30899047852</ele>
        <time>2009-10-31T13:59:29Z</time>
      </trkpt>
      <trkpt lat="45.29684" lon="5.13903">
        <ele>442.77801513672</ele>
        <time>2009-10-31T13:59:34Z</time>
      </trkpt>
      <trkpt lat="45.29682" lon="5.13905">
        <ele>443.02499389648</ele>
        <time>2009-10-31T13:59:36Z</time>
      </trkpt>
      <trkpt lat="45.29678" lon="5.13906">
        <ele>443.09600830078</ele>
        <time>2009-10-31T13:59:39Z</time>
      </trkpt>
      <trkpt lat="45.29677" lon="5.13914">
        <ele>443.01300048828</ele>
        <time>2009-10-31T13:59:44Z</time>
      </trkpt>
      <trkpt lat="45.2968" lon="5.13917">
        <ele>443.20401000977</ele>
        <time>2009-10-31T13:59:47Z</time>
      </trkpt>
      <trkpt lat="45.29687" lon="5.13911">
        <ele>442.86898803711</ele>
        <time>2009-10-31T13:59:53Z</time>
      </trkpt>
      <trkpt lat="45.29688" lon="5.13903">
        <ele>442.78900146484</ele>
        <time>2009-10-31T13:59:57Z</time>
      </trkpt>
      <trkpt lat="45.29681" lon="5.13905">
        <ele>442.71099853516</ele>
        <time>2009-10-31T14:00:02Z</time>
      </trkpt>
      <trkpt lat="45.29682" lon="5.13907">
        <ele>442.70599365234</ele>
        <time>2009-10-31T14:00:12Z</time>
      </trkpt>
      <trkpt lat="45.29681" lon="5.13907">
        <ele>442.98300170898</ele>
        <time>2009-10-31T14:00:15Z</time>
      </trkpt>
      <trkpt lat="45.29679" lon="5.13918">
        <ele>442.98001098633</ele>
        <time>2009-10-31T14:00:21Z</time>
      </trkpt>
      <trkpt lat="45.29679" lon="5.13919">
        <ele>443.28500366211</ele>
        <time>2009-10-31T14:00:22Z</time>
      </trkpt>
      <trkpt lat="45.29687" lon="5.13936">
        <ele>444.05200195312</ele>
        <time>2009-10-31T14:00:28Z</time>
      </trkpt>
      <trkpt lat="45.29696" lon="5.13966">
        <ele>445.23098754883</ele>
        <time>2009-10-31T14:00:35Z</time>
      </trkpt>
      <trkpt lat="45.29705" lon="5.13995">
        <ele>446.46301269531</ele>
        <time>2009-10-31T14:00:42Z</time>
      </trkpt>
      <trkpt lat="45.29712" lon="5.14015">
        <ele>447.47698974609</ele>
        <time>2009-10-31T14:00:47Z</time>
      </trkpt>
      <trkpt lat="45.29721" lon="5.1405">
        <ele>448.95401000977</ele>
        <time>2009-10-31T14:00:54Z</time>
      </trkpt>
      <trkpt lat="45.29726" lon="5.1407">
        <ele>449.76098632812</ele>
        <time>2009-10-31T14:00:58Z</time>
      </trkpt>
      <trkpt lat="45.29729" lon="5.14081">
        <ele>450.20498657227</ele>
        <time>2009-10-31T14:01:00Z</time>
      </trkpt>
      <trkpt lat="45.29739" lon="5.14132">
        <ele>452.13299560547</ele>
        <time>2009-10-31T14:01:09Z</time>
      </trkpt>
      <trkpt lat="45.29745" lon="5.14161">
        <ele>452.63598632812</ele>
        <time>2009-10-31T14:01:14Z</time>
      </trkpt>
      <trkpt lat="45.29748" lon="5.14172">
        <ele>452.95700073242</ele>
        <time>2009-10-31T14:01:16Z</time>
      </trkpt>
      <trkpt lat="45.29753" lon="5.14209">
        <ele>454.13500976562</ele>
        <time>2009-10-31T14:01:23Z</time>
      </trkpt>
      <trkpt lat="45.29757" lon="5.14242">
        <ele>454.92599487305</ele>
        <time>2009-10-31T14:01:29Z</time>
      </trkpt>
      <trkpt lat="45.29757" lon="5.14286">
        <ele>456.70001220703</ele>
        <time>2009-10-31T14:01:37Z</time>
      </trkpt>
      <trkpt lat="45.29756" lon="5.14332">
        <ele>458.40200805664</ele>
        <time>2009-10-31T14:01:45Z</time>
      </trkpt>
      <trkpt lat="45.29756" lon="5.1437">
        <ele>459.50201416016</ele>
        <time>2009-10-31T14:01:52Z</time>
      </trkpt>
      <trkpt lat="45.29762" lon="5.14416">
        <ele>461.08898925781</ele>
        <time>2009-10-31T14:02:00Z</time>
      </trkpt>
      <trkpt lat="45.29776" lon="5.14471">
        <ele>462.24899291992</ele>
        <time>2009-10-31T14:02:09Z</time>
      </trkpt>
      <trkpt lat="45.2979" lon="5.14522">
        <ele>463.0830078125</ele>
        <time>2009-10-31T14:02:17Z</time>
      </trkpt>
      <trkpt lat="45.29802" lon="5.1456">
        <ele>463.13299560547</ele>
        <time>2009-10-31T14:02:23Z</time>
      </trkpt>
      <trkpt lat="45.29826" lon="5.14611">
        <ele>462.5830078125</ele>
        <time>2009-10-31T14:02:30Z</time>
      </trkpt>
      <trkpt lat="45.2985" lon="5.14647">
        <ele>461.34100341797</ele>
        <time>2009-10-31T14:02:35Z</time>
      </trkpt>
      <trkpt lat="45.29855" lon="5.14654">
        <ele>461.32800292969</ele>
        <time>2009-10-31T14:02:36Z</time>
      </trkpt>
      <trkpt lat="45.29874" lon="5.14671">
        <ele>460.45999145508</ele>
        <time>2009-10-31T14:02:39Z</time>
      </trkpt>
      <trkpt lat="45.29907" lon="5.14681">
        <ele>460.39700317383</ele>
        <time>2009-10-31T14:02:43Z</time>
      </trkpt>
      <trkpt lat="45.29916" lon="5.14682">
        <ele>458.54299926758</ele>
        <time>2009-10-31T14:02:44Z</time>
      </trkpt>
      <trkpt lat="45.29943" lon="5.14701">
        <ele>455.79098510742</ele>
        <time>2009-10-31T14:02:47Z</time>
      </trkpt>
      <trkpt lat="45.29948" lon="5.14714">
        <ele>455.15798950195</ele>
        <time>2009-10-31T14:02:48Z</time>
      </trkpt>
      <trkpt lat="45.29972" lon="5.14788">
        <ele>451.43099975586</ele>
        <time>2009-10-31T14:02:53Z</time>
      </trkpt>
      <trkpt lat="45.29986" lon="5.14837">
        <ele>449.38598632812</ele>
        <time>2009-10-31T14:02:56Z</time>
      </trkpt>
      <trkpt lat="45.30013" lon="5.14925">
        <ele>444.58801269531</ele>
        <time>2009-10-31T14:03:01Z</time>
      </trkpt>
      <trkpt lat="45.30021" lon="5.14983">
        <ele>441.68301391602</ele>
        <time>2009-10-31T14:03:04Z</time>
      </trkpt>
      <trkpt lat="45.30016" lon="5.15043">
        <ele>438.35299682617</ele>
        <time>2009-10-31T14:03:07Z</time>
      </trkpt>
      <trkpt lat="45.30024" lon="5.15082">
        <ele>436.87701416016</ele>
        <time>2009-10-31T14:03:09Z</time>
      </trkpt>
      <trkpt lat="45.30042" lon="5.15138">
        <ele>432.83200073242</ele>
        <time>2009-10-31T14:03:12Z</time>
      </trkpt>
      <trkpt lat="45.30045" lon="5.15158">
        <ele>431.50299072266</ele>
        <time>2009-10-31T14:03:13Z</time>
      </trkpt>
      <trkpt lat="45.30052" lon="5.1522">
        <ele>427.93301391602</ele>
        <time>2009-10-31T14:03:16Z</time>
      </trkpt>
      <trkpt lat="45.30058" lon="5.15262">
        <ele>426.47299194336</ele>
        <time>2009-10-31T14:03:18Z</time>
      </trkpt>
      <trkpt lat="45.30072" lon="5.15367">
        <ele>421.69000244141</ele>
        <time>2009-10-31T14:03:23Z</time>
      </trkpt>
      <trkpt lat="45.30075" lon="5.15388">
        <ele>420.71600341797</ele>
        <time>2009-10-31T14:03:24Z</time>
      </trkpt>
      <trkpt lat="45.30091" lon="5.15449">
        <ele>418.09600830078</ele>
        <time>2009-10-31T14:03:27Z</time>
      </trkpt>
      <trkpt lat="45.3012" lon="5.15551">
        <ele>410.41900634766</ele>
        <time>2009-10-31T14:03:32Z</time>
      </trkpt>
      <trkpt lat="45.30141" lon="5.15629">
        <ele>407.7380065918</ele>
        <time>2009-10-31T14:03:36Z</time>
      </trkpt>
      <trkpt lat="45.30148" lon="5.15711">
        <ele>403.64700317383</ele>
        <time>2009-10-31T14:03:40Z</time>
      </trkpt>
      <trkpt lat="45.30156" lon="5.15751">
        <ele>402.02899169922</ele>
        <time>2009-10-31T14:03:42Z</time>
      </trkpt>
      <trkpt lat="45.30177" lon="5.15777">
        <ele>400.02700805664</ele>
        <time>2009-10-31T14:03:44Z</time>
      </trkpt>
      <trkpt lat="45.30206" lon="5.15776">
        <ele>398.51599121094</ele>
        <time>2009-10-31T14:03:46Z</time>
      </trkpt>
      <trkpt lat="45.3022" lon="5.15768">
        <ele>398.44900512695</ele>
        <time>2009-10-31T14:03:47Z</time>
      </trkpt>
      <trkpt lat="45.30232" lon="5.15759">
        <ele>397.84698486328</ele>
        <time>2009-10-31T14:03:48Z</time>
      </trkpt>
      <trkpt lat="45.30297" lon="5.15721">
        <ele>393.40399169922</ele>
        <time>2009-10-31T14:03:53Z</time>
      </trkpt>
      <trkpt lat="45.30353" lon="5.1571">
        <ele>390.53100585938</ele>
        <time>2009-10-31T14:03:57Z</time>
      </trkpt>
      <trkpt lat="45.30395" lon="5.15712">
        <ele>387.70199584961</ele>
        <time>2009-10-31T14:04:00Z</time>
      </trkpt>
      <trkpt lat="45.30464" lon="5.15722">
        <ele>383.2380065918</ele>
        <time>2009-10-31T14:04:05Z</time>
      </trkpt>
      <trkpt lat="45.30516" lon="5.15732">
        <ele>382.18301391602</ele>
        <time>2009-10-31T14:04:09Z</time>
      </trkpt>
      <trkpt lat="45.3057" lon="5.15761">
        <ele>382.11401367188</ele>
        <time>2009-10-31T14:04:14Z</time>
      </trkpt>
      <trkpt lat="45.30588" lon="5.15777">
        <ele>383.84899902344</ele>
        <time>2009-10-31T14:04:16Z</time>
      </trkpt>
      <trkpt lat="45.30631" lon="5.15822">
        <ele>384.35000610352</ele>
        <time>2009-10-31T14:04:22Z</time>
      </trkpt>
      <trkpt lat="45.30669" lon="5.15859">
        <ele>385.04000854492</ele>
        <time>2009-10-31T14:04:28Z</time>
      </trkpt>
      <trkpt lat="45.30712" lon="5.15895">
        <ele>385.99700927734</ele>
        <time>2009-10-31T14:04:35Z</time>
      </trkpt>
      <trkpt lat="45.30785" lon="5.15956">
        <ele>386.85998535156</ele>
        <time>2009-10-31T14:04:47Z</time>
      </trkpt>
      <trkpt lat="45.30844" lon="5.16005">
        <ele>387.2080078125</ele>
        <time>2009-10-31T14:04:56Z</time>
      </trkpt>
      <trkpt lat="45.3087" lon="5.16026">
        <ele>388.29299926758</ele>
        <time>2009-10-31T14:05:00Z</time>
      </trkpt>
      <trkpt lat="45.30897" lon="5.16048">
        <ele>387.77301025391</ele>
        <time>2009-10-31T14:05:04Z</time>
      </trkpt>
      <trkpt lat="45.30943" lon="5.16085">
        <ele>387.59600830078</ele>
        <time>2009-10-31T14:05:11Z</time>
      </trkpt>
      <trkpt lat="45.31004" lon="5.16135">
        <ele>387.03399658203</ele>
        <time>2009-10-31T14:05:20Z</time>
      </trkpt>
      <trkpt lat="45.31087" lon="5.16203">
        <ele>386.6780090332</ele>
        <time>2009-10-31T14:05:32Z</time>
      </trkpt>
      <trkpt lat="45.31184" lon="5.16282">
        <ele>386.43899536133</ele>
        <time>2009-10-31T14:05:46Z</time>
      </trkpt>
      <trkpt lat="45.31241" lon="5.16329">
        <ele>385.9580078125</ele>
        <time>2009-10-31T14:05:55Z</time>
      </trkpt>
      <trkpt lat="45.31251" lon="5.16337">
        <ele>385.65301513672</ele>
        <time>2009-10-31T14:05:57Z</time>
      </trkpt>
      <trkpt lat="45.31253" lon="5.16353">
        <ele>385.80499267578</ele>
        <time>2009-10-31T14:06:00Z</time>
      </trkpt>
      <trkpt lat="45.31241" lon="5.16373">
        <ele>385.57501220703</ele>
        <time>2009-10-31T14:06:04Z</time>
      </trkpt>
      <trkpt lat="45.31237" lon="5.16379">
        <ele>385.5830078125</ele>
        <time>2009-10-31T14:06:05Z</time>
      </trkpt>
      <trkpt lat="45.31213" lon="5.16422">
        <ele>385.92098999023</ele>
        <time>2009-10-31T14:06:12Z</time>
      </trkpt>
      <trkpt lat="45.31186" lon="5.16471">
        <ele>386.9460144043</ele>
        <time>2009-10-31T14:06:20Z</time>
      </trkpt>
      <trkpt lat="45.31149" lon="5.16533">
        <ele>388.30099487305</ele>
        <time>2009-10-31T14:06:30Z</time>
      </trkpt>
      <trkpt lat="45.31129" lon="5.16564">
        <ele>389.6130065918</ele>
        <time>2009-10-31T14:06:35Z</time>
      </trkpt>
      <trkpt lat="45.31125" lon="5.1657">
        <ele>388.97198486328</ele>
        <time>2009-10-31T14:06:36Z</time>
      </trkpt>
      <trkpt lat="45.31119" lon="5.16583">
        <ele>389.11099243164</ele>
        <time>2009-10-31T14:06:38Z</time>
      </trkpt>
      <trkpt lat="45.31107" lon="5.16604">
        <ele>389.71301269531</ele>
        <time>2009-10-31T14:06:42Z</time>
      </trkpt>
      <trkpt lat="45.31094" lon="5.16624">
        <ele>390.35501098633</ele>
        <time>2009-10-31T14:06:46Z</time>
      </trkpt>
      <trkpt lat="45.3108" lon="5.16644">
        <ele>390.71798706055</ele>
        <time>2009-10-31T14:06:50Z</time>
      </trkpt>
      <trkpt lat="45.31054" lon="5.16685">
        <ele>391.38101196289</ele>
        <time>2009-10-31T14:06:59Z</time>
      </trkpt>
      <trkpt lat="45.31044" lon="5.16709">
        <ele>391.38500976562</ele>
        <time>2009-10-31T14:07:03Z</time>
      </trkpt>
      <trkpt lat="45.31016" lon="5.16773">
        <ele>392.57901000977</ele>
        <time>2009-10-31T14:07:13Z</time>
      </trkpt>
      <trkpt lat="45.30997" lon="5.16816">
        <ele>392.92001342773</ele>
        <time>2009-10-31T14:07:20Z</time>
      </trkpt>
      <trkpt lat="45.30975" lon="5.16871">
        <ele>393.51800537109</ele>
        <time>2009-10-31T14:07:29Z</time>
      </trkpt>
      <trkpt lat="45.30947" lon="5.16934">
        <ele>393.83801269531</ele>
        <time>2009-10-31T14:07:39Z</time>
      </trkpt>
      <trkpt lat="45.30925" lon="5.16986">
        <ele>394.23498535156</ele>
        <time>2009-10-31T14:07:47Z</time>
      </trkpt>
      <trkpt lat="45.30902" lon="5.17041">
        <ele>394.66198730469</ele>
        <time>2009-10-31T14:07:55Z</time>
      </trkpt>
      <trkpt lat="45.30875" lon="5.17104">
        <ele>394.86199951172</ele>
        <time>2009-10-31T14:08:04Z</time>
      </trkpt>
      <trkpt lat="45.30849" lon="5.17164">
        <ele>395.90200805664</ele>
        <time>2009-10-31T14:08:13Z</time>
      </trkpt>
      <trkpt lat="45.30817" lon="5.17236">
        <ele>396.6969909668</ele>
        <time>2009-10-31T14:08:24Z</time>
      </trkpt>
      <trkpt lat="45.308" lon="5.17294">
        <ele>397.69900512695</ele>
        <time>2009-10-31T14:08:32Z</time>
      </trkpt>
      <trkpt lat="45.30793" lon="5.1735">
        <ele>398.7380065918</ele>
        <time>2009-10-31T14:08:39Z</time>
      </trkpt>
      <trkpt lat="45.30789" lon="5.17391">
        <ele>399.7919921875</ele>
        <time>2009-10-31T14:08:44Z</time>
      </trkpt>
      <trkpt lat="45.30782" lon="5.17466">
        <ele>401.07501220703</ele>
        <time>2009-10-31T14:08:53Z</time>
      </trkpt>
      <trkpt lat="45.30775" lon="5.1754">
        <ele>402.38598632812</ele>
        <time>2009-10-31T14:09:02Z</time>
      </trkpt>
      <trkpt lat="45.30766" lon="5.17621">
        <ele>403.02499389648</ele>
        <time>2009-10-31T14:09:12Z</time>
      </trkpt>
      <trkpt lat="45.30756" lon="5.17727">
        <ele>404.35900878906</ele>
        <time>2009-10-31T14:09:25Z</time>
      </trkpt>
      <trkpt lat="45.30749" lon="5.17805">
        <ele>404.84201049805</ele>
        <time>2009-10-31T14:09:34Z</time>
      </trkpt>
      <trkpt lat="45.30741" lon="5.17885">
        <ele>405.64300537109</ele>
        <time>2009-10-31T14:09:43Z</time>
      </trkpt>
      <trkpt lat="45.30733" lon="5.17963">
        <ele>406.75500488281</ele>
        <time>2009-10-31T14:09:52Z</time>
      </trkpt>
      <trkpt lat="45.30725" lon="5.18049">
        <ele>407.82400512695</ele>
        <time>2009-10-31T14:10:02Z</time>
      </trkpt>
      <trkpt lat="45.30715" lon="5.18136">
        <ele>409.12600708008</ele>
        <time>2009-10-31T14:10:12Z</time>
      </trkpt>
      <trkpt lat="45.30704" lon="5.18201">
        <ele>408.95999145508</ele>
        <time>2009-10-31T14:10:19Z</time>
      </trkpt>
      <trkpt lat="45.30709" lon="5.18249">
        <ele>408.89700317383</ele>
        <time>2009-10-31T14:10:24Z</time>
      </trkpt>
      <trkpt lat="45.30713" lon="5.18257">
        <ele>408.73300170898</ele>
        <time>2009-10-31T14:10:25Z</time>
      </trkpt>
      <trkpt lat="45.30741" lon="5.18321">
        <ele>409.18600463867</ele>
        <time>2009-10-31T14:10:33Z</time>
      </trkpt>
      <trkpt lat="45.30768" lon="5.18378">
        <ele>408.79000854492</ele>
        <time>2009-10-31T14:10:40Z</time>
      </trkpt>
      <trkpt lat="45.30809" lon="5.18464">
        <ele>408.29901123047</ele>
        <time>2009-10-31T14:10:50Z</time>
      </trkpt>
      <trkpt lat="45.30862" lon="5.18575">
        <ele>407.55099487305</ele>
        <time>2009-10-31T14:11:03Z</time>
      </trkpt>
      <trkpt lat="45.30913" lon="5.18676">
        <ele>407.17401123047</ele>
        <time>2009-10-31T14:11:15Z</time>
      </trkpt>
      <trkpt lat="45.30949" lon="5.18722">
        <ele>407.79400634766</ele>
        <time>2009-10-31T14:11:22Z</time>
      </trkpt>
      <trkpt lat="45.31" lon="5.18778">
        <ele>408.57299804688</ele>
        <time>2009-10-31T14:11:32Z</time>
      </trkpt>
      <trkpt lat="45.31052" lon="5.18844">
        <ele>410.05499267578</ele>
        <time>2009-10-31T14:11:43Z</time>
      </trkpt>
      <trkpt lat="45.31096" lon="5.18905">
        <ele>409.49499511719</ele>
        <time>2009-10-31T14:11:52Z</time>
      </trkpt>
      <trkpt lat="45.31141" lon="5.18959">
        <ele>408.48901367188</ele>
        <time>2009-10-31T14:12:00Z</time>
      </trkpt>
      <trkpt lat="45.31188" lon="5.19011">
        <ele>406.90798950195</ele>
        <time>2009-10-31T14:12:08Z</time>
      </trkpt>
      <trkpt lat="45.31213" lon="5.19045">
        <ele>405.68798828125</ele>
        <time>2009-10-31T14:12:12Z</time>
      </trkpt>
      <trkpt lat="45.31249" lon="5.19113">
        <ele>403.65301513672</ele>
        <time>2009-10-31T14:12:19Z</time>
      </trkpt>
      <trkpt lat="45.31292" lon="5.19199">
        <ele>402.79699707031</ele>
        <time>2009-10-31T14:12:28Z</time>
      </trkpt>
      <trkpt lat="45.31311" lon="5.19253">
        <ele>402.15701293945</ele>
        <time>2009-10-31T14:12:33Z</time>
      </trkpt>
      <trkpt lat="45.31332" lon="5.19358">
        <ele>401.77899169922</ele>
        <time>2009-10-31T14:12:42Z</time>
      </trkpt>
      <trkpt lat="45.31342" lon="5.19442">
        <ele>399.33099365234</ele>
        <time>2009-10-31T14:12:49Z</time>
      </trkpt>
      <trkpt lat="45.31343" lon="5.19455">
        <ele>399.14401245117</ele>
        <time>2009-10-31T14:12:50Z</time>
      </trkpt>
      <trkpt lat="45.31347" lon="5.19524">
        <ele>396.21899414062</ele>
        <time>2009-10-31T14:12:55Z</time>
      </trkpt>
      <trkpt lat="45.31349" lon="5.19569">
        <ele>394.07000732422</ele>
        <time>2009-10-31T14:12:58Z</time>
      </trkpt>
      <trkpt lat="45.31341" lon="5.19645">
        <ele>390.58898925781</ele>
        <time>2009-10-31T14:13:03Z</time>
      </trkpt>
      <trkpt lat="45.31337" lon="5.19674">
        <ele>389.74798583984</ele>
        <time>2009-10-31T14:13:05Z</time>
      </trkpt>
      <trkpt lat="45.31313" lon="5.19758">
        <ele>385.71099853516</ele>
        <time>2009-10-31T14:13:11Z</time>
      </trkpt>
      <trkpt lat="45.31309" lon="5.19772">
        <ele>385.02700805664</ele>
        <time>2009-10-31T14:13:12Z</time>
      </trkpt>
      <trkpt lat="45.31304" lon="5.19833">
        <ele>381.6789855957</ele>
        <time>2009-10-31T14:13:16Z</time>
      </trkpt>
      <trkpt lat="45.3131" lon="5.1991">
        <ele>379.38598632812</ele>
        <time>2009-10-31T14:13:21Z</time>
      </trkpt>
      <trkpt lat="45.31312" lon="5.19926">
        <ele>379.20498657227</ele>
        <time>2009-10-31T14:13:22Z</time>
      </trkpt>
      <trkpt lat="45.31327" lon="5.20007">
        <ele>376.11700439453</ele>
        <time>2009-10-31T14:13:27Z</time>
      </trkpt>
      <trkpt lat="45.31344" lon="5.2007">
        <ele>372.43301391602</ele>
        <time>2009-10-31T14:13:31Z</time>
      </trkpt>
      <trkpt lat="45.31349" lon="5.20086">
        <ele>372.20700073242</ele>
        <time>2009-10-31T14:13:32Z</time>
      </trkpt>
      <trkpt lat="45.31389" lon="5.20223">
        <ele>368.72399902344</ele>
        <time>2009-10-31T14:13:41Z</time>
      </trkpt>
      <trkpt lat="45.314" lon="5.20252">
        <ele>366.36499023438</ele>
        <time>2009-10-31T14:13:44Z</time>
      </trkpt>
      <trkpt lat="45.31427" lon="5.20284">
        <ele>364.80700683594</ele>
        <time>2009-10-31T14:13:49Z</time>
      </trkpt>
      <trkpt lat="45.31453" lon="5.20309">
        <ele>363.67498779297</ele>
        <time>2009-10-31T14:13:53Z</time>
      </trkpt>
      <trkpt lat="45.31493" lon="5.20355">
        <ele>361.48400878906</ele>
        <time>2009-10-31T14:13:59Z</time>
      </trkpt>
      <trkpt lat="45.31515" lon="5.20377">
        <ele>360.73098754883</ele>
        <time>2009-10-31T14:14:02Z</time>
      </trkpt>
      <trkpt lat="45.31544" lon="5.20414">
        <ele>359.72799682617</ele>
        <time>2009-10-31T14:14:07Z</time>
      </trkpt>
      <trkpt lat="45.31552" lon="5.20426">
        <ele>359.49398803711</ele>
        <time>2009-10-31T14:14:09Z</time>
      </trkpt>
      <trkpt lat="45.31569" lon="5.20454">
        <ele>359.02301025391</ele>
        <time>2009-10-31T14:14:15Z</time>
      </trkpt>
      <trkpt lat="45.31569" lon="5.20458">
        <ele>359.09799194336</ele>
        <time>2009-10-31T14:14:19Z</time>
      </trkpt>
      <trkpt lat="45.31567" lon="5.2046">
        <ele>358.97500610352</ele>
        <time>2009-10-31T14:14:24Z</time>
      </trkpt>
      <trkpt lat="45.31567" lon="5.20462">
        <ele>359.06298828125</ele>
        <time>2009-10-31T14:14:30Z</time>
      </trkpt>
      <trkpt lat="45.31559" lon="5.20461">
        <ele>359.23699951172</ele>
        <time>2009-10-31T14:15:26Z</time>
      </trkpt>
      <trkpt lat="45.31559" lon="5.2046">
        <ele>358.7619934082</ele>
        <time>2009-10-31T14:15:36Z</time>
      </trkpt>
      <trkpt lat="45.31563" lon="5.20459">
        <ele>358.54501342773</ele>
        <time>2009-10-31T14:15:55Z</time>
      </trkpt>
      <trkpt lat="45.31566" lon="5.20459">
        <ele>358.57501220703</ele>
        <time>2009-10-31T14:16:11Z</time>
      </trkpt>
      <trkpt lat="45.31566" lon="5.20459">
        <ele>358.33200073242</ele>
        <time>2009-10-31T14:16:23Z</time>
      </trkpt>
      <trkpt lat="45.31567" lon="5.20461">
        <ele>358.39599609375</ele>
        <time>2009-10-31T14:16:40Z</time>
      </trkpt>
      <trkpt lat="45.31567" lon="5.20461">
        <ele>358.48498535156</ele>
        <time>2009-10-31T14:16:41Z</time>
      </trkpt>
      <trkpt lat="45.31567" lon="5.20474">
        <ele>358.47601318359</ele>
        <time>2009-10-31T14:16:47Z</time>
      </trkpt>
      <trkpt lat="45.31557" lon="5.2048">
        <ele>358.79998779297</ele>
        <time>2009-10-31T14:16:52Z</time>
      </trkpt>
      <trkpt lat="45.31555" lon="5.20482">
        <ele>358.87298583984</ele>
        <time>2009-10-31T14:16:53Z</time>
      </trkpt>
      <trkpt lat="45.3154" lon="5.20501">
        <ele>359.57901000977</ele>
        <time>2009-10-31T14:17:01Z</time>
      </trkpt>
      <trkpt lat="45.3153" lon="5.20515">
        <ele>360.18099975586</ele>
        <time>2009-10-31T14:17:05Z</time>
      </trkpt>
      <trkpt lat="45.31518" lon="5.20529">
        <ele>360.99099731445</ele>
        <time>2009-10-31T14:17:09Z</time>
      </trkpt>
      <trkpt lat="45.31512" lon="5.20536">
        <ele>361.28900146484</ele>
        <time>2009-10-31T14:17:11Z</time>
      </trkpt>
      <trkpt lat="45.31493" lon="5.20561">
        <ele>361.49700927734</ele>
        <time>2009-10-31T14:17:17Z</time>
      </trkpt>
      <trkpt lat="45.31466" lon="5.20591">
        <ele>362.18399047852</ele>
        <time>2009-10-31T14:17:25Z</time>
      </trkpt>
      <trkpt lat="45.31438" lon="5.20621">
        <ele>362.72698974609</ele>
        <time>2009-10-31T14:17:33Z</time>
      </trkpt>
      <trkpt lat="45.31425" lon="5.20638">
        <ele>362.95098876953</ele>
        <time>2009-10-31T14:17:37Z</time>
      </trkpt>
      <trkpt lat="45.31415" lon="5.2065">
        <ele>363.60800170898</ele>
        <time>2009-10-31T14:17:40Z</time>
      </trkpt>
      <trkpt lat="45.31387" lon="5.20682">
        <ele>364.82501220703</ele>
        <time>2009-10-31T14:17:48Z</time>
      </trkpt>
      <trkpt lat="45.31355" lon="5.20715">
        <ele>366.6369934082</ele>
        <time>2009-10-31T14:17:57Z</time>
      </trkpt>
      <trkpt lat="45.31344" lon="5.20725">
        <ele>366.90899658203</ele>
        <time>2009-10-31T14:18:00Z</time>
      </trkpt>
      <trkpt lat="45.31323" lon="5.20747">
        <ele>367.59100341797</ele>
        <time>2009-10-31T14:18:06Z</time>
      </trkpt>
      <trkpt lat="45.3129" lon="5.20783">
        <ele>367.68200683594</ele>
        <time>2009-10-31T14:18:15Z</time>
      </trkpt>
      <trkpt lat="45.31286" lon="5.20788">
        <ele>367.68600463867</ele>
        <time>2009-10-31T14:18:16Z</time>
      </trkpt>
      <trkpt lat="45.31252" lon="5.20837">
        <ele>369.0419921875</ele>
        <time>2009-10-31T14:18:26Z</time>
      </trkpt>
      <trkpt lat="45.31224" lon="5.20879">
        <ele>369.54901123047</ele>
        <time>2009-10-31T14:18:34Z</time>
      </trkpt>
      <trkpt lat="45.31189" lon="5.20931">
        <ele>370.95599365234</ele>
        <time>2009-10-31T14:18:44Z</time>
      </trkpt>
      <trkpt lat="45.31158" lon="5.20979">
        <ele>372.12899780273</ele>
        <time>2009-10-31T14:18:53Z</time>
      </trkpt>
      <trkpt lat="45.31128" lon="5.21024">
        <ele>373.66900634766</ele>
        <time>2009-10-31T14:19:02Z</time>
      </trkpt>
      <trkpt lat="45.31097" lon="5.21067">
        <ele>375.37701416016</ele>
        <time>2009-10-31T14:19:11Z</time>
      </trkpt>
      <trkpt lat="45.3107" lon="5.21107">
        <ele>376.37298583984</ele>
        <time>2009-10-31T14:19:19Z</time>
      </trkpt>
      <trkpt lat="45.31042" lon="5.21148">
        <ele>377.29998779297</ele>
        <time>2009-10-31T14:19:27Z</time>
      </trkpt>
      <trkpt lat="45.31015" lon="5.21189">
        <ele>378.21899414062</ele>
        <time>2009-10-31T14:19:35Z</time>
      </trkpt>
      <trkpt lat="45.30984" lon="5.21231">
        <ele>379.58999633789</ele>
        <time>2009-10-31T14:19:44Z</time>
      </trkpt>
      <trkpt lat="45.30947" lon="5.21272">
        <ele>381.06799316406</ele>
        <time>2009-10-31T14:19:54Z</time>
      </trkpt>
      <trkpt lat="45.30928" lon="5.21292">
        <ele>381.61999511719</ele>
        <time>2009-10-31T14:19:59Z</time>
      </trkpt>
      <trkpt lat="45.30893" lon="5.21325">
        <ele>383.00201416016</ele>
        <time>2009-10-31T14:20:08Z</time>
      </trkpt>
      <trkpt lat="45.30856" lon="5.21362">
        <ele>384.01901245117</ele>
        <time>2009-10-31T14:20:17Z</time>
      </trkpt>
      <trkpt lat="45.30819" lon="5.21399">
        <ele>385.58801269531</ele>
        <time>2009-10-31T14:20:26Z</time>
      </trkpt>
      <trkpt lat="45.30779" lon="5.21438">
        <ele>386.95599365234</ele>
        <time>2009-10-31T14:20:36Z</time>
      </trkpt>
      <trkpt lat="45.3074" lon="5.21476">
        <ele>388.86801147461</ele>
        <time>2009-10-31T14:20:46Z</time>
      </trkpt>
      <trkpt lat="45.30705" lon="5.2151">
        <ele>390.38299560547</ele>
        <time>2009-10-31T14:20:55Z</time>
      </trkpt>
      <trkpt lat="45.30662" lon="5.21553">
        <ele>391.93499755859</ele>
        <time>2009-10-31T14:21:06Z</time>
      </trkpt>
      <trkpt lat="45.3063" lon="5.21584">
        <ele>392.90701293945</ele>
        <time>2009-10-31T14:21:14Z</time>
      </trkpt>
      <trkpt lat="45.30598" lon="5.21615">
        <ele>394.07299804688</ele>
        <time>2009-10-31T14:21:22Z</time>
      </trkpt>
      <trkpt lat="45.30574" lon="5.21641">
        <ele>394.85501098633</ele>
        <time>2009-10-31T14:21:28Z</time>
      </trkpt>
      <trkpt lat="45.30537" lon="5.21677">
        <ele>396.41900634766</ele>
        <time>2009-10-31T14:21:37Z</time>
      </trkpt>
      <trkpt lat="45.30502" lon="5.21711">
        <ele>398.39801025391</ele>
        <time>2009-10-31T14:21:46Z</time>
      </trkpt>
      <trkpt lat="45.30471" lon="5.21741">
        <ele>400.5119934082</ele>
        <time>2009-10-31T14:21:54Z</time>
      </trkpt>
      <trkpt lat="45.30445" lon="5.21767">
        <ele>401.42401123047</ele>
        <time>2009-10-31T14:22:01Z</time>
      </trkpt>
      <trkpt lat="45.30421" lon="5.218">
        <ele>403.15600585938</ele>
        <time>2009-10-31T14:22:08Z</time>
      </trkpt>
      <trkpt lat="45.30411" lon="5.21829">
        <ele>404.33599853516</ele>
        <time>2009-10-31T14:22:13Z</time>
      </trkpt>
      <trkpt lat="45.30405" lon="5.21887">
        <ele>406.06799316406</ele>
        <time>2009-10-31T14:22:22Z</time>
      </trkpt>
      <trkpt lat="45.30393" lon="5.21915">
        <ele>406.61700439453</ele>
        <time>2009-10-31T14:22:27Z</time>
      </trkpt>
      <trkpt lat="45.3038" lon="5.21925">
        <ele>407.22799682617</ele>
        <time>2009-10-31T14:22:30Z</time>
      </trkpt>
      <trkpt lat="45.30341" lon="5.21934">
        <ele>409.58700561523</ele>
        <time>2009-10-31T14:22:38Z</time>
      </trkpt>
      <trkpt lat="45.30304" lon="5.21942">
        <ele>411.42700195312</ele>
        <time>2009-10-31T14:22:46Z</time>
      </trkpt>
      <trkpt lat="45.30282" lon="5.21952">
        <ele>412.82501220703</ele>
        <time>2009-10-31T14:22:51Z</time>
      </trkpt>
      <trkpt lat="45.30244" lon="5.21988">
        <ele>415.43399047852</ele>
        <time>2009-10-31T14:23:01Z</time>
      </trkpt>
      <trkpt lat="45.30216" lon="5.22022">
        <ele>417.17599487305</ele>
        <time>2009-10-31T14:23:09Z</time>
      </trkpt>
      <trkpt lat="45.30178" lon="5.22064">
        <ele>419.72299194336</ele>
        <time>2009-10-31T14:23:19Z</time>
      </trkpt>
      <trkpt lat="45.30142" lon="5.22092">
        <ele>422.04800415039</ele>
        <time>2009-10-31T14:23:27Z</time>
      </trkpt>
      <trkpt lat="45.30109" lon="5.22108">
        <ele>424.17098999023</ele>
        <time>2009-10-31T14:23:34Z</time>
      </trkpt>
      <trkpt lat="45.30104" lon="5.22109">
        <ele>424.46600341797</ele>
        <time>2009-10-31T14:23:35Z</time>
      </trkpt>
      <trkpt lat="45.30071" lon="5.22126">
        <ele>426.23300170898</ele>
        <time>2009-10-31T14:23:42Z</time>
      </trkpt>
      <trkpt lat="45.30027" lon="5.22148">
        <ele>429.06100463867</ele>
        <time>2009-10-31T14:23:51Z</time>
      </trkpt>
      <trkpt lat="45.2999" lon="5.22178">
        <ele>431.45999145508</ele>
        <time>2009-10-31T14:23:59Z</time>
      </trkpt>
      <trkpt lat="45.2995" lon="5.22226">
        <ele>434.13800048828</ele>
        <time>2009-10-31T14:24:09Z</time>
      </trkpt>
      <trkpt lat="45.29908" lon="5.22269">
        <ele>437.18798828125</ele>
        <time>2009-10-31T14:24:18Z</time>
      </trkpt>
      <trkpt lat="45.29865" lon="5.22314">
        <ele>439.98098754883</ele>
        <time>2009-10-31T14:24:27Z</time>
      </trkpt>
      <trkpt lat="45.29829" lon="5.2236">
        <ele>442.57699584961</ele>
        <time>2009-10-31T14:24:35Z</time>
      </trkpt>
      <trkpt lat="45.29801" lon="5.22406">
        <ele>444.67999267578</ele>
        <time>2009-10-31T14:24:43Z</time>
      </trkpt>
      <trkpt lat="45.2977" lon="5.22457">
        <ele>447.13800048828</ele>
        <time>2009-10-31T14:24:52Z</time>
      </trkpt>
      <trkpt lat="45.29742" lon="5.22507">
        <ele>449.4469909668</ele>
        <time>2009-10-31T14:25:00Z</time>
      </trkpt>
      <trkpt lat="45.29717" lon="5.2257">
        <ele>451.61599731445</ele>
        <time>2009-10-31T14:25:09Z</time>
      </trkpt>
      <trkpt lat="45.29704" lon="5.22614">
        <ele>452.86199951172</ele>
        <time>2009-10-31T14:25:15Z</time>
      </trkpt>
      <trkpt lat="45.29681" lon="5.22659">
        <ele>453.87799072266</ele>
        <time>2009-10-31T14:25:21Z</time>
      </trkpt>
      <trkpt lat="45.29654" lon="5.22714">
        <ele>454.65899658203</ele>
        <time>2009-10-31T14:25:28Z</time>
      </trkpt>
      <trkpt lat="45.29628" lon="5.22771">
        <ele>455.29098510742</ele>
        <time>2009-10-31T14:25:35Z</time>
      </trkpt>
      <trkpt lat="45.29607" lon="5.22828">
        <ele>455.66000366211</ele>
        <time>2009-10-31T14:25:42Z</time>
      </trkpt>
      <trkpt lat="45.29597" lon="5.22876">
        <ele>455.39300537109</ele>
        <time>2009-10-31T14:25:47Z</time>
      </trkpt>
      <trkpt lat="45.29576" lon="5.22936">
        <ele>455.55999755859</ele>
        <time>2009-10-31T14:25:53Z</time>
      </trkpt>
      <trkpt lat="45.2956" lon="5.22996">
        <ele>457.21398925781</ele>
        <time>2009-10-31T14:25:58Z</time>
      </trkpt>
      <trkpt lat="45.29552" lon="5.23066">
        <ele>458.10299682617</ele>
        <time>2009-10-31T14:26:04Z</time>
      </trkpt>
      <trkpt lat="45.29551" lon="5.23147">
        <ele>458.61801147461</ele>
        <time>2009-10-31T14:26:12Z</time>
      </trkpt>
      <trkpt lat="45.2955" lon="5.23214">
        <ele>459.31201171875</ele>
        <time>2009-10-31T14:26:19Z</time>
      </trkpt>
      <trkpt lat="45.29549" lon="5.23276">
        <ele>460.61499023438</ele>
        <time>2009-10-31T14:26:26Z</time>
      </trkpt>
      <trkpt lat="45.29554" lon="5.23333">
        <ele>461.33200073242</ele>
        <time>2009-10-31T14:26:33Z</time>
      </trkpt>
      <trkpt lat="45.29555" lon="5.23358">
        <ele>461.64801025391</ele>
        <time>2009-10-31T14:26:36Z</time>
      </trkpt>
      <trkpt lat="45.29545" lon="5.23406">
        <ele>462.28201293945</ele>
        <time>2009-10-31T14:26:42Z</time>
      </trkpt>
      <trkpt lat="45.29525" lon="5.23474">
        <ele>463.14401245117</ele>
        <time>2009-10-31T14:26:50Z</time>
      </trkpt>
      <trkpt lat="45.29512" lon="5.23545">
        <ele>463.45700073242</ele>
        <time>2009-10-31T14:26:58Z</time>
      </trkpt>
      <trkpt lat="45.29505" lon="5.23594">
        <ele>463.99700927734</ele>
        <time>2009-10-31T14:27:04Z</time>
      </trkpt>
      <trkpt lat="45.29499" lon="5.23639">
        <ele>464.4580078125</ele>
        <time>2009-10-31T14:27:10Z</time>
      </trkpt>
      <trkpt lat="45.29498" lon="5.23652">
        <ele>464.31900024414</ele>
        <time>2009-10-31T14:27:12Z</time>
      </trkpt>
      <trkpt lat="45.29486" lon="5.23671">
        <ele>463.48300170898</ele>
        <time>2009-10-31T14:27:16Z</time>
      </trkpt>
      <trkpt lat="45.29467" lon="5.23671">
        <ele>463.35198974609</ele>
        <time>2009-10-31T14:27:20Z</time>
      </trkpt>
      <trkpt lat="45.29458" lon="5.23671">
        <ele>463.14700317383</ele>
        <time>2009-10-31T14:27:22Z</time>
      </trkpt>
      <trkpt lat="45.29439" lon="5.23672">
        <ele>463.38500976562</ele>
        <time>2009-10-31T14:27:27Z</time>
      </trkpt>
      <trkpt lat="45.29428" lon="5.23669">
        <ele>463.26901245117</ele>
        <time>2009-10-31T14:27:30Z</time>
      </trkpt>
      <trkpt lat="45.29425" lon="5.23676">
        <ele>463.56100463867</ele>
        <time>2009-10-31T14:27:34Z</time>
      </trkpt>
      <trkpt lat="45.29433" lon="5.23673">
        <ele>463.18200683594</ele>
        <time>2009-10-31T14:27:38Z</time>
      </trkpt>
      <trkpt lat="45.29439" lon="5.23674">
        <ele>463.19400024414</ele>
        <time>2009-10-31T14:27:40Z</time>
      </trkpt>
      <trkpt lat="45.29452" lon="5.23673">
        <ele>463.19100952148</ele>
        <time>2009-10-31T14:27:45Z</time>
      </trkpt>
      <trkpt lat="45.29457" lon="5.23673">
        <ele>463.04098510742</ele>
        <time>2009-10-31T14:27:47Z</time>
      </trkpt>
      <trkpt lat="45.2946" lon="5.23673">
        <ele>463.03399658203</ele>
        <time>2009-10-31T14:27:48Z</time>
      </trkpt>
      <trkpt lat="45.29477" lon="5.23671">
        <ele>462.96398925781</ele>
        <time>2009-10-31T14:27:55Z</time>
      </trkpt>
      <trkpt lat="45.2949" lon="5.2367">
        <ele>463.01800537109</ele>
        <time>2009-10-31T14:28:02Z</time>
      </trkpt>
      <trkpt lat="45.29499" lon="5.23667">
        <ele>463.2619934082</ele>
        <time>2009-10-31T14:28:07Z</time>
      </trkpt>
      <trkpt lat="45.29503" lon="5.23661">
        <ele>463.30899047852</ele>
        <time>2009-10-31T14:28:13Z</time>
      </trkpt>
      <trkpt lat="45.29501" lon="5.23657">
        <ele>463.32901000977</ele>
        <time>2009-10-31T14:28:17Z</time>
      </trkpt>
      <trkpt lat="45.29501" lon="5.23651">
        <ele>463.33401489258</ele>
        <time>2009-10-31T14:28:21Z</time>
      </trkpt>
      <trkpt lat="45.29502" lon="5.2364">
        <ele>463.30499267578</ele>
        <time>2009-10-31T14:28:29Z</time>
      </trkpt>
      <trkpt lat="45.29501" lon="5.23636">
        <ele>463.43899536133</ele>
        <time>2009-10-31T14:28:31Z</time>
      </trkpt>
      <trkpt lat="45.29502" lon="5.23629">
        <ele>463.55599975586</ele>
        <time>2009-10-31T14:28:36Z</time>
      </trkpt>
      <trkpt lat="45.29501" lon="5.23637">
        <ele>463.37200927734</ele>
        <time>2009-10-31T14:28:40Z</time>
      </trkpt>
      <trkpt lat="45.295" lon="5.23647">
        <ele>463.54299926758</ele>
        <time>2009-10-31T14:28:44Z</time>
      </trkpt>
      <trkpt lat="45.29493" lon="5.23666">
        <ele>463.06399536133</ele>
        <time>2009-10-31T14:28:50Z</time>
      </trkpt>
      <trkpt lat="45.29482" lon="5.23669">
        <ele>463.00399780273</ele>
        <time>2009-10-31T14:28:54Z</time>
      </trkpt>
      <trkpt lat="45.29461" lon="5.23668">
        <ele>462.92300415039</ele>
        <time>2009-10-31T14:29:01Z</time>
      </trkpt>
      <trkpt lat="45.29445" lon="5.2367">
        <ele>462.93600463867</ele>
        <time>2009-10-31T14:29:07Z</time>
      </trkpt>
      <trkpt lat="45.2943" lon="5.23664">
        <ele>462.97601318359</ele>
        <time>2009-10-31T14:29:12Z</time>
      </trkpt>
      <trkpt lat="45.29421" lon="5.23637">
        <ele>463.10299682617</ele>
        <time>2009-10-31T14:29:18Z</time>
      </trkpt>
      <trkpt lat="45.29415" lon="5.23611">
        <ele>463.29098510742</ele>
        <time>2009-10-31T14:29:23Z</time>
      </trkpt>
      <trkpt lat="45.29404" lon="5.23584">
        <ele>463.43200683594</ele>
        <time>2009-10-31T14:29:28Z</time>
      </trkpt>
      <trkpt lat="45.29397" lon="5.23568">
        <ele>464.02700805664</ele>
        <time>2009-10-31T14:29:31Z</time>
      </trkpt>
      <trkpt lat="45.29392" lon="5.23557">
        <ele>464.30801391602</ele>
        <time>2009-10-31T14:29:33Z</time>
      </trkpt>
      <trkpt lat="45.29385" lon="5.23543">
        <ele>464.93899536133</ele>
        <time>2009-10-31T14:29:36Z</time>
      </trkpt>
      <trkpt lat="45.29372" lon="5.23525">
        <ele>466.2799987793</ele>
        <time>2009-10-31T14:29:40Z</time>
      </trkpt>
      <trkpt lat="45.29364" lon="5.23519">
        <ele>466.81399536133</ele>
        <time>2009-10-31T14:29:42Z</time>
      </trkpt>
      <trkpt lat="45.29329" lon="5.23512">
        <ele>468.16299438477</ele>
        <time>2009-10-31T14:29:50Z</time>
      </trkpt>
      <trkpt lat="45.2929" lon="5.23512">
        <ele>470.28399658203</ele>
        <time>2009-10-31T14:29:59Z</time>
      </trkpt>
      <trkpt lat="45.29254" lon="5.23517">
        <ele>471.65100097656</ele>
        <time>2009-10-31T14:30:08Z</time>
      </trkpt>
      <trkpt lat="45.29219" lon="5.23535">
        <ele>473.26400756836</ele>
        <time>2009-10-31T14:30:17Z</time>
      </trkpt>
      <trkpt lat="45.2919" lon="5.23555">
        <ele>474.67300415039</ele>
        <time>2009-10-31T14:30:25Z</time>
      </trkpt>
      <trkpt lat="45.29159" lon="5.23576">
        <ele>476.75100708008</ele>
        <time>2009-10-31T14:30:34Z</time>
      </trkpt>
      <trkpt lat="45.29139" lon="5.23589">
        <ele>478.17999267578</ele>
        <time>2009-10-31T14:30:40Z</time>
      </trkpt>
      <trkpt lat="45.29123" lon="5.23597">
        <ele>479.11898803711</ele>
        <time>2009-10-31T14:30:45Z</time>
      </trkpt>
      <trkpt lat="45.29105" lon="5.2361">
        <ele>480.76400756836</ele>
        <time>2009-10-31T14:30:51Z</time>
      </trkpt>
      <trkpt lat="45.29086" lon="5.23621">
        <ele>482.1669921875</ele>
        <time>2009-10-31T14:30:57Z</time>
      </trkpt>
      <trkpt lat="45.29063" lon="5.23632">
        <ele>483.68200683594</ele>
        <time>2009-10-31T14:31:04Z</time>
      </trkpt>
      <trkpt lat="45.29041" lon="5.23637">
        <ele>484.86099243164</ele>
        <time>2009-10-31T14:31:11Z</time>
      </trkpt>
      <trkpt lat="45.29011" lon="5.23644">
        <ele>486.73901367188</ele>
        <time>2009-10-31T14:31:20Z</time>
      </trkpt>
      <trkpt lat="45.28993" lon="5.23653">
        <ele>488.08898925781</ele>
        <time>2009-10-31T14:31:26Z</time>
      </trkpt>
      <trkpt lat="45.28977" lon="5.23662">
        <ele>489.05700683594</ele>
        <time>2009-10-31T14:31:32Z</time>
      </trkpt>
      <trkpt lat="45.28957" lon="5.23675">
        <ele>490.52899169922</ele>
        <time>2009-10-31T14:31:39Z</time>
      </trkpt>
      <trkpt lat="45.28933" lon="5.23688">
        <ele>492.27801513672</ele>
        <time>2009-10-31T14:31:47Z</time>
      </trkpt>
      <trkpt lat="45.28912" lon="5.23697">
        <ele>493.49798583984</ele>
        <time>2009-10-31T14:31:54Z</time>
      </trkpt>
      <trkpt lat="45.28897" lon="5.23704">
        <ele>494.875</ele>
        <time>2009-10-31T14:32:00Z</time>
      </trkpt>
      <trkpt lat="45.28877" lon="5.23713">
        <ele>496.07501220703</ele>
        <time>2009-10-31T14:32:07Z</time>
      </trkpt>
      <trkpt lat="45.28854" lon="5.23727">
        <ele>497.81298828125</ele>
        <time>2009-10-31T14:32:15Z</time>
      </trkpt>
      <trkpt lat="45.2883" lon="5.23741">
        <ele>499.43200683594</ele>
        <time>2009-10-31T14:32:24Z</time>
      </trkpt>
      <trkpt lat="45.28809" lon="5.23752">
        <ele>500.92401123047</ele>
        <time>2009-10-31T14:32:31Z</time>
      </trkpt>
      <trkpt lat="45.28787" lon="5.23769">
        <ele>502.26300048828</ele>
        <time>2009-10-31T14:32:39Z</time>
      </trkpt>
      <trkpt lat="45.28773" lon="5.23784">
        <ele>503.29400634766</ele>
        <time>2009-10-31T14:32:45Z</time>
      </trkpt>
      <trkpt lat="45.28754" lon="5.23808">
        <ele>504.59201049805</ele>
        <time>2009-10-31T14:32:53Z</time>
      </trkpt>
      <trkpt lat="45.28735" lon="5.23832">
        <ele>506.47500610352</ele>
        <time>2009-10-31T14:33:01Z</time>
      </trkpt>
      <trkpt lat="45.28714" lon="5.23858">
        <ele>508.34799194336</ele>
        <time>2009-10-31T14:33:10Z</time>
      </trkpt>
      <trkpt lat="45.287" lon="5.23876">
        <ele>509.73599243164</ele>
        <time>2009-10-31T14:33:16Z</time>
      </trkpt>
      <trkpt lat="45.28683" lon="5.23895">
        <ele>511.04098510742</ele>
        <time>2009-10-31T14:33:23Z</time>
      </trkpt>
      <trkpt lat="45.28666" lon="5.23915">
        <ele>512.333984375</ele>
        <time>2009-10-31T14:33:30Z</time>
      </trkpt>
      <trkpt lat="45.28649" lon="5.23928">
        <ele>513.1669921875</ele>
        <time>2009-10-31T14:33:36Z</time>
      </trkpt>
      <trkpt lat="45.28641" lon="5.23945">
        <ele>514.35400390625</ele>
        <time>2009-10-31T14:33:41Z</time>
      </trkpt>
      <trkpt lat="45.28651" lon="5.23957">
        <ele>515.38897705078</ele>
        <time>2009-10-31T14:33:46Z</time>
      </trkpt>
      <trkpt lat="45.28664" lon="5.2395">
        <ele>515.88702392578</ele>
        <time>2009-10-31T14:33:50Z</time>
      </trkpt>
      <trkpt lat="45.28692" lon="5.23928">
        <ele>517.22302246094</ele>
        <time>2009-10-31T14:33:59Z</time>
      </trkpt>
      <trkpt lat="45.28716" lon="5.23919">
        <ele>518.5830078125</ele>
        <time>2009-10-31T14:34:06Z</time>
      </trkpt>
      <trkpt lat="45.28745" lon="5.23909">
        <ele>520.22900390625</ele>
        <time>2009-10-31T14:34:15Z</time>
      </trkpt>
      <trkpt lat="45.28782" lon="5.23898">
        <ele>522.51300048828</ele>
        <time>2009-10-31T14:34:26Z</time>
      </trkpt>
      <trkpt lat="45.28812" lon="5.23888">
        <ele>524.50701904297</ele>
        <time>2009-10-31T14:34:35Z</time>
      </trkpt>
      <trkpt lat="45.28829" lon="5.2388">
        <ele>525.80700683594</ele>
        <time>2009-10-31T14:34:41Z</time>
      </trkpt>
      <trkpt lat="45.28847" lon="5.23874">
        <ele>527.23498535156</ele>
        <time>2009-10-31T14:34:47Z</time>
      </trkpt>
      <trkpt lat="45.28861" lon="5.23863">
        <ele>528.17999267578</ele>
        <time>2009-10-31T14:34:52Z</time>
      </trkpt>
      <trkpt lat="45.28876" lon="5.23847">
        <ele>529.44500732422</ele>
        <time>2009-10-31T14:34:58Z</time>
      </trkpt>
      <trkpt lat="45.28892" lon="5.23826">
        <ele>531.12298583984</ele>
        <time>2009-10-31T14:35:05Z</time>
      </trkpt>
      <trkpt lat="45.2891" lon="5.23807">
        <ele>532.65802001953</ele>
        <time>2009-10-31T14:35:12Z</time>
      </trkpt>
      <trkpt lat="45.28926" lon="5.23802">
        <ele>533.85998535156</ele>
        <time>2009-10-31T14:35:18Z</time>
      </trkpt>
      <trkpt lat="45.28941" lon="5.23808">
        <ele>534.73699951172</ele>
        <time>2009-10-31T14:35:23Z</time>
      </trkpt>
      <trkpt lat="45.28956" lon="5.23834">
        <ele>536.50598144531</ele>
        <time>2009-10-31T14:35:31Z</time>
      </trkpt>
      <trkpt lat="45.28967" lon="5.23874">
        <ele>538.48101806641</ele>
        <time>2009-10-31T14:35:41Z</time>
      </trkpt>
      <trkpt lat="45.28973" lon="5.23909">
        <ele>540.07202148438</ele>
        <time>2009-10-31T14:35:49Z</time>
      </trkpt>
      <trkpt lat="45.28974" lon="5.23939">
        <ele>541.59100341797</ele>
        <time>2009-10-31T14:35:56Z</time>
      </trkpt>
      <trkpt lat="45.28979" lon="5.23965">
        <ele>542.67797851562</ele>
        <time>2009-10-31T14:36:02Z</time>
      </trkpt>
      <trkpt lat="45.28989" lon="5.23973">
        <ele>543.30700683594</ele>
        <time>2009-10-31T14:36:06Z</time>
      </trkpt>
      <trkpt lat="45.29004" lon="5.23972">
        <ele>544.38098144531</ele>
        <time>2009-10-31T14:36:12Z</time>
      </trkpt>
      <trkpt lat="45.29018" lon="5.23964">
        <ele>545.06896972656</ele>
        <time>2009-10-31T14:36:17Z</time>
      </trkpt>
      <trkpt lat="45.29035" lon="5.23954">
        <ele>545.77600097656</ele>
        <time>2009-10-31T14:36:23Z</time>
      </trkpt>
      <trkpt lat="45.29055" lon="5.23941">
        <ele>546.92297363281</ele>
        <time>2009-10-31T14:36:30Z</time>
      </trkpt>
      <trkpt lat="45.29074" lon="5.23933">
        <ele>547.89099121094</ele>
        <time>2009-10-31T14:36:36Z</time>
      </trkpt>
      <trkpt lat="45.29086" lon="5.23939">
        <ele>549.12701416016</ele>
        <time>2009-10-31T14:36:40Z</time>
      </trkpt>
      <trkpt lat="45.29087" lon="5.23942">
        <ele>549.12298583984</ele>
        <time>2009-10-31T14:36:41Z</time>
      </trkpt>
      <trkpt lat="45.29084" lon="5.23961">
        <ele>549.94000244141</ele>
        <time>2009-10-31T14:36:46Z</time>
      </trkpt>
      <trkpt lat="45.29081" lon="5.23964">
        <ele>550.09002685547</ele>
        <time>2009-10-31T14:36:47Z</time>
      </trkpt>
      <trkpt lat="45.29062" lon="5.23987">
        <ele>551.21697998047</ele>
        <time>2009-10-31T14:36:54Z</time>
      </trkpt>
      <trkpt lat="45.29039" lon="5.24024">
        <ele>553.09997558594</ele>
        <time>2009-10-31T14:37:02Z</time>
      </trkpt>
      <trkpt lat="45.2902" lon="5.24065">
        <ele>555.59600830078</ele>
        <time>2009-10-31T14:37:09Z</time>
      </trkpt>
      <trkpt lat="45.28998" lon="5.24089">
        <ele>556.90002441406</ele>
        <time>2009-10-31T14:37:15Z</time>
      </trkpt>
      <trkpt lat="45.28993" lon="5.2409">
        <ele>557.20300292969</ele>
        <time>2009-10-31T14:37:16Z</time>
      </trkpt>
      <trkpt lat="45.28964" lon="5.24097">
        <ele>559.05102539062</ele>
        <time>2009-10-31T14:37:22Z</time>
      </trkpt>
      <trkpt lat="45.28944" lon="5.24113">
        <ele>560.17297363281</ele>
        <time>2009-10-31T14:37:27Z</time>
      </trkpt>
      <trkpt lat="45.28916" lon="5.24146">
        <ele>562.70202636719</ele>
        <time>2009-10-31T14:37:36Z</time>
      </trkpt>
      <trkpt lat="45.28897" lon="5.24168">
        <ele>564.5419921875</ele>
        <time>2009-10-31T14:37:43Z</time>
      </trkpt>
      <trkpt lat="45.28876" lon="5.24193">
        <ele>566.27301025391</ele>
        <time>2009-10-31T14:37:51Z</time>
      </trkpt>
      <trkpt lat="45.28858" lon="5.24215">
        <ele>567.95098876953</ele>
        <time>2009-10-31T14:37:58Z</time>
      </trkpt>
      <trkpt lat="45.28841" lon="5.24236">
        <ele>569.86102294922</ele>
        <time>2009-10-31T14:38:05Z</time>
      </trkpt>
      <trkpt lat="45.28822" lon="5.24259">
        <ele>571.55499267578</ele>
        <time>2009-10-31T14:38:13Z</time>
      </trkpt>
      <trkpt lat="45.28801" lon="5.24284">
        <ele>573.51702880859</ele>
        <time>2009-10-31T14:38:22Z</time>
      </trkpt>
      <trkpt lat="45.28788" lon="5.24301">
        <ele>574.70599365234</ele>
        <time>2009-10-31T14:38:28Z</time>
      </trkpt>
      <trkpt lat="45.28764" lon="5.2433">
        <ele>577.11499023438</ele>
        <time>2009-10-31T14:38:38Z</time>
      </trkpt>
      <trkpt lat="45.28748" lon="5.2435">
        <ele>578.64599609375</ele>
        <time>2009-10-31T14:38:45Z</time>
      </trkpt>
      <trkpt lat="45.28726" lon="5.24376">
        <ele>580.70300292969</ele>
        <time>2009-10-31T14:38:54Z</time>
      </trkpt>
      <trkpt lat="45.28717" lon="5.24391">
        <ele>581.26501464844</ele>
        <time>2009-10-31T14:38:59Z</time>
      </trkpt>
      <trkpt lat="45.28699" lon="5.24413">
        <ele>582.48901367188</ele>
        <time>2009-10-31T14:39:08Z</time>
      </trkpt>
      <trkpt lat="45.28685" lon="5.24432">
        <ele>583.47100830078</ele>
        <time>2009-10-31T14:39:15Z</time>
      </trkpt>
      <trkpt lat="45.28671" lon="5.24446">
        <ele>584.458984375</ele>
        <time>2009-10-31T14:39:21Z</time>
      </trkpt>
      <trkpt lat="45.2865" lon="5.24466">
        <ele>586.09899902344</ele>
        <time>2009-10-31T14:39:29Z</time>
      </trkpt>
      <trkpt lat="45.28626" lon="5.24483">
        <ele>587.78698730469</ele>
        <time>2009-10-31T14:39:38Z</time>
      </trkpt>
      <trkpt lat="45.28605" lon="5.24498">
        <ele>589.08898925781</ele>
        <time>2009-10-31T14:39:46Z</time>
      </trkpt>
      <trkpt lat="45.28583" lon="5.24518">
        <ele>590.71997070312</ele>
        <time>2009-10-31T14:39:55Z</time>
      </trkpt>
      <trkpt lat="45.28569" lon="5.24534">
        <ele>591.64202880859</ele>
        <time>2009-10-31T14:40:01Z</time>
      </trkpt>
      <trkpt lat="45.28555" lon="5.24548">
        <ele>592.65197753906</ele>
        <time>2009-10-31T14:40:07Z</time>
      </trkpt>
      <trkpt lat="45.28538" lon="5.24568">
        <ele>594.14300537109</ele>
        <time>2009-10-31T14:40:14Z</time>
      </trkpt>
      <trkpt lat="45.28523" lon="5.24584">
        <ele>595.26000976562</ele>
        <time>2009-10-31T14:40:20Z</time>
      </trkpt>
      <trkpt lat="45.28503" lon="5.24606">
        <ele>597.00402832031</ele>
        <time>2009-10-31T14:40:28Z</time>
      </trkpt>
      <trkpt lat="45.28486" lon="5.24616">
        <ele>597.98602294922</ele>
        <time>2009-10-31T14:40:34Z</time>
      </trkpt>
      <trkpt lat="45.28464" lon="5.24627">
        <ele>599.26702880859</ele>
        <time>2009-10-31T14:40:41Z</time>
      </trkpt>
      <trkpt lat="45.28437" lon="5.24631">
        <ele>600.75799560547</ele>
        <time>2009-10-31T14:40:49Z</time>
      </trkpt>
      <trkpt lat="45.28414" lon="5.24627">
        <ele>602.14501953125</ele>
        <time>2009-10-31T14:40:56Z</time>
      </trkpt>
      <trkpt lat="45.28389" lon="5.24628">
        <ele>603.10198974609</ele>
        <time>2009-10-31T14:41:03Z</time>
      </trkpt>
      <trkpt lat="45.28371" lon="5.24645">
        <ele>604.15802001953</ele>
        <time>2009-10-31T14:41:09Z</time>
      </trkpt>
      <trkpt lat="45.2835" lon="5.2468">
        <ele>605.30700683594</ele>
        <time>2009-10-31T14:41:17Z</time>
      </trkpt>
      <trkpt lat="45.28334" lon="5.24728">
        <ele>605.72998046875</ele>
        <time>2009-10-31T14:41:25Z</time>
      </trkpt>
      <trkpt lat="45.28322" lon="5.24783">
        <ele>605.76300048828</ele>
        <time>2009-10-31T14:41:33Z</time>
      </trkpt>
      <trkpt lat="45.28304" lon="5.24833">
        <ele>606.30499267578</ele>
        <time>2009-10-31T14:41:40Z</time>
      </trkpt>
      <trkpt lat="45.28288" lon="5.24868">
        <ele>606.30798339844</ele>
        <time>2009-10-31T14:41:45Z</time>
      </trkpt>
      <trkpt lat="45.28273" lon="5.24892">
        <ele>606.74798583984</ele>
        <time>2009-10-31T14:41:49Z</time>
      </trkpt>
      <trkpt lat="45.28234" lon="5.24924">
        <ele>607.52899169922</ele>
        <time>2009-10-31T14:41:57Z</time>
      </trkpt>
      <trkpt lat="45.28175" lon="5.24964">
        <ele>609.44799804688</ele>
        <time>2009-10-31T14:42:09Z</time>
      </trkpt>
      <trkpt lat="45.28111" lon="5.25006">
        <ele>611.57598876953</ele>
        <time>2009-10-31T14:42:22Z</time>
      </trkpt>
      <trkpt lat="45.28067" lon="5.25036">
        <ele>613.4169921875</ele>
        <time>2009-10-31T14:42:31Z</time>
      </trkpt>
      <trkpt lat="45.28031" lon="5.25058">
        <ele>613.83898925781</ele>
        <time>2009-10-31T14:42:38Z</time>
      </trkpt>
      <trkpt lat="45.2801" lon="5.25065">
        <ele>613.33599853516</ele>
        <time>2009-10-31T14:42:42Z</time>
      </trkpt>
      <trkpt lat="45.27992" lon="5.25068">
        <ele>612.97198486328</ele>
        <time>2009-10-31T14:42:45Z</time>
      </trkpt>
      <trkpt lat="45.27987" lon="5.25069">
        <ele>612.82501220703</ele>
        <time>2009-10-31T14:42:46Z</time>
      </trkpt>
      <trkpt lat="45.27929" lon="5.25078">
        <ele>611.88598632812</ele>
        <time>2009-10-31T14:42:55Z</time>
      </trkpt>
      <trkpt lat="45.27887" lon="5.25085">
        <ele>610.66198730469</ele>
        <time>2009-10-31T14:43:01Z</time>
      </trkpt>
      <trkpt lat="45.27822" lon="5.25096">
        <ele>611.99798583984</ele>
        <time>2009-10-31T14:43:11Z</time>
      </trkpt>
      <trkpt lat="45.27785" lon="5.25101">
        <ele>612.98400878906</ele>
        <time>2009-10-31T14:43:17Z</time>
      </trkpt>
      <trkpt lat="45.27746" lon="5.25101">
        <ele>612.36602783203</ele>
        <time>2009-10-31T14:43:23Z</time>
      </trkpt>
      <trkpt lat="45.27702" lon="5.25091">
        <ele>611.20697021484</ele>
        <time>2009-10-31T14:43:29Z</time>
      </trkpt>
      <trkpt lat="45.27638" lon="5.25075">
        <ele>609.24499511719</ele>
        <time>2009-10-31T14:43:37Z</time>
      </trkpt>
      <trkpt lat="45.27578" lon="5.25062">
        <ele>608.60498046875</ele>
        <time>2009-10-31T14:43:45Z</time>
      </trkpt>
      <trkpt lat="45.27522" lon="5.25049">
        <ele>609.71398925781</ele>
        <time>2009-10-31T14:43:53Z</time>
      </trkpt>
      <trkpt lat="45.27488" lon="5.25042">
        <ele>610.36901855469</ele>
        <time>2009-10-31T14:43:59Z</time>
      </trkpt>
      <trkpt lat="45.27483" lon="5.25041">
        <ele>610.31097412109</ele>
        <time>2009-10-31T14:44:00Z</time>
      </trkpt>
      <trkpt lat="45.27447" lon="5.25033">
        <ele>609.75897216797</ele>
        <time>2009-10-31T14:44:07Z</time>
      </trkpt>
      <trkpt lat="45.27404" lon="5.25023">
        <ele>608.43200683594</ele>
        <time>2009-10-31T14:44:14Z</time>
      </trkpt>
      <trkpt lat="45.27359" lon="5.25012">
        <ele>606.40600585938</ele>
        <time>2009-10-31T14:44:20Z</time>
      </trkpt>
      <trkpt lat="45.27307" lon="5.25001">
        <ele>604.13397216797</ele>
        <time>2009-10-31T14:44:26Z</time>
      </trkpt>
      <trkpt lat="45.27242" lon="5.24985">
        <ele>601.64801025391</ele>
        <time>2009-10-31T14:44:33Z</time>
      </trkpt>
      <trkpt lat="45.27211" lon="5.2498">
        <ele>600.22399902344</ele>
        <time>2009-10-31T14:44:36Z</time>
      </trkpt>
      <trkpt lat="45.27147" lon="5.24988">
        <ele>597.99499511719</ele>
        <time>2009-10-31T14:44:42Z</time>
      </trkpt>
      <trkpt lat="45.27125" lon="5.24993">
        <ele>596.86102294922</ele>
        <time>2009-10-31T14:44:44Z</time>
      </trkpt>
      <trkpt lat="45.27091" lon="5.24993">
        <ele>595.59399414062</ele>
        <time>2009-10-31T14:44:47Z</time>
      </trkpt>
      <trkpt lat="45.2708" lon="5.24991">
        <ele>594.72601318359</ele>
        <time>2009-10-31T14:44:48Z</time>
      </trkpt>
      <trkpt lat="45.27057" lon="5.24987">
        <ele>593.83801269531</ele>
        <time>2009-10-31T14:44:50Z</time>
      </trkpt>
      <trkpt lat="45.27025" lon="5.24981">
        <ele>591.57800292969</ele>
        <time>2009-10-31T14:44:53Z</time>
      </trkpt>
      <trkpt lat="45.26988" lon="5.24955">
        <ele>590.49298095703</ele>
        <time>2009-10-31T14:44:57Z</time>
      </trkpt>
      <trkpt lat="45.2698" lon="5.24945">
        <ele>589.91198730469</ele>
        <time>2009-10-31T14:44:58Z</time>
      </trkpt>
      <trkpt lat="45.26964" lon="5.24924">
        <ele>589.25500488281</ele>
        <time>2009-10-31T14:45:00Z</time>
      </trkpt>
      <trkpt lat="45.26917" lon="5.24859">
        <ele>586.23101806641</ele>
        <time>2009-10-31T14:45:06Z</time>
      </trkpt>
      <trkpt lat="45.2688" lon="5.24823">
        <ele>584.43597412109</ele>
        <time>2009-10-31T14:45:10Z</time>
      </trkpt>
      <trkpt lat="45.26833" lon="5.24791">
        <ele>582.66302490234</ele>
        <time>2009-10-31T14:45:15Z</time>
      </trkpt>
      <trkpt lat="45.26774" lon="5.24753">
        <ele>579.78997802734</ele>
        <time>2009-10-31T14:45:21Z</time>
      </trkpt>
      <trkpt lat="45.26744" lon="5.24707">
        <ele>576.94201660156</ele>
        <time>2009-10-31T14:45:25Z</time>
      </trkpt>
      <trkpt lat="45.26732" lon="5.24679">
        <ele>575.13397216797</ele>
        <time>2009-10-31T14:45:27Z</time>
      </trkpt>
      <trkpt lat="45.26727" lon="5.24623">
        <ele>571.47698974609</ele>
        <time>2009-10-31T14:45:31Z</time>
      </trkpt>
      <trkpt lat="45.2673" lon="5.24611">
        <ele>570.65899658203</ele>
        <time>2009-10-31T14:45:32Z</time>
      </trkpt>
      <trkpt lat="45.2674" lon="5.24575">
        <ele>568.94702148438</ele>
        <time>2009-10-31T14:45:35Z</time>
      </trkpt>
      <trkpt lat="45.26739" lon="5.24552">
        <ele>567.92797851562</ele>
        <time>2009-10-31T14:45:37Z</time>
      </trkpt>
      <trkpt lat="45.26722" lon="5.24539">
        <ele>566.74597167969</ele>
        <time>2009-10-31T14:45:39Z</time>
      </trkpt>
      <trkpt lat="45.26694" lon="5.24545">
        <ele>565.03497314453</ele>
        <time>2009-10-31T14:45:42Z</time>
      </trkpt>
      <trkpt lat="45.26677" lon="5.24558">
        <ele>563.74798583984</ele>
        <time>2009-10-31T14:45:44Z</time>
      </trkpt>
      <trkpt lat="45.26646" lon="5.2458">
        <ele>561.03802490234</ele>
        <time>2009-10-31T14:45:48Z</time>
      </trkpt>
      <trkpt lat="45.26618" lon="5.24588">
        <ele>559.375</ele>
        <time>2009-10-31T14:45:51Z</time>
      </trkpt>
      <trkpt lat="45.2658" lon="5.24574">
        <ele>556.89300537109</ele>
        <time>2009-10-31T14:45:55Z</time>
      </trkpt>
      <trkpt lat="45.26559" lon="5.2454">
        <ele>554.65600585938</ele>
        <time>2009-10-31T14:45:58Z</time>
      </trkpt>
      <trkpt lat="45.26556" lon="5.24515">
        <ele>552.73101806641</ele>
        <time>2009-10-31T14:46:00Z</time>
      </trkpt>
      <trkpt lat="45.26564" lon="5.24493">
        <ele>552.13201904297</ele>
        <time>2009-10-31T14:46:02Z</time>
      </trkpt>
      <trkpt lat="45.26577" lon="5.24442">
        <ele>549.90997314453</ele>
        <time>2009-10-31T14:46:07Z</time>
      </trkpt>
      <trkpt lat="45.26563" lon="5.24422">
        <ele>549.166015625</ele>
        <time>2009-10-31T14:46:09Z</time>
      </trkpt>
      <trkpt lat="45.26537" lon="5.24413">
        <ele>547.44000244141</ele>
        <time>2009-10-31T14:46:12Z</time>
      </trkpt>
      <trkpt lat="45.26499" lon="5.24393">
        <ele>544.23699951172</ele>
        <time>2009-10-31T14:46:17Z</time>
      </trkpt>
      <trkpt lat="45.26494" lon="5.24383">
        <ele>544.19897460938</ele>
        <time>2009-10-31T14:46:18Z</time>
      </trkpt>
      <trkpt lat="45.26489" lon="5.24346">
        <ele>542.90301513672</ele>
        <time>2009-10-31T14:46:21Z</time>
      </trkpt>
      <trkpt lat="45.265" lon="5.24319">
        <ele>541.11999511719</ele>
        <time>2009-10-31T14:46:24Z</time>
      </trkpt>
      <trkpt lat="45.26506" lon="5.24299">
        <ele>539.67297363281</ele>
        <time>2009-10-31T14:46:27Z</time>
      </trkpt>
      <trkpt lat="45.26498" lon="5.24292">
        <ele>539.07098388672</ele>
        <time>2009-10-31T14:46:30Z</time>
      </trkpt>
      <trkpt lat="45.26494" lon="5.24301">
        <ele>538.32202148438</ele>
        <time>2009-10-31T14:46:32Z</time>
      </trkpt>
      <trkpt lat="45.26484" lon="5.24324">
        <ele>537.86700439453</ele>
        <time>2009-10-31T14:46:36Z</time>
      </trkpt>
      <trkpt lat="45.26477" lon="5.24355">
        <ele>536.75598144531</ele>
        <time>2009-10-31T14:46:40Z</time>
      </trkpt>
      <trkpt lat="45.2648" lon="5.24372">
        <ele>536.60601806641</ele>
        <time>2009-10-31T14:46:42Z</time>
      </trkpt>
      <trkpt lat="45.26496" lon="5.2443">
        <ele>534.40698242188</ele>
        <time>2009-10-31T14:46:48Z</time>
      </trkpt>
      <trkpt lat="45.26503" lon="5.24451">
        <ele>533.16101074219</ele>
        <time>2009-10-31T14:46:50Z</time>
      </trkpt>
      <trkpt lat="45.26508" lon="5.24502">
        <ele>531.2490234375</ele>
        <time>2009-10-31T14:46:54Z</time>
      </trkpt>
      <trkpt lat="45.26519" lon="5.2457">
        <ele>529.15002441406</ele>
        <time>2009-10-31T14:46:59Z</time>
      </trkpt>
      <trkpt lat="45.26528" lon="5.24612">
        <ele>527.90502929688</ele>
        <time>2009-10-31T14:47:02Z</time>
      </trkpt>
      <trkpt lat="45.26532" lon="5.24703">
        <ele>523.59497070312</ele>
        <time>2009-10-31T14:47:08Z</time>
      </trkpt>
      <trkpt lat="45.26531" lon="5.24751">
        <ele>522.15100097656</ele>
        <time>2009-10-31T14:47:11Z</time>
      </trkpt>
      <trkpt lat="45.26531" lon="5.249">
        <ele>516.61102294922</ele>
        <time>2009-10-31T14:47:20Z</time>
      </trkpt>
      <trkpt lat="45.26531" lon="5.24934">
        <ele>516.43902587891</ele>
        <time>2009-10-31T14:47:22Z</time>
      </trkpt>
      <trkpt lat="45.26514" lon="5.24992">
        <ele>513.69702148438</ele>
        <time>2009-10-31T14:47:26Z</time>
      </trkpt>
      <trkpt lat="45.26495" lon="5.25014">
        <ele>511.34100341797</ele>
        <time>2009-10-31T14:47:29Z</time>
      </trkpt>
      <trkpt lat="45.26478" lon="5.25024">
        <ele>510.77200317383</ele>
        <time>2009-10-31T14:47:32Z</time>
      </trkpt>
      <trkpt lat="45.26458" lon="5.25015">
        <ele>510.56600952148</ele>
        <time>2009-10-31T14:47:36Z</time>
      </trkpt>
      <trkpt lat="45.26447" lon="5.25008">
        <ele>510.47500610352</ele>
        <time>2009-10-31T14:47:38Z</time>
      </trkpt>
      <trkpt lat="45.26422" lon="5.24998">
        <ele>510.23699951172</ele>
        <time>2009-10-31T14:47:42Z</time>
      </trkpt>
      <trkpt lat="45.26392" lon="5.24982">
        <ele>510.39001464844</ele>
        <time>2009-10-31T14:47:47Z</time>
      </trkpt>
      <trkpt lat="45.26369" lon="5.24962">
        <ele>510.45700073242</ele>
        <time>2009-10-31T14:47:51Z</time>
      </trkpt>
      <trkpt lat="45.26339" lon="5.24914">
        <ele>511.37200927734</ele>
        <time>2009-10-31T14:47:58Z</time>
      </trkpt>
      <trkpt lat="45.26322" lon="5.24885">
        <ele>513.08599853516</ele>
        <time>2009-10-31T14:48:03Z</time>
      </trkpt>
      <trkpt lat="45.26312" lon="5.24873">
        <ele>514.15600585938</ele>
        <time>2009-10-31T14:48:06Z</time>
      </trkpt>
      <trkpt lat="45.26284" lon="5.24856">
        <ele>516.20599365234</ele>
        <time>2009-10-31T14:48:13Z</time>
      </trkpt>
      <trkpt lat="45.26263" lon="5.24844">
        <ele>517.59899902344</ele>
        <time>2009-10-31T14:48:18Z</time>
      </trkpt>
      <trkpt lat="45.26248" lon="5.24829">
        <ele>518.55798339844</ele>
        <time>2009-10-31T14:48:22Z</time>
      </trkpt>
      <trkpt lat="45.26232" lon="5.2481">
        <ele>520.10302734375</ele>
        <time>2009-10-31T14:48:27Z</time>
      </trkpt>
      <trkpt lat="45.26218" lon="5.24795">
        <ele>521.29498291016</ele>
        <time>2009-10-31T14:48:31Z</time>
      </trkpt>
      <trkpt lat="45.26191" lon="5.24765">
        <ele>523.51599121094</ele>
        <time>2009-10-31T14:48:39Z</time>
      </trkpt>
      <trkpt lat="45.26163" lon="5.24738">
        <ele>525.39501953125</ele>
        <time>2009-10-31T14:48:47Z</time>
      </trkpt>
      <trkpt lat="45.26136" lon="5.24716">
        <ele>526.80700683594</ele>
        <time>2009-10-31T14:48:54Z</time>
      </trkpt>
      <trkpt lat="45.26107" lon="5.24691">
        <ele>528.24200439453</ele>
        <time>2009-10-31T14:49:01Z</time>
      </trkpt>
      <trkpt lat="45.26093" lon="5.24672">
        <ele>529.16400146484</ele>
        <time>2009-10-31T14:49:05Z</time>
      </trkpt>
      <trkpt lat="45.26077" lon="5.24637">
        <ele>529.39300537109</ele>
        <time>2009-10-31T14:49:11Z</time>
      </trkpt>
      <trkpt lat="45.26065" lon="5.2462">
        <ele>529.66198730469</ele>
        <time>2009-10-31T14:49:15Z</time>
      </trkpt>
      <trkpt lat="45.26059" lon="5.24611">
        <ele>529.23797607422</ele>
        <time>2009-10-31T14:49:18Z</time>
      </trkpt>
      <trkpt lat="45.2606" lon="5.24604">
        <ele>528.7509765625</ele>
        <time>2009-10-31T14:49:24Z</time>
      </trkpt>
      <trkpt lat="45.2606" lon="5.24604">
        <ele>528.65600585938</ele>
        <time>2009-10-31T14:49:30Z</time>
      </trkpt>
      <trkpt lat="45.26059" lon="5.24591">
        <ele>527.56298828125</ele>
        <time>2009-10-31T14:49:34Z</time>
      </trkpt>
      <trkpt lat="45.26058" lon="5.24584">
        <ele>526.96301269531</ele>
        <time>2009-10-31T14:49:35Z</time>
      </trkpt>
      <trkpt lat="45.2605" lon="5.24546">
        <ele>523.23602294922</ele>
        <time>2009-10-31T14:49:39Z</time>
      </trkpt>
      <trkpt lat="45.26043" lon="5.24505">
        <ele>519.44598388672</ele>
        <time>2009-10-31T14:49:43Z</time>
      </trkpt>
      <trkpt lat="45.26041" lon="5.24494">
        <ele>518.85998535156</ele>
        <time>2009-10-31T14:49:44Z</time>
      </trkpt>
      <trkpt lat="45.26025" lon="5.24445">
        <ele>515.92498779297</ele>
        <time>2009-10-31T14:49:48Z</time>
      </trkpt>
      <trkpt lat="45.26005" lon="5.24409">
        <ele>514.17297363281</ele>
        <time>2009-10-31T14:49:51Z</time>
      </trkpt>
      <trkpt lat="45.25982" lon="5.24377">
        <ele>513.13598632812</ele>
        <time>2009-10-31T14:49:54Z</time>
      </trkpt>
      <trkpt lat="45.25952" lon="5.24337">
        <ele>511.70498657227</ele>
        <time>2009-10-31T14:49:58Z</time>
      </trkpt>
      <trkpt lat="45.2594" lon="5.24322">
        <ele>510.90899658203</ele>
        <time>2009-10-31T14:50:00Z</time>
      </trkpt>
      <trkpt lat="45.25914" lon="5.24299">
        <ele>509.82800292969</ele>
        <time>2009-10-31T14:50:04Z</time>
      </trkpt>
      <trkpt lat="45.25895" lon="5.24289">
        <ele>508.46200561523</ele>
        <time>2009-10-31T14:50:08Z</time>
      </trkpt>
      <trkpt lat="45.25894" lon="5.24277">
        <ele>508.08999633789</ele>
        <time>2009-10-31T14:50:12Z</time>
      </trkpt>
      <trkpt lat="45.25895" lon="5.24259">
        <ele>507.32699584961</ele>
        <time>2009-10-31T14:50:16Z</time>
      </trkpt>
      <trkpt lat="45.25887" lon="5.24252">
        <ele>506.98901367188</ele>
        <time>2009-10-31T14:50:18Z</time>
      </trkpt>
      <trkpt lat="45.25863" lon="5.24218">
        <ele>504.20401000977</ele>
        <time>2009-10-31T14:50:24Z</time>
      </trkpt>
      <trkpt lat="45.25864" lon="5.24212">
        <ele>503.88900756836</ele>
        <time>2009-10-31T14:50:25Z</time>
      </trkpt>
      <trkpt lat="45.25858" lon="5.24194">
        <ele>502.64099121094</ele>
        <time>2009-10-31T14:50:28Z</time>
      </trkpt>
      <trkpt lat="45.25853" lon="5.24183">
        <ele>501.89801025391</ele>
        <time>2009-10-31T14:50:30Z</time>
      </trkpt>
      <trkpt lat="45.25849" lon="5.2417">
        <ele>500.44500732422</ele>
        <time>2009-10-31T14:50:34Z</time>
      </trkpt>
      <trkpt lat="45.25845" lon="5.24161">
        <ele>499.84100341797</ele>
        <time>2009-10-31T14:50:39Z</time>
      </trkpt>
      <trkpt lat="45.2584" lon="5.24156">
        <ele>499.38299560547</ele>
        <time>2009-10-31T14:50:43Z</time>
      </trkpt>
      <trkpt lat="45.25836" lon="5.24136">
        <ele>498.60299682617</ele>
        <time>2009-10-31T14:50:51Z</time>
      </trkpt>
      <trkpt lat="45.25827" lon="5.24124">
        <ele>498.03500366211</ele>
        <time>2009-10-31T14:50:56Z</time>
      </trkpt>
      <trkpt lat="45.25825" lon="5.24124">
        <ele>498.0719909668</ele>
        <time>2009-10-31T14:50:57Z</time>
      </trkpt>
      <trkpt lat="45.25817" lon="5.24123">
        <ele>497.87799072266</ele>
        <time>2009-10-31T14:51:01Z</time>
      </trkpt>
      <trkpt lat="45.25802" lon="5.24135">
        <ele>498.24301147461</ele>
        <time>2009-10-31T14:51:07Z</time>
      </trkpt>
      <trkpt lat="45.25795" lon="5.24152">
        <ele>498.25500488281</ele>
        <time>2009-10-31T14:51:12Z</time>
      </trkpt>
      <trkpt lat="45.25785" lon="5.24173">
        <ele>498.11801147461</ele>
        <time>2009-10-31T14:51:19Z</time>
      </trkpt>
      <trkpt lat="45.25768" lon="5.24194">
        <ele>498.1960144043</ele>
        <time>2009-10-31T14:51:28Z</time>
      </trkpt>
      <trkpt lat="45.25755" lon="5.24209">
        <ele>498.14898681641</ele>
        <time>2009-10-31T14:51:34Z</time>
      </trkpt>
      <trkpt lat="45.25745" lon="5.24223">
        <ele>497.93301391602</ele>
        <time>2009-10-31T14:51:39Z</time>
      </trkpt>
      <trkpt lat="45.25729" lon="5.24239">
        <ele>498.26501464844</ele>
        <time>2009-10-31T14:51:45Z</time>
      </trkpt>
      <trkpt lat="45.25714" lon="5.24258">
        <ele>498.28900146484</ele>
        <time>2009-10-31T14:51:50Z</time>
      </trkpt>
      <trkpt lat="45.25705" lon="5.24271">
        <ele>498.55599975586</ele>
        <time>2009-10-31T14:51:53Z</time>
      </trkpt>
      <trkpt lat="45.25691" lon="5.24287">
        <ele>498.17098999023</ele>
        <time>2009-10-31T14:51:57Z</time>
      </trkpt>
      <trkpt lat="45.25661" lon="5.24326">
        <ele>498.6780090332</ele>
        <time>2009-10-31T14:52:06Z</time>
      </trkpt>
      <trkpt lat="45.25629" lon="5.24364">
        <ele>499.23199462891</ele>
        <time>2009-10-31T14:52:15Z</time>
      </trkpt>
      <trkpt lat="45.25596" lon="5.24399">
        <ele>500.16598510742</ele>
        <time>2009-10-31T14:52:24Z</time>
      </trkpt>
      <trkpt lat="45.25584" lon="5.24407">
        <ele>500.73599243164</ele>
        <time>2009-10-31T14:52:27Z</time>
      </trkpt>
      <trkpt lat="45.25549" lon="5.24423">
        <ele>501.81399536133</ele>
        <time>2009-10-31T14:52:35Z</time>
      </trkpt>
      <trkpt lat="45.25515" lon="5.2444">
        <ele>502.29501342773</ele>
        <time>2009-10-31T14:52:42Z</time>
      </trkpt>
      <trkpt lat="45.25477" lon="5.24458">
        <ele>502.89599609375</ele>
        <time>2009-10-31T14:52:50Z</time>
      </trkpt>
      <trkpt lat="45.2546" lon="5.24466">
        <ele>503.29699707031</ele>
        <time>2009-10-31T14:52:54Z</time>
      </trkpt>
      <trkpt lat="45.25438" lon="5.24465">
        <ele>503.9880065918</ele>
        <time>2009-10-31T14:52:59Z</time>
      </trkpt>
      <trkpt lat="45.25436" lon="5.24449">
        <ele>504.53100585938</ele>
        <time>2009-10-31T14:53:02Z</time>
      </trkpt>
      <trkpt lat="45.25436" lon="5.24444">
        <ele>504.61898803711</ele>
        <time>2009-10-31T14:53:03Z</time>
      </trkpt>
      <trkpt lat="45.25443" lon="5.24403">
        <ele>507.12100219727</ele>
        <time>2009-10-31T14:53:11Z</time>
      </trkpt>
      <trkpt lat="45.25446" lon="5.24381">
        <ele>508.78799438477</ele>
        <time>2009-10-31T14:53:16Z</time>
      </trkpt>
      <trkpt lat="45.25452" lon="5.2435">
        <ele>511.19198608398</ele>
        <time>2009-10-31T14:53:24Z</time>
      </trkpt>
      <trkpt lat="45.25455" lon="5.24343">
        <ele>511.90701293945</ele>
        <time>2009-10-31T14:53:26Z</time>
      </trkpt>
      <trkpt lat="45.25468" lon="5.24318">
        <ele>514.25</ele>
        <time>2009-10-31T14:53:34Z</time>
      </trkpt>
      <trkpt lat="45.25483" lon="5.24299">
        <ele>515.958984375</ele>
        <time>2009-10-31T14:53:41Z</time>
      </trkpt>
      <trkpt lat="45.25496" lon="5.24281">
        <ele>518.13800048828</ele>
        <time>2009-10-31T14:53:48Z</time>
      </trkpt>
      <trkpt lat="45.25507" lon="5.24258">
        <ele>519.791015625</ele>
        <time>2009-10-31T14:53:55Z</time>
      </trkpt>
      <trkpt lat="45.25514" lon="5.24234">
        <ele>521.96301269531</ele>
        <time>2009-10-31T14:54:02Z</time>
      </trkpt>
      <trkpt lat="45.25526" lon="5.24203">
        <ele>523.96398925781</ele>
        <time>2009-10-31T14:54:11Z</time>
      </trkpt>
      <trkpt lat="45.25541" lon="5.24168">
        <ele>526.41998291016</ele>
        <time>2009-10-31T14:54:21Z</time>
      </trkpt>
      <trkpt lat="45.2555" lon="5.24142">
        <ele>527.85797119141</ele>
        <time>2009-10-31T14:54:28Z</time>
      </trkpt>
      <trkpt lat="45.25556" lon="5.24122">
        <ele>529.16497802734</ele>
        <time>2009-10-31T14:54:33Z</time>
      </trkpt>
      <trkpt lat="45.25558" lon="5.24101">
        <ele>530.16302490234</ele>
        <time>2009-10-31T14:54:38Z</time>
      </trkpt>
      <trkpt lat="45.25546" lon="5.24093">
        <ele>531.80200195312</ele>
        <time>2009-10-31T14:54:43Z</time>
      </trkpt>
      <trkpt lat="45.25533" lon="5.24097">
        <ele>533.05401611328</ele>
        <time>2009-10-31T14:54:48Z</time>
      </trkpt>
      <trkpt lat="45.25514" lon="5.24105">
        <ele>534.61798095703</ele>
        <time>2009-10-31T14:54:55Z</time>
      </trkpt>
      <trkpt lat="45.25492" lon="5.24115">
        <ele>536.55102539062</ele>
        <time>2009-10-31T14:55:03Z</time>
      </trkpt>
      <trkpt lat="45.25477" lon="5.24124">
        <ele>537.86602783203</ele>
        <time>2009-10-31T14:55:09Z</time>
      </trkpt>
      <trkpt lat="45.25463" lon="5.24133">
        <ele>539.36798095703</ele>
        <time>2009-10-31T14:55:16Z</time>
      </trkpt>
      <trkpt lat="45.25451" lon="5.24146">
        <ele>540.89001464844</ele>
        <time>2009-10-31T14:55:22Z</time>
      </trkpt>
      <trkpt lat="45.25441" lon="5.24159">
        <ele>542.57702636719</ele>
        <time>2009-10-31T14:55:28Z</time>
      </trkpt>
      <trkpt lat="45.2543" lon="5.24175">
        <ele>545.1240234375</ele>
        <time>2009-10-31T14:55:35Z</time>
      </trkpt>
      <trkpt lat="45.25415" lon="5.24187">
        <ele>547.57299804688</ele>
        <time>2009-10-31T14:55:42Z</time>
      </trkpt>
      <trkpt lat="45.25399" lon="5.24199">
        <ele>550.52801513672</ele>
        <time>2009-10-31T14:55:50Z</time>
      </trkpt>
      <trkpt lat="45.25383" lon="5.24208">
        <ele>553.01898193359</ele>
        <time>2009-10-31T14:55:58Z</time>
      </trkpt>
      <trkpt lat="45.2537" lon="5.24214">
        <ele>555.03900146484</ele>
        <time>2009-10-31T14:56:04Z</time>
      </trkpt>
      <trkpt lat="45.25352" lon="5.2422">
        <ele>557.38299560547</ele>
        <time>2009-10-31T14:56:12Z</time>
      </trkpt>
      <trkpt lat="45.25337" lon="5.24224">
        <ele>559.34497070312</ele>
        <time>2009-10-31T14:56:19Z</time>
      </trkpt>
      <trkpt lat="45.25317" lon="5.24233">
        <ele>561.73498535156</ele>
        <time>2009-10-31T14:56:28Z</time>
      </trkpt>
      <trkpt lat="45.25301" lon="5.24237">
        <ele>563.16802978516</ele>
        <time>2009-10-31T14:56:35Z</time>
      </trkpt>
      <trkpt lat="45.25286" lon="5.24232">
        <ele>564.75299072266</ele>
        <time>2009-10-31T14:56:42Z</time>
      </trkpt>
      <trkpt lat="45.25272" lon="5.24216">
        <ele>567.26397705078</ele>
        <time>2009-10-31T14:56:50Z</time>
      </trkpt>
      <trkpt lat="45.25262" lon="5.24198">
        <ele>569.27801513672</ele>
        <time>2009-10-31T14:56:57Z</time>
      </trkpt>
      <trkpt lat="45.25261" lon="5.24189">
        <ele>570.28399658203</ele>
        <time>2009-10-31T14:56:59Z</time>
      </trkpt>
      <trkpt lat="45.25272" lon="5.24161">
        <ele>573.44396972656</ele>
        <time>2009-10-31T14:57:04Z</time>
      </trkpt>
      <trkpt lat="45.25275" lon="5.24157">
        <ele>573.74597167969</ele>
        <time>2009-10-31T14:57:05Z</time>
      </trkpt>
      <trkpt lat="45.25292" lon="5.24121">
        <ele>576.46002197266</ele>
        <time>2009-10-31T14:57:13Z</time>
      </trkpt>
      <trkpt lat="45.25301" lon="5.24086">
        <ele>578.61297607422</ele>
        <time>2009-10-31T14:57:20Z</time>
      </trkpt>
      <trkpt lat="45.25308" lon="5.24057">
        <ele>580.1259765625</ele>
        <time>2009-10-31T14:57:27Z</time>
      </trkpt>
      <trkpt lat="45.25301" lon="5.24038">
        <ele>582.16998291016</ele>
        <time>2009-10-31T14:57:33Z</time>
      </trkpt>
      <trkpt lat="45.25291" lon="5.24014">
        <ele>584.82098388672</ele>
        <time>2009-10-31T14:57:41Z</time>
      </trkpt>
      <trkpt lat="45.25284" lon="5.23988">
        <ele>587.05102539062</ele>
        <time>2009-10-31T14:57:49Z</time>
      </trkpt>
      <trkpt lat="45.25287" lon="5.23973">
        <ele>588.23400878906</ele>
        <time>2009-10-31T14:57:54Z</time>
      </trkpt>
      <trkpt lat="45.25299" lon="5.23951">
        <ele>589.86798095703</ele>
        <time>2009-10-31T14:58:00Z</time>
      </trkpt>
      <trkpt lat="45.25317" lon="5.23928">
        <ele>590.07598876953</ele>
        <time>2009-10-31T14:58:07Z</time>
      </trkpt>
      <trkpt lat="45.25322" lon="5.2392">
        <ele>590.05700683594</ele>
        <time>2009-10-31T14:58:09Z</time>
      </trkpt>
      <trkpt lat="45.25331" lon="5.23899">
        <ele>589.85400390625</ele>
        <time>2009-10-31T14:58:13Z</time>
      </trkpt>
      <trkpt lat="45.25333" lon="5.23853">
        <ele>590.56402587891</ele>
        <time>2009-10-31T14:58:21Z</time>
      </trkpt>
      <trkpt lat="45.25322" lon="5.23831">
        <ele>590.82800292969</ele>
        <time>2009-10-31T14:58:26Z</time>
      </trkpt>
      <trkpt lat="45.25315" lon="5.23827">
        <ele>591.67999267578</ele>
        <time>2009-10-31T14:58:28Z</time>
      </trkpt>
      <trkpt lat="45.25289" lon="5.23823">
        <ele>594.21899414062</ele>
        <time>2009-10-31T14:58:35Z</time>
      </trkpt>
      <trkpt lat="45.25264" lon="5.23825">
        <ele>596.13098144531</ele>
        <time>2009-10-31T14:58:41Z</time>
      </trkpt>
      <trkpt lat="45.2524" lon="5.23829">
        <ele>598.07299804688</ele>
        <time>2009-10-31T14:58:46Z</time>
      </trkpt>
      <trkpt lat="45.2523" lon="5.23831">
        <ele>598.98602294922</ele>
        <time>2009-10-31T14:58:48Z</time>
      </trkpt>
      <trkpt lat="45.25209" lon="5.23834">
        <ele>601.28698730469</ele>
        <time>2009-10-31T14:58:53Z</time>
      </trkpt>
      <trkpt lat="45.25187" lon="5.2384">
        <ele>603.42797851562</ele>
        <time>2009-10-31T14:58:59Z</time>
      </trkpt>
      <trkpt lat="45.25169" lon="5.23846">
        <ele>604.50402832031</ele>
        <time>2009-10-31T14:59:04Z</time>
      </trkpt>
      <trkpt lat="45.25154" lon="5.23853">
        <ele>605.88897705078</ele>
        <time>2009-10-31T14:59:09Z</time>
      </trkpt>
      <trkpt lat="45.25132" lon="5.23863">
        <ele>607.10302734375</ele>
        <time>2009-10-31T14:59:16Z</time>
      </trkpt>
      <trkpt lat="45.25112" lon="5.23877">
        <ele>608.00299072266</ele>
        <time>2009-10-31T14:59:23Z</time>
      </trkpt>
      <trkpt lat="45.25093" lon="5.23886">
        <ele>608.28302001953</ele>
        <time>2009-10-31T14:59:29Z</time>
      </trkpt>
      <trkpt lat="45.25069" lon="5.23887">
        <ele>609.12799072266</ele>
        <time>2009-10-31T14:59:36Z</time>
      </trkpt>
      <trkpt lat="45.2504" lon="5.23891">
        <ele>610.12902832031</ele>
        <time>2009-10-31T14:59:44Z</time>
      </trkpt>
      <trkpt lat="45.25013" lon="5.239">
        <ele>611.46801757812</ele>
        <time>2009-10-31T14:59:52Z</time>
      </trkpt>
      <trkpt lat="45.24976" lon="5.23907">
        <ele>612.67700195312</ele>
        <time>2009-10-31T15:00:02Z</time>
      </trkpt>
      <trkpt lat="45.24959" lon="5.23894">
        <ele>612.96398925781</ele>
        <time>2009-10-31T15:00:07Z</time>
      </trkpt>
      <trkpt lat="45.24951" lon="5.2387">
        <ele>613.4990234375</ele>
        <time>2009-10-31T15:00:12Z</time>
      </trkpt>
      <trkpt lat="45.24949" lon="5.23858">
        <ele>613.5830078125</ele>
        <time>2009-10-31T15:00:14Z</time>
      </trkpt>
      <trkpt lat="45.2494" lon="5.23831">
        <ele>613.78399658203</ele>
        <time>2009-10-31T15:00:19Z</time>
      </trkpt>
      <trkpt lat="45.24934" lon="5.23814">
        <ele>614.05297851562</ele>
        <time>2009-10-31T15:00:22Z</time>
      </trkpt>
      <trkpt lat="45.24918" lon="5.23772">
        <ele>614.97698974609</ele>
        <time>2009-10-31T15:00:30Z</time>
      </trkpt>
      <trkpt lat="45.249" lon="5.23723">
        <ele>616.03900146484</ele>
        <time>2009-10-31T15:00:39Z</time>
      </trkpt>
      <trkpt lat="45.24884" lon="5.23674">
        <ele>615.80902099609</ele>
        <time>2009-10-31T15:00:47Z</time>
      </trkpt>
      <trkpt lat="45.24873" lon="5.23634">
        <ele>615.69396972656</ele>
        <time>2009-10-31T15:00:53Z</time>
      </trkpt>
      <trkpt lat="45.24858" lon="5.23582">
        <ele>615.77697753906</ele>
        <time>2009-10-31T15:01:01Z</time>
      </trkpt>
      <trkpt lat="45.24841" lon="5.23542">
        <ele>615.75598144531</ele>
        <time>2009-10-31T15:01:07Z</time>
      </trkpt>
      <trkpt lat="45.24805" lon="5.2347">
        <ele>614.62200927734</ele>
        <time>2009-10-31T15:01:17Z</time>
      </trkpt>
      <trkpt lat="45.24786" lon="5.23428">
        <ele>614.41400146484</ele>
        <time>2009-10-31T15:01:23Z</time>
      </trkpt>
      <trkpt lat="45.24755" lon="5.23383">
        <ele>613.10101318359</ele>
        <time>2009-10-31T15:01:30Z</time>
      </trkpt>
      <trkpt lat="45.24744" lon="5.23371">
        <ele>612.50402832031</ele>
        <time>2009-10-31T15:01:32Z</time>
      </trkpt>
      <trkpt lat="45.24726" lon="5.23337">
        <ele>611.28698730469</ele>
        <time>2009-10-31T15:01:36Z</time>
      </trkpt>
      <trkpt lat="45.24721" lon="5.23316">
        <ele>610.73699951172</ele>
        <time>2009-10-31T15:01:38Z</time>
      </trkpt>
      <trkpt lat="45.24709" lon="5.2324">
        <ele>610.07299804688</ele>
        <time>2009-10-31T15:01:45Z</time>
      </trkpt>
      <trkpt lat="45.24714" lon="5.2319">
        <ele>609.21398925781</ele>
        <time>2009-10-31T15:01:50Z</time>
      </trkpt>
      <trkpt lat="45.24722" lon="5.23161">
        <ele>610.59600830078</ele>
        <time>2009-10-31T15:01:54Z</time>
      </trkpt>
      <trkpt lat="45.24734" lon="5.23126">
        <ele>611.44799804688</ele>
        <time>2009-10-31T15:01:59Z</time>
      </trkpt>
      <trkpt lat="45.24743" lon="5.23104">
        <ele>610.99200439453</ele>
        <time>2009-10-31T15:02:02Z</time>
      </trkpt>
      <trkpt lat="45.24761" lon="5.23044">
        <ele>610.16198730469</ele>
        <time>2009-10-31T15:02:09Z</time>
      </trkpt>
      <trkpt lat="45.24782" lon="5.2297">
        <ele>608.26599121094</ele>
        <time>2009-10-31T15:02:17Z</time>
      </trkpt>
      <trkpt lat="45.24804" lon="5.22891">
        <ele>607.86700439453</ele>
        <time>2009-10-31T15:02:26Z</time>
      </trkpt>
      <trkpt lat="45.24822" lon="5.22829">
        <ele>606.96197509766</ele>
        <time>2009-10-31T15:02:33Z</time>
      </trkpt>
      <trkpt lat="45.24845" lon="5.22791">
        <ele>606.02099609375</ele>
        <time>2009-10-31T15:02:38Z</time>
      </trkpt>
      <trkpt lat="45.24871" lon="5.22755">
        <ele>602.98498535156</ele>
        <time>2009-10-31T15:02:43Z</time>
      </trkpt>
      <trkpt lat="45.24889" lon="5.22743">
        <ele>601.52697753906</ele>
        <time>2009-10-31T15:02:46Z</time>
      </trkpt>
      <trkpt lat="45.249" lon="5.22739">
        <ele>600.38702392578</ele>
        <time>2009-10-31T15:02:48Z</time>
      </trkpt>
      <trkpt lat="45.24913" lon="5.2273">
        <ele>598.95098876953</ele>
        <time>2009-10-31T15:02:53Z</time>
      </trkpt>
      <trkpt lat="45.24914" lon="5.2273">
        <ele>598.89398193359</ele>
        <time>2009-10-31T15:02:58Z</time>
      </trkpt>
      <trkpt lat="45.24914" lon="5.2273">
        <ele>598.71099853516</ele>
        <time>2009-10-31T15:03:04Z</time>
      </trkpt>
      <trkpt lat="45.24914" lon="5.22733">
        <ele>598.61102294922</ele>
        <time>2009-10-31T15:03:40Z</time>
      </trkpt>
      <trkpt lat="45.24914" lon="5.22734">
        <ele>598.91802978516</ele>
        <time>2009-10-31T15:03:54Z</time>
      </trkpt>
      <trkpt lat="45.24914" lon="5.22734">
        <ele>598.78698730469</ele>
        <time>2009-10-31T15:04:16Z</time>
      </trkpt>
      <trkpt lat="45.24914" lon="5.22734">
        <ele>598.96002197266</ele>
        <time>2009-10-31T15:04:19Z</time>
      </trkpt>
      <trkpt lat="45.24913" lon="5.22734">
        <ele>598.98797607422</ele>
        <time>2009-10-31T15:04:33Z</time>
      </trkpt>
      <trkpt lat="45.24913" lon="5.22735">
        <ele>598.79797363281</ele>
        <time>2009-10-31T15:04:45Z</time>
      </trkpt>
      <trkpt lat="45.24913" lon="5.22735">
        <ele>598.78002929688</ele>
        <time>2009-10-31T15:05:01Z</time>
      </trkpt>
      <trkpt lat="45.24918" lon="5.22729">
        <ele>598.63098144531</ele>
        <time>2009-10-31T15:05:20Z</time>
      </trkpt>
      <trkpt lat="45.24929" lon="5.22712">
        <ele>598.28698730469</ele>
        <time>2009-10-31T15:05:24Z</time>
      </trkpt>
      <trkpt lat="45.24947" lon="5.22679">
        <ele>596.00402832031</ele>
        <time>2009-10-31T15:05:29Z</time>
      </trkpt>
      <trkpt lat="45.24955" lon="5.22663">
        <ele>594.96398925781</ele>
        <time>2009-10-31T15:05:31Z</time>
      </trkpt>
      <trkpt lat="45.24979" lon="5.22598">
        <ele>593.64501953125</ele>
        <time>2009-10-31T15:05:38Z</time>
      </trkpt>
      <trkpt lat="45.25005" lon="5.22564">
        <ele>592.85998535156</ele>
        <time>2009-10-31T15:05:43Z</time>
      </trkpt>
      <trkpt lat="45.25011" lon="5.22558">
        <ele>592.71801757812</ele>
        <time>2009-10-31T15:05:44Z</time>
      </trkpt>
      <trkpt lat="45.25029" lon="5.22532">
        <ele>592.86901855469</ele>
        <time>2009-10-31T15:05:48Z</time>
      </trkpt>
      <trkpt lat="45.2505" lon="5.22477">
        <ele>592.94299316406</ele>
        <time>2009-10-31T15:05:55Z</time>
      </trkpt>
      <trkpt lat="45.25061" lon="5.22437">
        <ele>593.95001220703</ele>
        <time>2009-10-31T15:06:00Z</time>
      </trkpt>
      <trkpt lat="45.25077" lon="5.22366">
        <ele>595.46899414062</ele>
        <time>2009-10-31T15:06:09Z</time>
      </trkpt>
      <trkpt lat="45.25082" lon="5.22342">
        <ele>595.35400390625</ele>
        <time>2009-10-31T15:06:12Z</time>
      </trkpt>
      <trkpt lat="45.251" lon="5.22273">
        <ele>595.06799316406</ele>
        <time>2009-10-31T15:06:20Z</time>
      </trkpt>
      <trkpt lat="45.25113" lon="5.22197">
        <ele>594.32702636719</ele>
        <time>2009-10-31T15:06:28Z</time>
      </trkpt>
      <trkpt lat="45.25129" lon="5.22139">
        <ele>593.60101318359</ele>
        <time>2009-10-31T15:06:34Z</time>
      </trkpt>
      <trkpt lat="45.25156" lon="5.22094">
        <ele>591.21002197266</ele>
        <time>2009-10-31T15:06:39Z</time>
      </trkpt>
      <trkpt lat="45.25201" lon="5.22034">
        <ele>588.41101074219</ele>
        <time>2009-10-31T15:06:46Z</time>
      </trkpt>
      <trkpt lat="45.25208" lon="5.22025">
        <ele>587.55999755859</ele>
        <time>2009-10-31T15:06:47Z</time>
      </trkpt>
      <trkpt lat="45.25216" lon="5.21998">
        <ele>586.02801513672</ele>
        <time>2009-10-31T15:06:50Z</time>
      </trkpt>
      <trkpt lat="45.25209" lon="5.2198">
        <ele>585.3759765625</ele>
        <time>2009-10-31T15:06:52Z</time>
      </trkpt>
      <trkpt lat="45.25203" lon="5.21973">
        <ele>584.98999023438</ele>
        <time>2009-10-31T15:06:53Z</time>
      </trkpt>
      <trkpt lat="45.25155" lon="5.21918">
        <ele>583.55102539062</ele>
        <time>2009-10-31T15:07:00Z</time>
      </trkpt>
      <trkpt lat="45.25142" lon="5.219">
        <ele>583.5419921875</ele>
        <time>2009-10-31T15:07:02Z</time>
      </trkpt>
      <trkpt lat="45.25126" lon="5.21858">
        <ele>583.01300048828</ele>
        <time>2009-10-31T15:07:06Z</time>
      </trkpt>
      <trkpt lat="45.25125" lon="5.21847">
        <ele>583.28802490234</ele>
        <time>2009-10-31T15:07:07Z</time>
      </trkpt>
      <trkpt lat="45.25121" lon="5.21812">
        <ele>582.58502197266</ele>
        <time>2009-10-31T15:07:10Z</time>
      </trkpt>
      <trkpt lat="45.25106" lon="5.21769">
        <ele>581.41198730469</ele>
        <time>2009-10-31T15:07:14Z</time>
      </trkpt>
      <trkpt lat="45.25098" lon="5.21751">
        <ele>580.40301513672</ele>
        <time>2009-10-31T15:07:16Z</time>
      </trkpt>
      <trkpt lat="45.25099" lon="5.21714">
        <ele>579.34399414062</ele>
        <time>2009-10-31T15:07:20Z</time>
      </trkpt>
      <trkpt lat="45.25103" lon="5.21643">
        <ele>577.34497070312</ele>
        <time>2009-10-31T15:07:27Z</time>
      </trkpt>
      <trkpt lat="45.25113" lon="5.21596">
        <ele>577.49401855469</ele>
        <time>2009-10-31T15:07:32Z</time>
      </trkpt>
      <trkpt lat="45.25129" lon="5.2156">
        <ele>576.81500244141</ele>
        <time>2009-10-31T15:07:36Z</time>
      </trkpt>
      <trkpt lat="45.25141" lon="5.21517">
        <ele>576.27899169922</ele>
        <time>2009-10-31T15:07:40Z</time>
      </trkpt>
      <trkpt lat="45.25148" lon="5.21416">
        <ele>576.26000976562</ele>
        <time>2009-10-31T15:07:49Z</time>
      </trkpt>
      <trkpt lat="45.25146" lon="5.21373">
        <ele>576.05798339844</ele>
        <time>2009-10-31T15:07:53Z</time>
      </trkpt>
      <trkpt lat="45.25136" lon="5.21329">
        <ele>575.24298095703</ele>
        <time>2009-10-31T15:07:57Z</time>
      </trkpt>
      <trkpt lat="45.251" lon="5.21234">
        <ele>575.60498046875</ele>
        <time>2009-10-31T15:08:06Z</time>
      </trkpt>
      <trkpt lat="45.25076" lon="5.21175">
        <ele>577.07202148438</ele>
        <time>2009-10-31T15:08:13Z</time>
      </trkpt>
      <trkpt lat="45.25064" lon="5.21153">
        <ele>577.48999023438</ele>
        <time>2009-10-31T15:08:16Z</time>
      </trkpt>
      <trkpt lat="45.25026" lon="5.21097">
        <ele>576.37298583984</ele>
        <time>2009-10-31T15:08:25Z</time>
      </trkpt>
      <trkpt lat="45.24987" lon="5.21043">
        <ele>575.51397705078</ele>
        <time>2009-10-31T15:08:33Z</time>
      </trkpt>
      <trkpt lat="45.2496" lon="5.21001">
        <ele>574.82299804688</ele>
        <time>2009-10-31T15:08:39Z</time>
      </trkpt>
      <trkpt lat="45.24929" lon="5.20949">
        <ele>573.72802734375</ele>
        <time>2009-10-31T15:08:46Z</time>
      </trkpt>
      <trkpt lat="45.24915" lon="5.20923">
        <ele>573.18200683594</ele>
        <time>2009-10-31T15:08:49Z</time>
      </trkpt>
      <trkpt lat="45.24888" lon="5.20866">
        <ele>571.06298828125</ele>
        <time>2009-10-31T15:08:55Z</time>
      </trkpt>
      <trkpt lat="45.24864" lon="5.20794">
        <ele>568.81097412109</ele>
        <time>2009-10-31T15:09:01Z</time>
      </trkpt>
      <trkpt lat="45.24846" lon="5.2073">
        <ele>568.86102294922</ele>
        <time>2009-10-31T15:09:06Z</time>
      </trkpt>
      <trkpt lat="45.24824" lon="5.20661">
        <ele>566.40899658203</ele>
        <time>2009-10-31T15:09:12Z</time>
      </trkpt>
      <trkpt lat="45.24805" lon="5.20602">
        <ele>565.19598388672</ele>
        <time>2009-10-31T15:09:17Z</time>
      </trkpt>
      <trkpt lat="45.24778" lon="5.20521">
        <ele>563.61999511719</ele>
        <time>2009-10-31T15:09:24Z</time>
      </trkpt>
      <trkpt lat="45.24751" lon="5.20446">
        <ele>562.66998291016</ele>
        <time>2009-10-31T15:09:31Z</time>
      </trkpt>
      <trkpt lat="45.24737" lon="5.20405">
        <ele>562.27502441406</ele>
        <time>2009-10-31T15:09:35Z</time>
      </trkpt>
      <trkpt lat="45.24722" lon="5.20361">
        <ele>561.95300292969</ele>
        <time>2009-10-31T15:09:39Z</time>
      </trkpt>
      <trkpt lat="45.24718" lon="5.2035">
        <ele>561.64801025391</ele>
        <time>2009-10-31T15:09:40Z</time>
      </trkpt>
      <trkpt lat="45.24714" lon="5.20338">
        <ele>561.51898193359</ele>
        <time>2009-10-31T15:09:41Z</time>
      </trkpt>
      <trkpt lat="45.2471" lon="5.20276">
        <ele>560.61999511719</ele>
        <time>2009-10-31T15:09:45Z</time>
      </trkpt>
      <trkpt lat="45.24714" lon="5.20262">
        <ele>560.48797607422</ele>
        <time>2009-10-31T15:09:46Z</time>
      </trkpt>
      <trkpt lat="45.24744" lon="5.20174">
        <ele>558.45202636719</ele>
        <time>2009-10-31T15:09:53Z</time>
      </trkpt>
      <trkpt lat="45.24762" lon="5.20121">
        <ele>556.69799804688</ele>
        <time>2009-10-31T15:09:57Z</time>
      </trkpt>
      <trkpt lat="45.24798" lon="5.20012">
        <ele>554.74700927734</ele>
        <time>2009-10-31T15:10:05Z</time>
      </trkpt>
      <trkpt lat="45.24822" lon="5.19934">
        <ele>555.22900390625</ele>
        <time>2009-10-31T15:10:11Z</time>
      </trkpt>
      <trkpt lat="45.24829" lon="5.19868">
        <ele>554.32598876953</ele>
        <time>2009-10-31T15:10:16Z</time>
      </trkpt>
      <trkpt lat="45.2483" lon="5.1978">
        <ele>552.40600585938</ele>
        <time>2009-10-31T15:10:22Z</time>
      </trkpt>
      <trkpt lat="45.24822" lon="5.19736">
        <ele>550.62097167969</ele>
        <time>2009-10-31T15:10:25Z</time>
      </trkpt>
      <trkpt lat="45.24802" lon="5.19695">
        <ele>549.72497558594</ele>
        <time>2009-10-31T15:10:28Z</time>
      </trkpt>
      <trkpt lat="45.24812" lon="5.19656">
        <ele>550.10101318359</ele>
        <time>2009-10-31T15:10:31Z</time>
      </trkpt>
      <trkpt lat="45.24833" lon="5.19648">
        <ele>550.89599609375</ele>
        <time>2009-10-31T15:10:33Z</time>
      </trkpt>
      <trkpt lat="45.24841" lon="5.19644">
        <ele>551.75201416016</ele>
        <time>2009-10-31T15:10:34Z</time>
      </trkpt>
      <trkpt lat="45.24874" lon="5.19624">
        <ele>553.74200439453</ele>
        <time>2009-10-31T15:10:39Z</time>
      </trkpt>
      <trkpt lat="45.249" lon="5.19596">
        <ele>554.1240234375</ele>
        <time>2009-10-31T15:10:44Z</time>
      </trkpt>
      <trkpt lat="45.24929" lon="5.1954">
        <ele>553.89001464844</ele>
        <time>2009-10-31T15:10:51Z</time>
      </trkpt>
      <trkpt lat="45.24959" lon="5.19468">
        <ele>553.2919921875</ele>
        <time>2009-10-31T15:10:59Z</time>
      </trkpt>
      <trkpt lat="45.24963" lon="5.19458">
        <ele>553.17797851562</ele>
        <time>2009-10-31T15:11:00Z</time>
      </trkpt>
      <trkpt lat="45.24971" lon="5.19402">
        <ele>552.86401367188</ele>
        <time>2009-10-31T15:11:05Z</time>
      </trkpt>
      <trkpt lat="45.24977" lon="5.19308">
        <ele>552.97998046875</ele>
        <time>2009-10-31T15:11:13Z</time>
      </trkpt>
      <trkpt lat="45.24982" lon="5.19228">
        <ele>551.62902832031</ele>
        <time>2009-10-31T15:11:19Z</time>
      </trkpt>
      <trkpt lat="45.24987" lon="5.19201">
        <ele>550.99798583984</ele>
        <time>2009-10-31T15:11:21Z</time>
      </trkpt>
      <trkpt lat="45.24995" lon="5.19174">
        <ele>550.51202392578</ele>
        <time>2009-10-31T15:11:23Z</time>
      </trkpt>
      <trkpt lat="45.25038" lon="5.19063">
        <ele>546.44897460938</ele>
        <time>2009-10-31T15:11:31Z</time>
      </trkpt>
      <trkpt lat="45.25066" lon="5.18987">
        <ele>543.56500244141</ele>
        <time>2009-10-31T15:11:36Z</time>
      </trkpt>
      <trkpt lat="45.25091" lon="5.18904">
        <ele>540.20300292969</ele>
        <time>2009-10-31T15:11:41Z</time>
      </trkpt>
      <trkpt lat="45.25107" lon="5.18836">
        <ele>538.90502929688</ele>
        <time>2009-10-31T15:11:45Z</time>
      </trkpt>
      <trkpt lat="45.25105" lon="5.18772">
        <ele>540.05902099609</ele>
        <time>2009-10-31T15:11:49Z</time>
      </trkpt>
      <trkpt lat="45.2508" lon="5.18647">
        <ele>540.09899902344</ele>
        <time>2009-10-31T15:11:58Z</time>
      </trkpt>
      <trkpt lat="45.25062" lon="5.18544">
        <ele>540.29400634766</ele>
        <time>2009-10-31T15:12:06Z</time>
      </trkpt>
      <trkpt lat="45.25047" lon="5.18457">
        <ele>541.81298828125</ele>
        <time>2009-10-31T15:12:13Z</time>
      </trkpt>
      <trkpt lat="45.25029" lon="5.18362">
        <ele>542.24499511719</ele>
        <time>2009-10-31T15:12:20Z</time>
      </trkpt>
      <trkpt lat="45.25007" lon="5.18244">
        <ele>541.14300537109</ele>
        <time>2009-10-31T15:12:29Z</time>
      </trkpt>
      <trkpt lat="45.24994" lon="5.18168">
        <ele>541.17401123047</ele>
        <time>2009-10-31T15:12:35Z</time>
      </trkpt>
      <trkpt lat="45.24974" lon="5.18123">
        <ele>540.68798828125</ele>
        <time>2009-10-31T15:12:39Z</time>
      </trkpt>
      <trkpt lat="45.24931" lon="5.18049">
        <ele>539.57202148438</ele>
        <time>2009-10-31T15:12:46Z</time>
      </trkpt>
      <trkpt lat="45.24905" lon="5.17986">
        <ele>539.52600097656</ele>
        <time>2009-10-31T15:12:51Z</time>
      </trkpt>
      <trkpt lat="45.24877" lon="5.17871">
        <ele>537.88098144531</ele>
        <time>2009-10-31T15:12:59Z</time>
      </trkpt>
      <trkpt lat="45.24871" lon="5.17842">
        <ele>537.49200439453</ele>
        <time>2009-10-31T15:13:01Z</time>
      </trkpt>
      <trkpt lat="45.24866" lon="5.17764">
        <ele>536.93200683594</ele>
        <time>2009-10-31T15:13:06Z</time>
      </trkpt>
      <trkpt lat="45.24866" lon="5.17656">
        <ele>535.94299316406</ele>
        <time>2009-10-31T15:13:13Z</time>
      </trkpt>
      <trkpt lat="45.24859" lon="5.17566">
        <ele>535.02801513672</ele>
        <time>2009-10-31T15:13:19Z</time>
      </trkpt>
      <trkpt lat="45.24846" lon="5.17446">
        <ele>532.00799560547</ele>
        <time>2009-10-31T15:13:27Z</time>
      </trkpt>
      <trkpt lat="45.24849" lon="5.17367">
        <ele>531.2490234375</ele>
        <time>2009-10-31T15:13:32Z</time>
      </trkpt>
      <trkpt lat="45.24852" lon="5.17307">
        <ele>531.15899658203</ele>
        <time>2009-10-31T15:13:36Z</time>
      </trkpt>
      <trkpt lat="45.24848" lon="5.17234">
        <ele>530.80902099609</ele>
        <time>2009-10-31T15:13:41Z</time>
      </trkpt>
      <trkpt lat="45.24837" lon="5.17139">
        <ele>530.07397460938</ele>
        <time>2009-10-31T15:13:48Z</time>
      </trkpt>
      <trkpt lat="45.2482" lon="5.17057">
        <ele>529.61999511719</ele>
        <time>2009-10-31T15:13:54Z</time>
      </trkpt>
      <trkpt lat="45.24807" lon="5.1698">
        <ele>529.291015625</ele>
        <time>2009-10-31T15:13:59Z</time>
      </trkpt>
      <trkpt lat="45.248" lon="5.1687">
        <ele>529.33801269531</ele>
        <time>2009-10-31T15:14:06Z</time>
      </trkpt>
      <trkpt lat="45.24799" lon="5.16856">
        <ele>528.85101318359</ele>
        <time>2009-10-31T15:14:07Z</time>
      </trkpt>
      <trkpt lat="45.2478" lon="5.16773">
        <ele>528.93499755859</ele>
        <time>2009-10-31T15:14:13Z</time>
      </trkpt>
      <trkpt lat="45.24758" lon="5.16699">
        <ele>528.80798339844</ele>
        <time>2009-10-31T15:14:19Z</time>
      </trkpt>
      <trkpt lat="45.24729" lon="5.16613">
        <ele>528.78997802734</ele>
        <time>2009-10-31T15:14:26Z</time>
      </trkpt>
      <trkpt lat="45.24707" lon="5.1654">
        <ele>528.36499023438</ele>
        <time>2009-10-31T15:14:31Z</time>
      </trkpt>
      <trkpt lat="45.24685" lon="5.16452">
        <ele>529.27197265625</ele>
        <time>2009-10-31T15:14:37Z</time>
      </trkpt>
      <trkpt lat="45.2467" lon="5.16346">
        <ele>528.29302978516</ele>
        <time>2009-10-31T15:14:44Z</time>
      </trkpt>
      <trkpt lat="45.24656" lon="5.1624">
        <ele>528.96899414062</ele>
        <time>2009-10-31T15:14:51Z</time>
      </trkpt>
      <trkpt lat="45.24641" lon="5.16144">
        <ele>528.21099853516</ele>
        <time>2009-10-31T15:14:58Z</time>
      </trkpt>
      <trkpt lat="45.24637" lon="5.1613">
        <ele>528.44598388672</ele>
        <time>2009-10-31T15:14:59Z</time>
      </trkpt>
      <trkpt lat="45.24615" lon="5.16087">
        <ele>527.82800292969</ele>
        <time>2009-10-31T15:15:03Z</time>
      </trkpt>
      <trkpt lat="45.24582" lon="5.16048">
        <ele>527.3740234375</ele>
        <time>2009-10-31T15:15:08Z</time>
      </trkpt>
      <trkpt lat="45.24544" lon="5.16005">
        <ele>526.33599853516</ele>
        <time>2009-10-31T15:15:14Z</time>
      </trkpt>
      <trkpt lat="45.24498" lon="5.15952">
        <ele>524.80297851562</ele>
        <time>2009-10-31T15:15:21Z</time>
      </trkpt>
      <trkpt lat="45.24468" lon="5.15918">
        <ele>523.05102539062</ele>
        <time>2009-10-31T15:15:26Z</time>
      </trkpt>
      <trkpt lat="45.24448" lon="5.15896">
        <ele>522.05499267578</ele>
        <time>2009-10-31T15:15:30Z</time>
      </trkpt>
      <trkpt lat="45.2444" lon="5.15882">
        <ele>521.45397949219</ele>
        <time>2009-10-31T15:15:33Z</time>
      </trkpt>
      <trkpt lat="45.24438" lon="5.1587">
        <ele>521.24102783203</ele>
        <time>2009-10-31T15:15:37Z</time>
      </trkpt>
      <trkpt lat="45.24436" lon="5.15869">
        <ele>521.33197021484</ele>
        <time>2009-10-31T15:15:39Z</time>
      </trkpt>
      <trkpt lat="45.24426" lon="5.15867">
        <ele>520.69299316406</ele>
        <time>2009-10-31T15:15:45Z</time>
      </trkpt>
      <trkpt lat="45.24422" lon="5.15868">
        <ele>520.55700683594</ele>
        <time>2009-10-31T15:15:47Z</time>
      </trkpt>
      <trkpt lat="45.24421" lon="5.15875">
        <ele>520.77301025391</ele>
        <time>2009-10-31T15:15:52Z</time>
      </trkpt>
      <trkpt lat="45.24423" lon="5.15875">
        <ele>520.79699707031</ele>
        <time>2009-10-31T15:15:53Z</time>
      </trkpt>
      <trkpt lat="45.24432" lon="5.15878">
        <ele>521.09399414062</ele>
        <time>2009-10-31T15:15:59Z</time>
      </trkpt>
      <trkpt lat="45.24437" lon="5.15875">
        <ele>521.07800292969</ele>
        <time>2009-10-31T15:16:04Z</time>
      </trkpt>
      <trkpt lat="45.24437" lon="5.15875">
        <ele>521.04498291016</ele>
        <time>2009-10-31T15:16:11Z</time>
      </trkpt>
      <trkpt lat="45.24437" lon="5.15876">
        <ele>521.13201904297</ele>
        <time>2009-10-31T15:16:21Z</time>
      </trkpt>
      <trkpt lat="45.24436" lon="5.15877">
        <ele>521.11297607422</ele>
        <time>2009-10-31T15:16:32Z</time>
      </trkpt>
      <trkpt lat="45.24436" lon="5.15877">
        <ele>521.13500976562</ele>
        <time>2009-10-31T15:16:34Z</time>
      </trkpt>
      <trkpt lat="45.24436" lon="5.15877">
        <ele>521.10498046875</ele>
        <time>2009-10-31T15:16:37Z</time>
      </trkpt>
      <trkpt lat="45.24437" lon="5.15878">
        <ele>520.83697509766</ele>
        <time>2009-10-31T15:16:59Z</time>
      </trkpt>
      <trkpt lat="45.24437" lon="5.15878">
        <ele>521.10900878906</ele>
        <time>2009-10-31T15:17:18Z</time>
      </trkpt>
      <trkpt lat="45.24436" lon="5.15877">
        <ele>521.17602539062</ele>
        <time>2009-10-31T15:17:20Z</time>
      </trkpt>
      <trkpt lat="45.24426" lon="5.15871">
        <ele>520.69702148438</ele>
        <time>2009-10-31T15:17:27Z</time>
      </trkpt>
      <trkpt lat="45.24408" lon="5.15853">
        <ele>520.65502929688</ele>
        <time>2009-10-31T15:17:35Z</time>
      </trkpt>
      <trkpt lat="45.24398" lon="5.15842">
        <ele>520.94799804688</ele>
        <time>2009-10-31T15:17:39Z</time>
      </trkpt>
      <trkpt lat="45.24391" lon="5.15835">
        <ele>520.77801513672</ele>
        <time>2009-10-31T15:17:41Z</time>
      </trkpt>
      <trkpt lat="45.24368" lon="5.15809">
        <ele>521.06298828125</ele>
        <time>2009-10-31T15:17:47Z</time>
      </trkpt>
      <trkpt lat="45.24335" lon="5.15775">
        <ele>520.95397949219</ele>
        <time>2009-10-31T15:17:54Z</time>
      </trkpt>
      <trkpt lat="45.24299" lon="5.15739">
        <ele>521.25201416016</ele>
        <time>2009-10-31T15:18:01Z</time>
      </trkpt>
      <trkpt lat="45.24274" lon="5.15696">
        <ele>521.43402099609</ele>
        <time>2009-10-31T15:18:07Z</time>
      </trkpt>
      <trkpt lat="45.24248" lon="5.15637">
        <ele>521.38000488281</ele>
        <time>2009-10-31T15:18:14Z</time>
      </trkpt>
      <trkpt lat="45.24223" lon="5.15588">
        <ele>521.34301757812</ele>
        <time>2009-10-31T15:18:20Z</time>
      </trkpt>
      <trkpt lat="45.2419" lon="5.15544">
        <ele>521.54400634766</ele>
        <time>2009-10-31T15:18:26Z</time>
      </trkpt>
      <trkpt lat="45.24132" lon="5.15467">
        <ele>521.36602783203</ele>
        <time>2009-10-31T15:18:36Z</time>
      </trkpt>
      <trkpt lat="45.24072" lon="5.15389">
        <ele>521.64697265625</ele>
        <time>2009-10-31T15:18:46Z</time>
      </trkpt>
      <trkpt lat="45.2401" lon="5.15312">
        <ele>521.34100341797</ele>
        <time>2009-10-31T15:18:56Z</time>
      </trkpt>
      <trkpt lat="45.23947" lon="5.15232">
        <ele>520.36700439453</ele>
        <time>2009-10-31T15:19:06Z</time>
      </trkpt>
      <trkpt lat="45.2389" lon="5.15157">
        <ele>519.65802001953</ele>
        <time>2009-10-31T15:19:15Z</time>
      </trkpt>
      <trkpt lat="45.23832" lon="5.15084">
        <ele>518.69799804688</ele>
        <time>2009-10-31T15:19:24Z</time>
      </trkpt>
      <trkpt lat="45.23795" lon="5.15033">
        <ele>518.2490234375</ele>
        <time>2009-10-31T15:19:30Z</time>
      </trkpt>
      <trkpt lat="45.23769" lon="5.14984">
        <ele>518.00897216797</ele>
        <time>2009-10-31T15:19:35Z</time>
      </trkpt>
      <trkpt lat="45.23734" lon="5.14904">
        <ele>518.25500488281</ele>
        <time>2009-10-31T15:19:43Z</time>
      </trkpt>
      <trkpt lat="45.23718" lon="5.14851">
        <ele>518.49499511719</ele>
        <time>2009-10-31T15:19:48Z</time>
      </trkpt>
      <trkpt lat="45.23714" lon="5.14841">
        <ele>518.47100830078</ele>
        <time>2009-10-31T15:19:49Z</time>
      </trkpt>
      <trkpt lat="45.23683" lon="5.14763">
        <ele>520.10400390625</ele>
        <time>2009-10-31T15:19:57Z</time>
      </trkpt>
      <trkpt lat="45.23665" lon="5.14716">
        <ele>520.66302490234</ele>
        <time>2009-10-31T15:20:02Z</time>
      </trkpt>
      <trkpt lat="45.23653" lon="5.14686">
        <ele>520.35900878906</ele>
        <time>2009-10-31T15:20:05Z</time>
      </trkpt>
      <trkpt lat="45.23623" lon="5.1463">
        <ele>519.47198486328</ele>
        <time>2009-10-31T15:20:11Z</time>
      </trkpt>
      <trkpt lat="45.23574" lon="5.14551">
        <ele>520.35900878906</ele>
        <time>2009-10-31T15:20:20Z</time>
      </trkpt>
      <trkpt lat="45.23528" lon="5.14477">
        <ele>519.73400878906</ele>
        <time>2009-10-31T15:20:28Z</time>
      </trkpt>
      <trkpt lat="45.23472" lon="5.14388">
        <ele>519.31402587891</ele>
        <time>2009-10-31T15:20:37Z</time>
      </trkpt>
      <trkpt lat="45.23428" lon="5.14317">
        <ele>521.40698242188</ele>
        <time>2009-10-31T15:20:45Z</time>
      </trkpt>
      <trkpt lat="45.23394" lon="5.14259">
        <ele>519.85302734375</ele>
        <time>2009-10-31T15:20:52Z</time>
      </trkpt>
      <trkpt lat="45.23361" lon="5.14202">
        <ele>517.50598144531</ele>
        <time>2009-10-31T15:20:58Z</time>
      </trkpt>
      <trkpt lat="45.23355" lon="5.14191">
        <ele>517.291015625</ele>
        <time>2009-10-31T15:20:59Z</time>
      </trkpt>
      <trkpt lat="45.23323" lon="5.14138">
        <ele>515.30902099609</ele>
        <time>2009-10-31T15:21:04Z</time>
      </trkpt>
      <trkpt lat="45.23298" lon="5.14094">
        <ele>513.63299560547</ele>
        <time>2009-10-31T15:21:08Z</time>
      </trkpt>
      <trkpt lat="45.23285" lon="5.14072">
        <ele>512.79302978516</ele>
        <time>2009-10-31T15:21:10Z</time>
      </trkpt>
      <trkpt lat="45.23253" lon="5.14019">
        <ele>511.79800415039</ele>
        <time>2009-10-31T15:21:15Z</time>
      </trkpt>
      <trkpt lat="45.23233" lon="5.13989">
        <ele>511.32299804688</ele>
        <time>2009-10-31T15:21:18Z</time>
      </trkpt>
      <trkpt lat="45.2319" lon="5.13956">
        <ele>510.59698486328</ele>
        <time>2009-10-31T15:21:23Z</time>
      </trkpt>
      <trkpt lat="45.23137" lon="5.13919">
        <ele>510.02301025391</ele>
        <time>2009-10-31T15:21:29Z</time>
      </trkpt>
      <trkpt lat="45.23101" lon="5.13884">
        <ele>510.40301513672</ele>
        <time>2009-10-31T15:21:34Z</time>
      </trkpt>
      <trkpt lat="45.23065" lon="5.13853">
        <ele>510.70401000977</ele>
        <time>2009-10-31T15:21:39Z</time>
      </trkpt>
      <trkpt lat="45.23008" lon="5.13817">
        <ele>511.40600585938</ele>
        <time>2009-10-31T15:21:46Z</time>
      </trkpt>
      <trkpt lat="45.22979" lon="5.13787">
        <ele>511.61700439453</ele>
        <time>2009-10-31T15:21:50Z</time>
      </trkpt>
      <trkpt lat="45.22957" lon="5.13735">
        <ele>512.45501708984</ele>
        <time>2009-10-31T15:21:55Z</time>
      </trkpt>
      <trkpt lat="45.22954" lon="5.13724">
        <ele>512.33197021484</ele>
        <time>2009-10-31T15:21:56Z</time>
      </trkpt>
      <trkpt lat="45.22935" lon="5.13685">
        <ele>512.78198242188</ele>
        <time>2009-10-31T15:22:00Z</time>
      </trkpt>
      <trkpt lat="45.22897" lon="5.13642">
        <ele>513.88500976562</ele>
        <time>2009-10-31T15:22:06Z</time>
      </trkpt>
      <trkpt lat="45.2286" lon="5.13601">
        <ele>515.55401611328</ele>
        <time>2009-10-31T15:22:12Z</time>
      </trkpt>
      <trkpt lat="45.22836" lon="5.13559">
        <ele>515.72900390625</ele>
        <time>2009-10-31T15:22:17Z</time>
      </trkpt>
      <trkpt lat="45.22821" lon="5.13521">
        <ele>514.99700927734</ele>
        <time>2009-10-31T15:22:21Z</time>
      </trkpt>
      <trkpt lat="45.22799" lon="5.1349">
        <ele>514.41900634766</ele>
        <time>2009-10-31T15:22:25Z</time>
      </trkpt>
      <trkpt lat="45.22741" lon="5.13439">
        <ele>512.75897216797</ele>
        <time>2009-10-31T15:22:33Z</time>
      </trkpt>
      <trkpt lat="45.22662" lon="5.13371">
        <ele>511.43499755859</ele>
        <time>2009-10-31T15:22:43Z</time>
      </trkpt>
      <trkpt lat="45.22604" lon="5.13321">
        <ele>508.80801391602</ele>
        <time>2009-10-31T15:22:50Z</time>
      </trkpt>
      <trkpt lat="45.22587" lon="5.13306">
        <ele>508.12399291992</ele>
        <time>2009-10-31T15:22:52Z</time>
      </trkpt>
      <trkpt lat="45.2257" lon="5.13291">
        <ele>507.00900268555</ele>
        <time>2009-10-31T15:22:54Z</time>
      </trkpt>
      <trkpt lat="45.22526" lon="5.13255">
        <ele>505.96301269531</ele>
        <time>2009-10-31T15:22:59Z</time>
      </trkpt>
      <trkpt lat="45.22517" lon="5.13249">
        <ele>506.14599609375</ele>
        <time>2009-10-31T15:23:00Z</time>
      </trkpt>
      <trkpt lat="45.22483" lon="5.13234">
        <ele>505.44900512695</ele>
        <time>2009-10-31T15:23:04Z</time>
      </trkpt>
      <trkpt lat="45.22466" lon="5.13227">
        <ele>505.5119934082</ele>
        <time>2009-10-31T15:23:06Z</time>
      </trkpt>
      <trkpt lat="45.22459" lon="5.13223">
        <ele>505.14099121094</ele>
        <time>2009-10-31T15:23:07Z</time>
      </trkpt>
      <trkpt lat="45.22415" lon="5.132">
        <ele>504.38000488281</ele>
        <time>2009-10-31T15:23:13Z</time>
      </trkpt>
      <trkpt lat="45.22401" lon="5.13166">
        <ele>504.1669921875</ele>
        <time>2009-10-31T15:23:17Z</time>
      </trkpt>
      <trkpt lat="45.224" lon="5.13147">
        <ele>505.23599243164</ele>
        <time>2009-10-31T15:23:19Z</time>
      </trkpt>
      <trkpt lat="45.22399" lon="5.13128">
        <ele>505.79998779297</ele>
        <time>2009-10-31T15:23:21Z</time>
      </trkpt>
      <trkpt lat="45.22404" lon="5.13088">
        <ele>506.4469909668</ele>
        <time>2009-10-31T15:23:25Z</time>
      </trkpt>
      <trkpt lat="45.22398" lon="5.13048">
        <ele>506.57699584961</ele>
        <time>2009-10-31T15:23:29Z</time>
      </trkpt>
      <trkpt lat="45.22376" lon="5.13021">
        <ele>507.51800537109</ele>
        <time>2009-10-31T15:23:33Z</time>
      </trkpt>
      <trkpt lat="45.2237" lon="5.13018">
        <ele>507.77801513672</ele>
        <time>2009-10-31T15:23:34Z</time>
      </trkpt>
      <trkpt lat="45.22357" lon="5.13012">
        <ele>507.72799682617</ele>
        <time>2009-10-31T15:23:36Z</time>
      </trkpt>
      <trkpt lat="45.22304" lon="5.13002">
        <ele>507.18099975586</ele>
        <time>2009-10-31T15:23:44Z</time>
      </trkpt>
      <trkpt lat="45.22297" lon="5.13">
        <ele>507.04501342773</ele>
        <time>2009-10-31T15:23:45Z</time>
      </trkpt>
      <trkpt lat="45.22251" lon="5.12968">
        <ele>505.51098632812</ele>
        <time>2009-10-31T15:23:52Z</time>
      </trkpt>
      <trkpt lat="45.22216" lon="5.1294">
        <ele>504.56201171875</ele>
        <time>2009-10-31T15:23:57Z</time>
      </trkpt>
      <trkpt lat="45.22173" lon="5.12908">
        <ele>503.60101318359</ele>
        <time>2009-10-31T15:24:03Z</time>
      </trkpt>
      <trkpt lat="45.22159" lon="5.12896">
        <ele>502.85699462891</ele>
        <time>2009-10-31T15:24:05Z</time>
      </trkpt>
      <trkpt lat="45.22126" lon="5.12851">
        <ele>499.03698730469</ele>
        <time>2009-10-31T15:24:10Z</time>
      </trkpt>
      <trkpt lat="45.221" lon="5.12801">
        <ele>495.51000976562</ele>
        <time>2009-10-31T15:24:15Z</time>
      </trkpt>
      <trkpt lat="45.22089" lon="5.1274">
        <ele>491.51901245117</ele>
        <time>2009-10-31T15:24:20Z</time>
      </trkpt>
      <trkpt lat="45.22083" lon="5.12685">
        <ele>487.83401489258</ele>
        <time>2009-10-31T15:24:24Z</time>
      </trkpt>
      <trkpt lat="45.22085" lon="5.12603">
        <ele>482.63400268555</ele>
        <time>2009-10-31T15:24:29Z</time>
      </trkpt>
      <trkpt lat="45.22078" lon="5.12537">
        <ele>478.8450012207</ele>
        <time>2009-10-31T15:24:33Z</time>
      </trkpt>
      <trkpt lat="45.22053" lon="5.12476">
        <ele>474.9289855957</ele>
        <time>2009-10-31T15:24:37Z</time>
      </trkpt>
      <trkpt lat="45.2204" lon="5.12445">
        <ele>473.41500854492</ele>
        <time>2009-10-31T15:24:39Z</time>
      </trkpt>
      <trkpt lat="45.22026" lon="5.12374">
        <ele>469.31500244141</ele>
        <time>2009-10-31T15:24:43Z</time>
      </trkpt>
      <trkpt lat="45.22023" lon="5.12281">
        <ele>464.85598754883</ele>
        <time>2009-10-31T15:24:48Z</time>
      </trkpt>
      <trkpt lat="45.22038" lon="5.12183">
        <ele>458.92999267578</ele>
        <time>2009-10-31T15:24:53Z</time>
      </trkpt>
      <trkpt lat="45.22067" lon="5.12">
        <ele>449.58200073242</ele>
        <time>2009-10-31T15:25:02Z</time>
      </trkpt>
      <trkpt lat="45.22092" lon="5.1184">
        <ele>441.625</ele>
        <time>2009-10-31T15:25:10Z</time>
      </trkpt>
      <trkpt lat="45.22113" lon="5.11764">
        <ele>436.93301391602</ele>
        <time>2009-10-31T15:25:14Z</time>
      </trkpt>
      <trkpt lat="45.22132" lon="5.11707">
        <ele>434.09201049805</ele>
        <time>2009-10-31T15:25:17Z</time>
      </trkpt>
      <trkpt lat="45.22174" lon="5.1157">
        <ele>426.06100463867</ele>
        <time>2009-10-31T15:25:24Z</time>
      </trkpt>
      <trkpt lat="45.22199" lon="5.11523">
        <ele>422.89300537109</ele>
        <time>2009-10-31T15:25:27Z</time>
      </trkpt>
      <trkpt lat="45.22223" lon="5.11505">
        <ele>420.67098999023</ele>
        <time>2009-10-31T15:25:29Z</time>
      </trkpt>
      <trkpt lat="45.22263" lon="5.11487">
        <ele>418.4049987793</ele>
        <time>2009-10-31T15:25:32Z</time>
      </trkpt>
      <trkpt lat="45.22297" lon="5.11431">
        <ele>415.21099853516</ele>
        <time>2009-10-31T15:25:36Z</time>
      </trkpt>
      <trkpt lat="45.223" lon="5.11397">
        <ele>415.18200683594</ele>
        <time>2009-10-31T15:25:38Z</time>
      </trkpt>
      <trkpt lat="45.22292" lon="5.11369">
        <ele>416.5710144043</ele>
        <time>2009-10-31T15:25:40Z</time>
      </trkpt>
      <trkpt lat="45.22287" lon="5.11336">
        <ele>419.46899414062</ele>
        <time>2009-10-31T15:25:43Z</time>
      </trkpt>
      <trkpt lat="45.22288" lon="5.11328">
        <ele>420.36401367188</ele>
        <time>2009-10-31T15:25:44Z</time>
      </trkpt>
      <trkpt lat="45.2229" lon="5.11311">
        <ele>421.31698608398</ele>
        <time>2009-10-31T15:25:47Z</time>
      </trkpt>
      <trkpt lat="45.22291" lon="5.11301">
        <ele>422.57998657227</ele>
        <time>2009-10-31T15:25:51Z</time>
      </trkpt>
      <trkpt lat="45.2229" lon="5.11298">
        <ele>422.90899658203</ele>
        <time>2009-10-31T15:25:54Z</time>
      </trkpt>
      <trkpt lat="45.22289" lon="5.11317">
        <ele>421.46301269531</ele>
        <time>2009-10-31T15:25:59Z</time>
      </trkpt>
      <trkpt lat="45.22288" lon="5.11336">
        <ele>419.69400024414</ele>
        <time>2009-10-31T15:26:03Z</time>
      </trkpt>
      <trkpt lat="45.22285" lon="5.11346">
        <ele>418.83401489258</ele>
        <time>2009-10-31T15:26:07Z</time>
      </trkpt>
      <trkpt lat="45.22282" lon="5.11349">
        <ele>418.37100219727</ele>
        <time>2009-10-31T15:26:09Z</time>
      </trkpt>
      <trkpt lat="45.22271" lon="5.11344">
        <ele>418.88198852539</ele>
        <time>2009-10-31T15:26:14Z</time>
      </trkpt>
      <trkpt lat="45.22255" lon="5.11324">
        <ele>419.70700073242</ele>
        <time>2009-10-31T15:26:21Z</time>
      </trkpt>
      <trkpt lat="45.22242" lon="5.1131">
        <ele>420.18701171875</ele>
        <time>2009-10-31T15:26:27Z</time>
      </trkpt>
      <trkpt lat="45.2223" lon="5.11293">
        <ele>420.5710144043</ele>
        <time>2009-10-31T15:26:33Z</time>
      </trkpt>
      <trkpt lat="45.22217" lon="5.11271">
        <ele>420.54800415039</ele>
        <time>2009-10-31T15:26:39Z</time>
      </trkpt>
      <trkpt lat="45.22194" lon="5.11231">
        <ele>419.97799682617</ele>
        <time>2009-10-31T15:26:48Z</time>
      </trkpt>
      <trkpt lat="45.22178" lon="5.11196">
        <ele>420.11999511719</ele>
        <time>2009-10-31T15:26:55Z</time>
      </trkpt>
      <trkpt lat="45.22159" lon="5.1115">
        <ele>420.33700561523</ele>
        <time>2009-10-31T15:27:03Z</time>
      </trkpt>
      <trkpt lat="45.22139" lon="5.11096">
        <ele>421.41598510742</ele>
        <time>2009-10-31T15:27:12Z</time>
      </trkpt>
      <trkpt lat="45.22121" lon="5.11042">
        <ele>421.54998779297</ele>
        <time>2009-10-31T15:27:20Z</time>
      </trkpt>
      <trkpt lat="45.22109" lon="5.10988">
        <ele>420.95901489258</ele>
        <time>2009-10-31T15:27:27Z</time>
      </trkpt>
      <trkpt lat="45.22094" lon="5.1092">
        <ele>420.125</ele>
        <time>2009-10-31T15:27:35Z</time>
      </trkpt>
      <trkpt lat="45.22085" lon="5.10876">
        <ele>419.78799438477</ele>
        <time>2009-10-31T15:27:40Z</time>
      </trkpt>
      <trkpt lat="45.2207" lon="5.10798">
        <ele>418.69198608398</ele>
        <time>2009-10-31T15:27:48Z</time>
      </trkpt>
      <trkpt lat="45.2206" lon="5.10741">
        <ele>418.01800537109</ele>
        <time>2009-10-31T15:27:54Z</time>
      </trkpt>
      <trkpt lat="45.22057" lon="5.10722">
        <ele>417.67300415039</ele>
        <time>2009-10-31T15:27:56Z</time>
      </trkpt>
      <trkpt lat="45.22055" lon="5.10713">
        <ele>417.62899780273</ele>
        <time>2009-10-31T15:27:57Z</time>
      </trkpt>
      <trkpt lat="45.2204" lon="5.10647">
        <ele>416.07901000977</ele>
        <time>2009-10-31T15:28:04Z</time>
      </trkpt>
      <trkpt lat="45.22016" lon="5.10565">
        <ele>414.24499511719</ele>
        <time>2009-10-31T15:28:12Z</time>
      </trkpt>
      <trkpt lat="45.21988" lon="5.10477">
        <ele>413.28601074219</ele>
        <time>2009-10-31T15:28:21Z</time>
      </trkpt>
      <trkpt lat="45.21964" lon="5.10399">
        <ele>411.96398925781</ele>
        <time>2009-10-31T15:28:29Z</time>
      </trkpt>
      <trkpt lat="45.21942" lon="5.10328">
        <ele>408.40899658203</ele>
        <time>2009-10-31T15:28:35Z</time>
      </trkpt>
      <trkpt lat="45.21934" lon="5.10302">
        <ele>407.32800292969</ele>
        <time>2009-10-31T15:28:37Z</time>
      </trkpt>
      <trkpt lat="45.2191" lon="5.10218">
        <ele>404.35000610352</ele>
        <time>2009-10-31T15:28:43Z</time>
      </trkpt>
      <trkpt lat="45.21906" lon="5.10156">
        <ele>403.67401123047</ele>
        <time>2009-10-31T15:28:47Z</time>
      </trkpt>
      <trkpt lat="45.21904" lon="5.10089">
        <ele>402.53399658203</ele>
        <time>2009-10-31T15:28:52Z</time>
      </trkpt>
      <trkpt lat="45.21902" lon="5.09997">
        <ele>400.92098999023</ele>
        <time>2009-10-31T15:28:59Z</time>
      </trkpt>
      <trkpt lat="45.21898" lon="5.09915">
        <ele>398.17700195312</ele>
        <time>2009-10-31T15:29:05Z</time>
      </trkpt>
      <trkpt lat="45.21897" lon="5.09834">
        <ele>396.71200561523</ele>
        <time>2009-10-31T15:29:11Z</time>
      </trkpt>
      <trkpt lat="45.21899" lon="5.09758">
        <ele>394.66101074219</ele>
        <time>2009-10-31T15:29:17Z</time>
      </trkpt>
      <trkpt lat="45.219" lon="5.09745">
        <ele>394.45199584961</ele>
        <time>2009-10-31T15:29:18Z</time>
      </trkpt>
      <trkpt lat="45.21903" lon="5.09654">
        <ele>390.92498779297</ele>
        <time>2009-10-31T15:29:25Z</time>
      </trkpt>
      <trkpt lat="45.21903" lon="5.09604">
        <ele>389.1369934082</ele>
        <time>2009-10-31T15:29:29Z</time>
      </trkpt>
      <trkpt lat="45.2191" lon="5.09553">
        <ele>387.57998657227</ele>
        <time>2009-10-31T15:29:33Z</time>
      </trkpt>
      <trkpt lat="45.21923" lon="5.09481">
        <ele>384.125</ele>
        <time>2009-10-31T15:29:38Z</time>
      </trkpt>
      <trkpt lat="45.2194" lon="5.09365">
        <ele>379.99301147461</ele>
        <time>2009-10-31T15:29:46Z</time>
      </trkpt>
      <trkpt lat="45.21939" lon="5.09305">
        <ele>377.32901000977</ele>
        <time>2009-10-31T15:29:50Z</time>
      </trkpt>
      <trkpt lat="45.21935" lon="5.09276">
        <ele>376.25900268555</ele>
        <time>2009-10-31T15:29:52Z</time>
      </trkpt>
      <trkpt lat="45.2192" lon="5.09186">
        <ele>373.99099731445</ele>
        <time>2009-10-31T15:29:58Z</time>
      </trkpt>
      <trkpt lat="45.21894" lon="5.09116">
        <ele>374.48699951172</ele>
        <time>2009-10-31T15:30:04Z</time>
      </trkpt>
      <trkpt lat="45.21872" lon="5.0906">
        <ele>375.01800537109</ele>
        <time>2009-10-31T15:30:10Z</time>
      </trkpt>
      <trkpt lat="45.21852" lon="5.09004">
        <ele>375.17098999023</ele>
        <time>2009-10-31T15:30:16Z</time>
      </trkpt>
      <trkpt lat="45.21823" lon="5.08927">
        <ele>376.59799194336</ele>
        <time>2009-10-31T15:30:25Z</time>
      </trkpt>
      <trkpt lat="45.21806" lon="5.08881">
        <ele>378.08801269531</ele>
        <time>2009-10-31T15:30:31Z</time>
      </trkpt>
      <trkpt lat="45.21797" lon="5.08842">
        <ele>378.95199584961</ele>
        <time>2009-10-31T15:30:36Z</time>
      </trkpt>
      <trkpt lat="45.21797" lon="5.08787">
        <ele>379.02899169922</ele>
        <time>2009-10-31T15:30:43Z</time>
      </trkpt>
      <trkpt lat="45.21802" lon="5.08738">
        <ele>376.71798706055</ele>
        <time>2009-10-31T15:30:49Z</time>
      </trkpt>
      <trkpt lat="45.21806" lon="5.08699">
        <ele>375.55999755859</ele>
        <time>2009-10-31T15:30:54Z</time>
      </trkpt>
      <trkpt lat="45.21811" lon="5.0864">
        <ele>373.32501220703</ele>
        <time>2009-10-31T15:31:00Z</time>
      </trkpt>
      <trkpt lat="45.21816" lon="5.08581">
        <ele>370.72399902344</ele>
        <time>2009-10-31T15:31:05Z</time>
      </trkpt>
      <trkpt lat="45.21819" lon="5.08554">
        <ele>370.0710144043</ele>
        <time>2009-10-31T15:31:07Z</time>
      </trkpt>
      <trkpt lat="45.21822" lon="5.08526">
        <ele>368.46899414062</ele>
        <time>2009-10-31T15:31:09Z</time>
      </trkpt>
      <trkpt lat="45.21823" lon="5.08512">
        <ele>368.25299072266</ele>
        <time>2009-10-31T15:31:10Z</time>
      </trkpt>
      <trkpt lat="45.21833" lon="5.08403">
        <ele>366.63900756836</ele>
        <time>2009-10-31T15:31:18Z</time>
      </trkpt>
      <trkpt lat="45.21836" lon="5.08377">
        <ele>366.19198608398</ele>
        <time>2009-10-31T15:31:20Z</time>
      </trkpt>
      <trkpt lat="45.21838" lon="5.08352">
        <ele>365.79000854492</ele>
        <time>2009-10-31T15:31:22Z</time>
      </trkpt>
      <trkpt lat="45.2184" lon="5.08339">
        <ele>365.45401000977</ele>
        <time>2009-10-31T15:31:23Z</time>
      </trkpt>
      <trkpt lat="45.21841" lon="5.08265">
        <ele>363.98498535156</ele>
        <time>2009-10-31T15:31:29Z</time>
      </trkpt>
      <trkpt lat="45.21832" lon="5.08196">
        <ele>362.875</ele>
        <time>2009-10-31T15:31:35Z</time>
      </trkpt>
      <trkpt lat="45.2181" lon="5.08118">
        <ele>361.75201416016</ele>
        <time>2009-10-31T15:31:42Z</time>
      </trkpt>
      <trkpt lat="45.21792" lon="5.08062">
        <ele>361.13000488281</ele>
        <time>2009-10-31T15:31:47Z</time>
      </trkpt>
      <trkpt lat="45.21763" lon="5.07972">
        <ele>359.35400390625</ele>
        <time>2009-10-31T15:31:55Z</time>
      </trkpt>
      <trkpt lat="45.21734" lon="5.0788">
        <ele>357.58700561523</ele>
        <time>2009-10-31T15:32:03Z</time>
      </trkpt>
      <trkpt lat="45.21697" lon="5.07767">
        <ele>356.05200195312</ele>
        <time>2009-10-31T15:32:13Z</time>
      </trkpt>
      <trkpt lat="45.21668" lon="5.07696">
        <ele>355.69100952148</ele>
        <time>2009-10-31T15:32:20Z</time>
      </trkpt>
      <trkpt lat="45.21653" lon="5.07658">
        <ele>355.13800048828</ele>
        <time>2009-10-31T15:32:24Z</time>
      </trkpt>
      <trkpt lat="45.21648" lon="5.07614">
        <ele>355.66000366211</ele>
        <time>2009-10-31T15:32:29Z</time>
      </trkpt>
      <trkpt lat="45.21651" lon="5.07599">
        <ele>356.1130065918</ele>
        <time>2009-10-31T15:32:31Z</time>
      </trkpt>
      <trkpt lat="45.21662" lon="5.07561">
        <ele>356.74798583984</ele>
        <time>2009-10-31T15:32:37Z</time>
      </trkpt>
      <trkpt lat="45.21666" lon="5.07547">
        <ele>357.26800537109</ele>
        <time>2009-10-31T15:32:40Z</time>
      </trkpt>
      <trkpt lat="45.21668" lon="5.07537">
        <ele>357.5530090332</ele>
        <time>2009-10-31T15:32:42Z</time>
      </trkpt>
      <trkpt lat="45.21659" lon="5.07516">
        <ele>357.90301513672</ele>
        <time>2009-10-31T15:32:46Z</time>
      </trkpt>
      <trkpt lat="45.2165" lon="5.0751">
        <ele>357.56201171875</ele>
        <time>2009-10-31T15:32:48Z</time>
      </trkpt>
      <trkpt lat="45.21613" lon="5.07492">
        <ele>357.26901245117</ele>
        <time>2009-10-31T15:32:54Z</time>
      </trkpt>
      <trkpt lat="45.2155" lon="5.07461">
        <ele>356.43798828125</ele>
        <time>2009-10-31T15:33:03Z</time>
      </trkpt>
      <trkpt lat="45.21481" lon="5.07427">
        <ele>355.7619934082</ele>
        <time>2009-10-31T15:33:12Z</time>
      </trkpt>
      <trkpt lat="45.21431" lon="5.07403">
        <ele>355.11700439453</ele>
        <time>2009-10-31T15:33:19Z</time>
      </trkpt>
      <trkpt lat="45.21384" lon="5.0738">
        <ele>354.7799987793</ele>
        <time>2009-10-31T15:33:26Z</time>
      </trkpt>
      <trkpt lat="45.21317" lon="5.07347">
        <ele>352.59799194336</ele>
        <time>2009-10-31T15:33:35Z</time>
      </trkpt>
      <trkpt lat="45.21293" lon="5.07332">
        <ele>351.61898803711</ele>
        <time>2009-10-31T15:33:38Z</time>
      </trkpt>
      <trkpt lat="45.21247" lon="5.07289">
        <ele>350.05899047852</ele>
        <time>2009-10-31T15:33:44Z</time>
      </trkpt>
      <trkpt lat="45.21223" lon="5.07268">
        <ele>349.51400756836</ele>
        <time>2009-10-31T15:33:47Z</time>
      </trkpt>
      <trkpt lat="45.21206" lon="5.07255">
        <ele>349.35299682617</ele>
        <time>2009-10-31T15:33:49Z</time>
      </trkpt>
      <trkpt lat="45.21154" lon="5.07228">
        <ele>347.92999267578</ele>
        <time>2009-10-31T15:33:55Z</time>
      </trkpt>
      <trkpt lat="45.21083" lon="5.0719">
        <ele>345.19900512695</ele>
        <time>2009-10-31T15:34:03Z</time>
      </trkpt>
      <trkpt lat="45.21019" lon="5.07171">
        <ele>342.38900756836</ele>
        <time>2009-10-31T15:34:10Z</time>
      </trkpt>
      <trkpt lat="45.20959" lon="5.07153">
        <ele>340.67098999023</ele>
        <time>2009-10-31T15:34:17Z</time>
      </trkpt>
      <trkpt lat="45.20933" lon="5.0714">
        <ele>340.54299926758</ele>
        <time>2009-10-31T15:34:20Z</time>
      </trkpt>
      <trkpt lat="45.20876" lon="5.07099">
        <ele>339.74899291992</ele>
        <time>2009-10-31T15:34:27Z</time>
      </trkpt>
      <trkpt lat="45.20811" lon="5.07051">
        <ele>337.89300537109</ele>
        <time>2009-10-31T15:34:35Z</time>
      </trkpt>
      <trkpt lat="45.20772" lon="5.07016">
        <ele>337.52899169922</ele>
        <time>2009-10-31T15:34:40Z</time>
      </trkpt>
      <trkpt lat="45.20725" lon="5.06958">
        <ele>337.8030090332</ele>
        <time>2009-10-31T15:34:47Z</time>
      </trkpt>
      <trkpt lat="45.20712" lon="5.06932">
        <ele>337.41000366211</ele>
        <time>2009-10-31T15:34:50Z</time>
      </trkpt>
      <trkpt lat="45.20694" lon="5.06916">
        <ele>337.47100830078</ele>
        <time>2009-10-31T15:34:53Z</time>
      </trkpt>
      <trkpt lat="45.2067" lon="5.06885">
        <ele>336.62200927734</ele>
        <time>2009-10-31T15:34:57Z</time>
      </trkpt>
      <trkpt lat="45.20665" lon="5.06875">
        <ele>336.34698486328</ele>
        <time>2009-10-31T15:34:58Z</time>
      </trkpt>
      <trkpt lat="45.20643" lon="5.06821">
        <ele>335.85198974609</ele>
        <time>2009-10-31T15:35:03Z</time>
      </trkpt>
      <trkpt lat="45.20615" lon="5.06775">
        <ele>335.68301391602</ele>
        <time>2009-10-31T15:35:08Z</time>
      </trkpt>
      <trkpt lat="45.20575" lon="5.06715">
        <ele>336.78900146484</ele>
        <time>2009-10-31T15:35:15Z</time>
      </trkpt>
      <trkpt lat="45.20546" lon="5.06668">
        <ele>337.55499267578</ele>
        <time>2009-10-31T15:35:21Z</time>
      </trkpt>
      <trkpt lat="45.20522" lon="5.06632">
        <ele>338.10998535156</ele>
        <time>2009-10-31T15:35:26Z</time>
      </trkpt>
      <trkpt lat="45.20506" lon="5.06612">
        <ele>338.51699829102</ele>
        <time>2009-10-31T15:35:29Z</time>
      </trkpt>
      <trkpt lat="45.20465" lon="5.06554">
        <ele>337.82000732422</ele>
        <time>2009-10-31T15:35:37Z</time>
      </trkpt>
      <trkpt lat="45.20433" lon="5.0651">
        <ele>338.35699462891</ele>
        <time>2009-10-31T15:35:43Z</time>
      </trkpt>
      <trkpt lat="45.20412" lon="5.06482">
        <ele>338.37799072266</ele>
        <time>2009-10-31T15:35:47Z</time>
      </trkpt>
      <trkpt lat="45.20388" lon="5.06463">
        <ele>338.73199462891</ele>
        <time>2009-10-31T15:35:51Z</time>
      </trkpt>
      <trkpt lat="45.20343" lon="5.06428">
        <ele>337.67300415039</ele>
        <time>2009-10-31T15:35:58Z</time>
      </trkpt>
      <trkpt lat="45.20302" lon="5.06388">
        <ele>336.86700439453</ele>
        <time>2009-10-31T15:36:04Z</time>
      </trkpt>
      <trkpt lat="45.20253" lon="5.0635">
        <ele>335.52398681641</ele>
        <time>2009-10-31T15:36:10Z</time>
      </trkpt>
      <trkpt lat="45.20184" lon="5.06306">
        <ele>333.69799804688</ele>
        <time>2009-10-31T15:36:17Z</time>
      </trkpt>
      <trkpt lat="45.20088" lon="5.06247">
        <ele>330.79098510742</ele>
        <time>2009-10-31T15:36:26Z</time>
      </trkpt>
      <trkpt lat="45.20066" lon="5.06234">
        <ele>329.87399291992</ele>
        <time>2009-10-31T15:36:28Z</time>
      </trkpt>
      <trkpt lat="45.20011" lon="5.062">
        <ele>328.29598999023</ele>
        <time>2009-10-31T15:36:33Z</time>
      </trkpt>
      <trkpt lat="45.19938" lon="5.06152">
        <ele>326.86599731445</ele>
        <time>2009-10-31T15:36:40Z</time>
      </trkpt>
      <trkpt lat="45.19889" lon="5.06108">
        <ele>325.64001464844</ele>
        <time>2009-10-31T15:36:45Z</time>
      </trkpt>
      <trkpt lat="45.19829" lon="5.06051">
        <ele>323.08801269531</ele>
        <time>2009-10-31T15:36:51Z</time>
      </trkpt>
      <trkpt lat="45.19786" lon="5.06011">
        <ele>321.58200073242</ele>
        <time>2009-10-31T15:36:55Z</time>
      </trkpt>
      <trkpt lat="45.19705" lon="5.05931">
        <ele>319.40701293945</ele>
        <time>2009-10-31T15:37:03Z</time>
      </trkpt>
      <trkpt lat="45.19658" lon="5.05881">
        <ele>319.18099975586</ele>
        <time>2009-10-31T15:37:08Z</time>
      </trkpt>
      <trkpt lat="45.19633" lon="5.0583">
        <ele>319.10101318359</ele>
        <time>2009-10-31T15:37:12Z</time>
      </trkpt>
      <trkpt lat="45.19609" lon="5.05762">
        <ele>319.83898925781</ele>
        <time>2009-10-31T15:37:17Z</time>
      </trkpt>
      <trkpt lat="45.19598" lon="5.05704">
        <ele>319.51998901367</ele>
        <time>2009-10-31T15:37:21Z</time>
      </trkpt>
      <trkpt lat="45.19575" lon="5.05642">
        <ele>318.66000366211</ele>
        <time>2009-10-31T15:37:26Z</time>
      </trkpt>
      <trkpt lat="45.19532" lon="5.05568">
        <ele>316.76599121094</ele>
        <time>2009-10-31T15:37:33Z</time>
      </trkpt>
      <trkpt lat="45.19493" lon="5.05523">
        <ele>315.91198730469</ele>
        <time>2009-10-31T15:37:38Z</time>
      </trkpt>
      <trkpt lat="45.19449" lon="5.05478">
        <ele>316.33200073242</ele>
        <time>2009-10-31T15:37:43Z</time>
      </trkpt>
      <trkpt lat="45.19386" lon="5.05415">
        <ele>315.89001464844</ele>
        <time>2009-10-31T15:37:50Z</time>
      </trkpt>
      <trkpt lat="45.19342" lon="5.05363">
        <ele>315.07998657227</ele>
        <time>2009-10-31T15:37:55Z</time>
      </trkpt>
      <trkpt lat="45.19285" lon="5.05283">
        <ele>312.44400024414</ele>
        <time>2009-10-31T15:38:02Z</time>
      </trkpt>
      <trkpt lat="45.1923" lon="5.05206">
        <ele>310.50799560547</ele>
        <time>2009-10-31T15:38:09Z</time>
      </trkpt>
      <trkpt lat="45.19165" lon="5.0512">
        <ele>308.52301025391</ele>
        <time>2009-10-31T15:38:17Z</time>
      </trkpt>
      <trkpt lat="45.19102" lon="5.05055">
        <ele>307.23300170898</ele>
        <time>2009-10-31T15:38:24Z</time>
      </trkpt>
      <trkpt lat="45.19047" lon="5.04997">
        <ele>305.99600219727</ele>
        <time>2009-10-31T15:38:30Z</time>
      </trkpt>
      <trkpt lat="45.18974" lon="5.04918">
        <ele>305.27899169922</ele>
        <time>2009-10-31T15:38:38Z</time>
      </trkpt>
      <trkpt lat="45.18904" lon="5.04837">
        <ele>303.64999389648</ele>
        <time>2009-10-31T15:38:46Z</time>
      </trkpt>
      <trkpt lat="45.18827" lon="5.04742">
        <ele>302</ele>
        <time>2009-10-31T15:38:55Z</time>
      </trkpt>
      <trkpt lat="45.18789" lon="5.04695">
        <ele>302.82400512695</ele>
        <time>2009-10-31T15:39:00Z</time>
      </trkpt>
      <trkpt lat="45.18775" lon="5.04665">
        <ele>302.70199584961</ele>
        <time>2009-10-31T15:39:03Z</time>
      </trkpt>
      <trkpt lat="45.18763" lon="5.04642">
        <ele>303.03399658203</ele>
        <time>2009-10-31T15:39:06Z</time>
      </trkpt>
      <trkpt lat="45.18749" lon="5.04636">
        <ele>302.90899658203</ele>
        <time>2009-10-31T15:39:08Z</time>
      </trkpt>
      <trkpt lat="45.18685" lon="5.04615">
        <ele>301.92700195312</ele>
        <time>2009-10-31T15:39:16Z</time>
      </trkpt>
      <trkpt lat="45.18639" lon="5.04594">
        <ele>301.53201293945</ele>
        <time>2009-10-31T15:39:21Z</time>
      </trkpt>
      <trkpt lat="45.18573" lon="5.04562">
        <ele>300.70401000977</ele>
        <time>2009-10-31T15:39:28Z</time>
      </trkpt>
      <trkpt lat="45.18501" lon="5.04526">
        <ele>299.89999389648</ele>
        <time>2009-10-31T15:39:35Z</time>
      </trkpt>
      <trkpt lat="45.18385" lon="5.04469">
        <ele>297.52099609375</ele>
        <time>2009-10-31T15:39:46Z</time>
      </trkpt>
      <trkpt lat="45.18273" lon="5.04414">
        <ele>296.04901123047</ele>
        <time>2009-10-31T15:39:56Z</time>
      </trkpt>
      <trkpt lat="45.18175" lon="5.04364">
        <ele>294.28698730469</ele>
        <time>2009-10-31T15:40:05Z</time>
      </trkpt>
      <trkpt lat="45.18121" lon="5.04338">
        <ele>293.85800170898</ele>
        <time>2009-10-31T15:40:10Z</time>
      </trkpt>
      <trkpt lat="45.181" lon="5.04333">
        <ele>293.43600463867</ele>
        <time>2009-10-31T15:40:12Z</time>
      </trkpt>
      <trkpt lat="45.18033" lon="5.04338">
        <ele>293.31698608398</ele>
        <time>2009-10-31T15:40:18Z</time>
      </trkpt>
      <trkpt lat="45.17966" lon="5.04323">
        <ele>291.57800292969</ele>
        <time>2009-10-31T15:40:24Z</time>
      </trkpt>
      <trkpt lat="45.17859" lon="5.04289">
        <ele>289.41900634766</ele>
        <time>2009-10-31T15:40:34Z</time>
      </trkpt>
      <trkpt lat="45.17751" lon="5.04255">
        <ele>288.25698852539</ele>
        <time>2009-10-31T15:40:44Z</time>
      </trkpt>
      <trkpt lat="45.17676" lon="5.04229">
        <ele>287.10501098633</ele>
        <time>2009-10-31T15:40:51Z</time>
      </trkpt>
      <trkpt lat="45.17616" lon="5.0418">
        <ele>286.08898925781</ele>
        <time>2009-10-31T15:40:57Z</time>
      </trkpt>
      <trkpt lat="45.1757" lon="5.04159">
        <ele>285.19900512695</ele>
        <time>2009-10-31T15:41:01Z</time>
      </trkpt>
      <trkpt lat="45.17477" lon="5.04124">
        <ele>284.06900024414</ele>
        <time>2009-10-31T15:41:09Z</time>
      </trkpt>
      <trkpt lat="45.17364" lon="5.04078">
        <ele>281.53201293945</ele>
        <time>2009-10-31T15:41:19Z</time>
      </trkpt>
      <trkpt lat="45.17264" lon="5.04038">
        <ele>280.82501220703</ele>
        <time>2009-10-31T15:41:28Z</time>
      </trkpt>
      <trkpt lat="45.17189" lon="5.04009">
        <ele>279.66900634766</ele>
        <time>2009-10-31T15:41:35Z</time>
      </trkpt>
      <trkpt lat="45.17132" lon="5.03987">
        <ele>279.44299316406</ele>
        <time>2009-10-31T15:41:40Z</time>
      </trkpt>
      <trkpt lat="45.17069" lon="5.03962">
        <ele>278.51699829102</ele>
        <time>2009-10-31T15:41:46Z</time>
      </trkpt>
      <trkpt lat="45.17007" lon="5.03937">
        <ele>278.00601196289</ele>
        <time>2009-10-31T15:41:52Z</time>
      </trkpt>
      <trkpt lat="45.16944" lon="5.03912">
        <ele>276.93301391602</ele>
        <time>2009-10-31T15:41:58Z</time>
      </trkpt>
      <trkpt lat="45.16874" lon="5.03884">
        <ele>277.2200012207</ele>
        <time>2009-10-31T15:42:05Z</time>
      </trkpt>
      <trkpt lat="45.16791" lon="5.03852">
        <ele>276.8210144043</ele>
        <time>2009-10-31T15:42:13Z</time>
      </trkpt>
      <trkpt lat="45.16735" lon="5.03831">
        <ele>276.53100585938</ele>
        <time>2009-10-31T15:42:18Z</time>
      </trkpt>
      <trkpt lat="45.1665" lon="5.03795">
        <ele>275.72399902344</ele>
        <time>2009-10-31T15:42:26Z</time>
      </trkpt>
      <trkpt lat="45.16617" lon="5.03781">
        <ele>274.15600585938</ele>
        <time>2009-10-31T15:42:29Z</time>
      </trkpt>
      <trkpt lat="45.16539" lon="5.03757">
        <ele>271.68600463867</ele>
        <time>2009-10-31T15:42:36Z</time>
      </trkpt>
      <trkpt lat="45.16517" lon="5.03757">
        <ele>270.50799560547</ele>
        <time>2009-10-31T15:42:38Z</time>
      </trkpt>
      <trkpt lat="45.16457" lon="5.03762">
        <ele>270.08999633789</ele>
        <time>2009-10-31T15:42:43Z</time>
      </trkpt>
      <trkpt lat="45.16385" lon="5.03768">
        <ele>267.7200012207</ele>
        <time>2009-10-31T15:42:49Z</time>
      </trkpt>
      <trkpt lat="45.16293" lon="5.03776">
        <ele>266.9580078125</ele>
        <time>2009-10-31T15:42:57Z</time>
      </trkpt>
      <trkpt lat="45.16242" lon="5.03778">
        <ele>266.23999023438</ele>
        <time>2009-10-31T15:43:02Z</time>
      </trkpt>
      <trkpt lat="45.16214" lon="5.03779">
        <ele>265.63800048828</ele>
        <time>2009-10-31T15:43:05Z</time>
      </trkpt>
      <trkpt lat="45.16195" lon="5.03769">
        <ele>265.25100708008</ele>
        <time>2009-10-31T15:43:08Z</time>
      </trkpt>
      <trkpt lat="45.16193" lon="5.03749">
        <ele>265.0419921875</ele>
        <time>2009-10-31T15:43:10Z</time>
      </trkpt>
      <trkpt lat="45.16197" lon="5.03667">
        <ele>264.42401123047</ele>
        <time>2009-10-31T15:43:19Z</time>
      </trkpt>
      <trkpt lat="45.16194" lon="5.03614">
        <ele>264.09298706055</ele>
        <time>2009-10-31T15:43:25Z</time>
      </trkpt>
      <trkpt lat="45.16186" lon="5.03543">
        <ele>264.55200195312</ele>
        <time>2009-10-31T15:43:33Z</time>
      </trkpt>
      <trkpt lat="45.16182" lon="5.03519">
        <ele>264.23300170898</ele>
        <time>2009-10-31T15:43:36Z</time>
      </trkpt>
      <trkpt lat="45.16177" lon="5.03488">
        <ele>264.48001098633</ele>
        <time>2009-10-31T15:43:40Z</time>
      </trkpt>
      <trkpt lat="45.16164" lon="5.03436">
        <ele>264.66598510742</ele>
        <time>2009-10-31T15:43:47Z</time>
      </trkpt>
      <trkpt lat="45.16145" lon="5.03384">
        <ele>265.14001464844</ele>
        <time>2009-10-31T15:43:54Z</time>
      </trkpt>
      <trkpt lat="45.1612" lon="5.03339">
        <ele>264.97399902344</ele>
        <time>2009-10-31T15:44:00Z</time>
      </trkpt>
      <trkpt lat="45.16084" lon="5.03278">
        <ele>265.32400512695</ele>
        <time>2009-10-31T15:44:08Z</time>
      </trkpt>
      <trkpt lat="45.16055" lon="5.03226">
        <ele>265.20599365234</ele>
        <time>2009-10-31T15:44:15Z</time>
      </trkpt>
      <trkpt lat="45.1601" lon="5.03136">
        <ele>264.52801513672</ele>
        <time>2009-10-31T15:44:26Z</time>
      </trkpt>
      <trkpt lat="45.15968" lon="5.03076">
        <ele>263.31500244141</ele>
        <time>2009-10-31T15:44:34Z</time>
      </trkpt>
      <trkpt lat="45.15919" lon="5.03007">
        <ele>262.19100952148</ele>
        <time>2009-10-31T15:44:43Z</time>
      </trkpt>
      <trkpt lat="45.15881" lon="5.02955">
        <ele>261.26901245117</ele>
        <time>2009-10-31T15:44:50Z</time>
      </trkpt>
      <trkpt lat="45.15837" lon="5.02901">
        <ele>259.95199584961</ele>
        <time>2009-10-31T15:44:58Z</time>
      </trkpt>
      <trkpt lat="45.15787" lon="5.02852">
        <ele>258.88101196289</ele>
        <time>2009-10-31T15:45:06Z</time>
      </trkpt>
      <trkpt lat="45.1572" lon="5.02787">
        <ele>257.35000610352</ele>
        <time>2009-10-31T15:45:17Z</time>
      </trkpt>
      <trkpt lat="45.15696" lon="5.02764">
        <ele>256.97500610352</ele>
        <time>2009-10-31T15:45:21Z</time>
      </trkpt>
      <trkpt lat="45.15657" lon="5.02727">
        <ele>256.57800292969</ele>
        <time>2009-10-31T15:45:28Z</time>
      </trkpt>
      <trkpt lat="45.15609" lon="5.02678">
        <ele>255.45700073242</ele>
        <time>2009-10-31T15:45:37Z</time>
      </trkpt>
      <trkpt lat="45.15568" lon="5.02625">
        <ele>253.97200012207</ele>
        <time>2009-10-31T15:45:45Z</time>
      </trkpt>
      <trkpt lat="45.15532" lon="5.02575">
        <ele>253.41299438477</ele>
        <time>2009-10-31T15:45:52Z</time>
      </trkpt>
      <trkpt lat="45.15506" lon="5.0254">
        <ele>253.11500549316</ele>
        <time>2009-10-31T15:45:57Z</time>
      </trkpt>
      <trkpt lat="45.15465" lon="5.02483">
        <ele>252.51300048828</ele>
        <time>2009-10-31T15:46:05Z</time>
      </trkpt>
      <trkpt lat="45.15434" lon="5.0244">
        <ele>251.97200012207</ele>
        <time>2009-10-31T15:46:11Z</time>
      </trkpt>
      <trkpt lat="45.15396" lon="5.02392">
        <ele>251.54600524902</ele>
        <time>2009-10-31T15:46:18Z</time>
      </trkpt>
      <trkpt lat="45.15346" lon="5.02342">
        <ele>250.63499450684</ele>
        <time>2009-10-31T15:46:27Z</time>
      </trkpt>
      <trkpt lat="45.1531" lon="5.02297">
        <ele>250.70500183106</ele>
        <time>2009-10-31T15:46:34Z</time>
      </trkpt>
      <trkpt lat="45.15281" lon="5.02247">
        <ele>250.86500549316</ele>
        <time>2009-10-31T15:46:41Z</time>
      </trkpt>
      <trkpt lat="45.15253" lon="5.02196">
        <ele>251.14100646973</ele>
        <time>2009-10-31T15:46:48Z</time>
      </trkpt>
      <trkpt lat="45.15225" lon="5.02146">
        <ele>250.74099731445</ele>
        <time>2009-10-31T15:46:55Z</time>
      </trkpt>
      <trkpt lat="45.15197" lon="5.02102">
        <ele>250.39100646973</ele>
        <time>2009-10-31T15:47:02Z</time>
      </trkpt>
      <trkpt lat="45.15192" lon="5.02096">
        <ele>250.45599365234</ele>
        <time>2009-10-31T15:47:03Z</time>
      </trkpt>
      <trkpt lat="45.15184" lon="5.02069">
        <ele>250.34800720215</ele>
        <time>2009-10-31T15:47:07Z</time>
      </trkpt>
      <trkpt lat="45.15172" lon="5.02054">
        <ele>250.32899475098</ele>
        <time>2009-10-31T15:47:10Z</time>
      </trkpt>
      <trkpt lat="45.15152" lon="5.02026">
        <ele>250.14300537109</ele>
        <time>2009-10-31T15:47:15Z</time>
      </trkpt>
      <trkpt lat="45.15127" lon="5.01992">
        <ele>250.02099609375</ele>
        <time>2009-10-31T15:47:21Z</time>
      </trkpt>
      <trkpt lat="45.151" lon="5.01955">
        <ele>250.10200500488</ele>
        <time>2009-10-31T15:47:27Z</time>
      </trkpt>
      <trkpt lat="45.15065" lon="5.01905">
        <ele>249.97399902344</ele>
        <time>2009-10-31T15:47:35Z</time>
      </trkpt>
      <trkpt lat="45.1503" lon="5.01856">
        <ele>249.91000366211</ele>
        <time>2009-10-31T15:47:43Z</time>
      </trkpt>
      <trkpt lat="45.14994" lon="5.01806">
        <ele>249.50399780273</ele>
        <time>2009-10-31T15:47:51Z</time>
      </trkpt>
      <trkpt lat="45.14967" lon="5.01768">
        <ele>249.13600158691</ele>
        <time>2009-10-31T15:47:57Z</time>
      </trkpt>
      <trkpt lat="45.14941" lon="5.01732">
        <ele>248.67399597168</ele>
        <time>2009-10-31T15:48:03Z</time>
      </trkpt>
      <trkpt lat="45.14933" lon="5.01719">
        <ele>248.25900268555</ele>
        <time>2009-10-31T15:48:05Z</time>
      </trkpt>
      <trkpt lat="45.14914" lon="5.01691">
        <ele>247.82499694824</ele>
        <time>2009-10-31T15:48:10Z</time>
      </trkpt>
      <trkpt lat="45.14903" lon="5.01677">
        <ele>247.77099609375</ele>
        <time>2009-10-31T15:48:14Z</time>
      </trkpt>
      <trkpt lat="45.149" lon="5.01674">
        <ele>247.85299682617</ele>
        <time>2009-10-31T15:48:15Z</time>
      </trkpt>
      <trkpt lat="45.14877" lon="5.0165">
        <ele>248.70500183106</ele>
        <time>2009-10-31T15:48:22Z</time>
      </trkpt>
      <trkpt lat="45.14864" lon="5.01636">
        <ele>248.98100280762</ele>
        <time>2009-10-31T15:48:27Z</time>
      </trkpt>
      <trkpt lat="45.14852" lon="5.01623">
        <ele>249.59800720215</ele>
        <time>2009-10-31T15:48:33Z</time>
      </trkpt>
      <trkpt lat="45.14837" lon="5.01604">
        <ele>250.07699584961</ele>
        <time>2009-10-31T15:48:39Z</time>
      </trkpt>
      <trkpt lat="45.14828" lon="5.01585">
        <ele>250.33799743652</ele>
        <time>2009-10-31T15:48:44Z</time>
      </trkpt>
      <trkpt lat="45.14816" lon="5.01575">
        <ele>250.14199829102</ele>
        <time>2009-10-31T15:48:49Z</time>
      </trkpt>
      <trkpt lat="45.14789" lon="5.0155">
        <ele>248.9700012207</ele>
        <time>2009-10-31T15:48:56Z</time>
      </trkpt>
      <trkpt lat="45.14764" lon="5.01529">
        <ele>247.41299438477</ele>
        <time>2009-10-31T15:49:01Z</time>
      </trkpt>
      <trkpt lat="45.14737" lon="5.01497">
        <ele>246.44200134277</ele>
        <time>2009-10-31T15:49:06Z</time>
      </trkpt>
      <trkpt lat="45.14721" lon="5.01461">
        <ele>244.86000061035</ele>
        <time>2009-10-31T15:49:10Z</time>
      </trkpt>
      <trkpt lat="45.14698" lon="5.01391">
        <ele>244.01699829102</ele>
        <time>2009-10-31T15:49:17Z</time>
      </trkpt>
      <trkpt lat="45.14672" lon="5.01314">
        <ele>243.03399658203</ele>
        <time>2009-10-31T15:49:25Z</time>
      </trkpt>
      <trkpt lat="45.14645" lon="5.01251">
        <ele>243.02600097656</ele>
        <time>2009-10-31T15:49:32Z</time>
      </trkpt>
      <trkpt lat="45.14621" lon="5.01223">
        <ele>243.03799438477</ele>
        <time>2009-10-31T15:49:36Z</time>
      </trkpt>
      <trkpt lat="45.14569" lon="5.01186">
        <ele>243.49699401856</ele>
        <time>2009-10-31T15:49:44Z</time>
      </trkpt>
      <trkpt lat="45.14523" lon="5.01154">
        <ele>243.62600708008</ele>
        <time>2009-10-31T15:49:51Z</time>
      </trkpt>
      <trkpt lat="45.14467" lon="5.01105">
        <ele>244.27900695801</ele>
        <time>2009-10-31T15:50:00Z</time>
      </trkpt>
      <trkpt lat="45.14414" lon="5.01047">
        <ele>244.20899963379</ele>
        <time>2009-10-31T15:50:09Z</time>
      </trkpt>
      <trkpt lat="45.14356" lon="5.00981">
        <ele>244.17799377441</ele>
        <time>2009-10-31T15:50:19Z</time>
      </trkpt>
      <trkpt lat="45.14325" lon="5.00946">
        <ele>243.59300231934</ele>
        <time>2009-10-31T15:50:24Z</time>
      </trkpt>
      <trkpt lat="45.14282" lon="5.0091">
        <ele>243.12100219727</ele>
        <time>2009-10-31T15:50:30Z</time>
      </trkpt>
      <trkpt lat="45.14227" lon="5.00881">
        <ele>242.84199523926</ele>
        <time>2009-10-31T15:50:37Z</time>
      </trkpt>
      <trkpt lat="45.14124" lon="5.0083">
        <ele>241.64100646973</ele>
        <time>2009-10-31T15:50:50Z</time>
      </trkpt>
      <trkpt lat="45.14018" lon="5.00777">
        <ele>241.64799499512</ele>
        <time>2009-10-31T15:51:03Z</time>
      </trkpt>
      <trkpt lat="45.13935" lon="5.00737">
        <ele>240.43899536133</ele>
        <time>2009-10-31T15:51:13Z</time>
      </trkpt>
      <trkpt lat="45.13858" lon="5.00698">
        <ele>240.04699707031</ele>
        <time>2009-10-31T15:51:22Z</time>
      </trkpt>
      <trkpt lat="45.13785" lon="5.00652">
        <ele>239.65800476074</ele>
        <time>2009-10-31T15:51:31Z</time>
      </trkpt>
      <trkpt lat="45.13735" lon="5.00604">
        <ele>239.22799682617</ele>
        <time>2009-10-31T15:51:38Z</time>
      </trkpt>
      <trkpt lat="45.13672" lon="5.00533">
        <ele>238.25500488281</ele>
        <time>2009-10-31T15:51:47Z</time>
      </trkpt>
      <trkpt lat="45.13638" lon="5.00494">
        <ele>238.24800109863</ele>
        <time>2009-10-31T15:51:52Z</time>
      </trkpt>
      <trkpt lat="45.1359" lon="5.0047">
        <ele>237.89700317383</ele>
        <time>2009-10-31T15:51:58Z</time>
      </trkpt>
      <trkpt lat="45.13514" lon="5.00449">
        <ele>236.62600708008</ele>
        <time>2009-10-31T15:52:07Z</time>
      </trkpt>
      <trkpt lat="45.13466" lon="5.00422">
        <ele>236.47799682617</ele>
        <time>2009-10-31T15:52:13Z</time>
      </trkpt>
      <trkpt lat="45.13397" lon="5.00375">
        <ele>235.66000366211</ele>
        <time>2009-10-31T15:52:22Z</time>
      </trkpt>
      <trkpt lat="45.13338" lon="5.00345">
        <ele>234.60499572754</ele>
        <time>2009-10-31T15:52:29Z</time>
      </trkpt>
      <trkpt lat="45.13284" lon="5.00338">
        <ele>234.10099792481</ele>
        <time>2009-10-31T15:52:35Z</time>
      </trkpt>
      <trkpt lat="45.13207" lon="5.00341">
        <ele>232.4640045166</ele>
        <time>2009-10-31T15:52:43Z</time>
      </trkpt>
      <trkpt lat="45.13169" lon="5.00337">
        <ele>231.43200683594</ele>
        <time>2009-10-31T15:52:47Z</time>
      </trkpt>
      <trkpt lat="45.13115" lon="5.00313">
        <ele>230.09700012207</ele>
        <time>2009-10-31T15:52:53Z</time>
      </trkpt>
      <trkpt lat="45.13062" lon="5.00289">
        <ele>229.53999328613</ele>
        <time>2009-10-31T15:52:59Z</time>
      </trkpt>
      <trkpt lat="45.13002" lon="5.00267">
        <ele>229.39100646973</ele>
        <time>2009-10-31T15:53:06Z</time>
      </trkpt>
      <trkpt lat="45.12938" lon="5.0023">
        <ele>228.53900146484</ele>
        <time>2009-10-31T15:53:14Z</time>
      </trkpt>
      <trkpt lat="45.12903" lon="5.00189">
        <ele>227.4640045166</ele>
        <time>2009-10-31T15:53:19Z</time>
      </trkpt>
      <trkpt lat="45.12867" lon="5.00125">
        <ele>225.16700744629</ele>
        <time>2009-10-31T15:53:25Z</time>
      </trkpt>
      <trkpt lat="45.12855" lon="5.00103">
        <ele>224.54400634766</ele>
        <time>2009-10-31T15:53:27Z</time>
      </trkpt>
      <trkpt lat="45.12819" lon="5.00075">
        <ele>223.35200500488</ele>
        <time>2009-10-31T15:53:31Z</time>
      </trkpt>
      <trkpt lat="45.12746" lon="5.00049">
        <ele>220.82899475098</ele>
        <time>2009-10-31T15:53:38Z</time>
      </trkpt>
      <trkpt lat="45.12708" lon="5.00021">
        <ele>219.44999694824</ele>
        <time>2009-10-31T15:53:42Z</time>
      </trkpt>
      <trkpt lat="45.12677" lon="4.99981">
        <ele>218.33099365234</ele>
        <time>2009-10-31T15:53:46Z</time>
      </trkpt>
      <trkpt lat="45.12657" lon="4.99932">
        <ele>218.4109954834</ele>
        <time>2009-10-31T15:53:50Z</time>
      </trkpt>
      <trkpt lat="45.12645" lon="4.99882">
        <ele>218.21200561523</ele>
        <time>2009-10-31T15:53:54Z</time>
      </trkpt>
      <trkpt lat="45.12623" lon="4.99844">
        <ele>218.22700500488</ele>
        <time>2009-10-31T15:53:58Z</time>
      </trkpt>
      <trkpt lat="45.12596" lon="4.99815">
        <ele>218.33799743652</ele>
        <time>2009-10-31T15:54:02Z</time>
      </trkpt>
      <trkpt lat="45.12568" lon="4.9977">
        <ele>218.74800109863</ele>
        <time>2009-10-31T15:54:07Z</time>
      </trkpt>
      <trkpt lat="45.12529" lon="4.99712">
        <ele>218.84899902344</ele>
        <time>2009-10-31T15:54:14Z</time>
      </trkpt>
      <trkpt lat="45.12485" lon="4.99663">
        <ele>219.25100708008</ele>
        <time>2009-10-31T15:54:21Z</time>
      </trkpt>
      <trkpt lat="45.12443" lon="4.99599">
        <ele>219.54299926758</ele>
        <time>2009-10-31T15:54:29Z</time>
      </trkpt>
      <trkpt lat="45.12405" lon="4.99531">
        <ele>220.00300598144</ele>
        <time>2009-10-31T15:54:37Z</time>
      </trkpt>
      <trkpt lat="45.12402" lon="4.99521">
        <ele>220.15199279785</ele>
        <time>2009-10-31T15:54:38Z</time>
      </trkpt>
      <trkpt lat="45.12386" lon="4.99454">
        <ele>220.29499816894</ele>
        <time>2009-10-31T15:54:45Z</time>
      </trkpt>
      <trkpt lat="45.12366" lon="4.99348">
        <ele>221.12800598144</ele>
        <time>2009-10-31T15:54:56Z</time>
      </trkpt>
      <trkpt lat="45.1235" lon="4.99258">
        <ele>221.72500610352</ele>
        <time>2009-10-31T15:55:05Z</time>
      </trkpt>
      <trkpt lat="45.12348" lon="4.99248">
        <ele>221.98899841309</ele>
        <time>2009-10-31T15:55:06Z</time>
      </trkpt>
      <trkpt lat="45.12328" lon="4.99201">
        <ele>220.96000671387</ele>
        <time>2009-10-31T15:55:11Z</time>
      </trkpt>
      <trkpt lat="45.12299" lon="4.99143">
        <ele>218.80799865723</ele>
        <time>2009-10-31T15:55:17Z</time>
      </trkpt>
      <trkpt lat="45.12288" lon="4.99109">
        <ele>217.72700500488</ele>
        <time>2009-10-31T15:55:20Z</time>
      </trkpt>
      <trkpt lat="45.12271" lon="4.99078">
        <ele>216.38800048828</ele>
        <time>2009-10-31T15:55:23Z</time>
      </trkpt>
      <trkpt lat="45.1225" lon="4.9906">
        <ele>213.44299316406</ele>
        <time>2009-10-31T15:55:26Z</time>
      </trkpt>
      <trkpt lat="45.12231" lon="4.99038">
        <ele>212.05799865723</ele>
        <time>2009-10-31T15:55:29Z</time>
      </trkpt>
      <trkpt lat="45.12205" lon="4.99033">
        <ele>210.60899353027</ele>
        <time>2009-10-31T15:55:32Z</time>
      </trkpt>
      <trkpt lat="45.12197" lon="4.99027">
        <ele>210.14100646973</ele>
        <time>2009-10-31T15:55:33Z</time>
      </trkpt>
      <trkpt lat="45.12153" lon="4.98978">
        <ele>207.29299926758</ele>
        <time>2009-10-31T15:55:39Z</time>
      </trkpt>
      <trkpt lat="45.12112" lon="4.98913">
        <ele>205.67199707031</ele>
        <time>2009-10-31T15:55:45Z</time>
      </trkpt>
      <trkpt lat="45.12074" lon="4.98834">
        <ele>204.39599609375</ele>
        <time>2009-10-31T15:55:52Z</time>
      </trkpt>
      <trkpt lat="45.12051" lon="4.98763">
        <ele>203.98699951172</ele>
        <time>2009-10-31T15:55:58Z</time>
      </trkpt>
      <trkpt lat="45.12036" lon="4.98693">
        <ele>203.66000366211</ele>
        <time>2009-10-31T15:56:04Z</time>
      </trkpt>
      <trkpt lat="45.12026" lon="4.98602">
        <ele>203.60299682617</ele>
        <time>2009-10-31T15:56:12Z</time>
      </trkpt>
      <trkpt lat="45.12026" lon="4.98525">
        <ele>203.51800537109</ele>
        <time>2009-10-31T15:56:19Z</time>
      </trkpt>
      <trkpt lat="45.12027" lon="4.98503">
        <ele>203.71200561523</ele>
        <time>2009-10-31T15:56:21Z</time>
      </trkpt>
      <trkpt lat="45.12035" lon="4.98461">
        <ele>203.50399780273</ele>
        <time>2009-10-31T15:56:25Z</time>
      </trkpt>
      <trkpt lat="45.1205" lon="4.98426">
        <ele>203.52400207519</ele>
        <time>2009-10-31T15:56:29Z</time>
      </trkpt>
      <trkpt lat="45.12055" lon="4.98394">
        <ele>203.54699707031</ele>
        <time>2009-10-31T15:56:33Z</time>
      </trkpt>
      <trkpt lat="45.12041" lon="4.98391">
        <ele>203.65299987793</ele>
        <time>2009-10-31T15:56:35Z</time>
      </trkpt>
      <trkpt lat="45.12024" lon="4.98399">
        <ele>203.13900756836</ele>
        <time>2009-10-31T15:56:38Z</time>
      </trkpt>
      <trkpt lat="45.12011" lon="4.98395">
        <ele>202.42799377441</ele>
        <time>2009-10-31T15:56:40Z</time>
      </trkpt>
      <trkpt lat="45.11992" lon="4.98389">
        <ele>201.59899902344</ele>
        <time>2009-10-31T15:56:43Z</time>
      </trkpt>
      <trkpt lat="45.11975" lon="4.98398">
        <ele>201.31199645996</ele>
        <time>2009-10-31T15:56:46Z</time>
      </trkpt>
      <trkpt lat="45.11972" lon="4.98414">
        <ele>201.68299865723</ele>
        <time>2009-10-31T15:56:48Z</time>
      </trkpt>
      <trkpt lat="45.11983" lon="4.98431">
        <ele>201.93899536133</ele>
        <time>2009-10-31T15:56:51Z</time>
      </trkpt>
      <trkpt lat="45.11986" lon="4.98432">
        <ele>201.85699462891</ele>
        <time>2009-10-31T15:56:57Z</time>
      </trkpt>
      <trkpt lat="45.11988" lon="4.98431">
        <ele>201.96499633789</ele>
        <time>2009-10-31T15:57:33Z</time>
      </trkpt>
      <trkpt lat="45.1199" lon="4.98432">
        <ele>202.00900268555</ele>
        <time>2009-10-31T15:58:07Z</time>
      </trkpt>
      <trkpt lat="45.1199" lon="4.98432">
        <ele>201.97799682617</ele>
        <time>2009-10-31T15:58:36Z</time>
      </trkpt>
      <trkpt lat="45.1199" lon="4.98433">
        <ele>202.04499816894</ele>
        <time>2009-10-31T15:58:43Z</time>
      </trkpt>
      <trkpt lat="45.11991" lon="4.98433">
        <ele>201.96899414062</ele>
        <time>2009-10-31T15:58:50Z</time>
      </trkpt>
      <trkpt lat="45.11992" lon="4.98434">
        <ele>202.34599304199</ele>
        <time>2009-10-31T15:59:32Z</time>
      </trkpt>
      <trkpt lat="45.11992" lon="4.98435">
        <ele>202.28399658203</ele>
        <time>2009-10-31T16:00:02Z</time>
      </trkpt>
      <trkpt lat="45.11991" lon="4.98435">
        <ele>202.42199707031</ele>
        <time>2009-10-31T16:00:10Z</time>
      </trkpt>
      <trkpt lat="45.1199" lon="4.98434">
        <ele>202.70500183106</ele>
        <time>2009-10-31T16:00:47Z</time>
      </trkpt>
      <trkpt lat="45.1199" lon="4.98433">
        <ele>202.55799865723</ele>
        <time>2009-10-31T16:01:00Z</time>
      </trkpt>
      <trkpt lat="45.11988" lon="4.98435">
        <ele>202.77600097656</ele>
        <time>2009-10-31T16:01:16Z</time>
      </trkpt>
      <trkpt lat="45.11988" lon="4.98434">
        <ele>202.98699951172</ele>
        <time>2009-10-31T16:01:35Z</time>
      </trkpt>
      <trkpt lat="45.11988" lon="4.98434">
        <ele>202.79699707031</ele>
        <time>2009-10-31T16:01:38Z</time>
      </trkpt>
      <trkpt lat="45.11988" lon="4.98432">
        <ele>202.79400634766</ele>
        <time>2009-10-31T16:01:54Z</time>
      </trkpt>
      <trkpt lat="45.11989" lon="4.98433">
        <ele>202.7200012207</ele>
        <time>2009-10-31T16:02:15Z</time>
      </trkpt>
      <trkpt lat="45.11989" lon="4.98433">
        <ele>202.77900695801</ele>
        <time>2009-10-31T16:02:22Z</time>
      </trkpt>
      <trkpt lat="45.11989" lon="4.98431">
        <ele>203.06900024414</ele>
        <time>2009-10-31T16:03:34Z</time>
      </trkpt>
      <trkpt lat="45.1199" lon="4.98431">
        <ele>203.12199401856</ele>
        <time>2009-10-31T16:03:56Z</time>
      </trkpt>
      <trkpt lat="45.1199" lon="4.98432">
        <ele>203.08299255371</ele>
        <time>2009-10-31T16:04:17Z</time>
      </trkpt>
      <trkpt lat="45.11989" lon="4.98433">
        <ele>203.0059967041</ele>
        <time>2009-10-31T16:04:35Z</time>
      </trkpt>
      <trkpt lat="45.1199" lon="4.98435">
        <ele>203.21099853516</ele>
        <time>2009-10-31T16:04:37Z</time>
      </trkpt>
      <trkpt lat="45.11997" lon="4.98439">
        <ele>203.43099975586</ele>
        <time>2009-10-31T16:04:44Z</time>
      </trkpt>
      <trkpt lat="45.12001" lon="4.98439">
        <ele>203.57800292969</ele>
        <time>2009-10-31T16:04:49Z</time>
      </trkpt>
      <trkpt lat="45.11998" lon="4.98438">
        <ele>203.41000366211</ele>
        <time>2009-10-31T16:04:52Z</time>
      </trkpt>
      <trkpt lat="45.11999" lon="4.98441">
        <ele>203.48599243164</ele>
        <time>2009-10-31T16:04:56Z</time>
      </trkpt>
      <trkpt lat="45.12" lon="4.98441">
        <ele>203.47500610352</ele>
        <time>2009-10-31T16:05:11Z</time>
      </trkpt>
      <trkpt lat="45.12001" lon="4.98443">
        <ele>203.51100158691</ele>
        <time>2009-10-31T16:05:35Z</time>
      </trkpt>
      <trkpt lat="45.12001" lon="4.98443">
        <ele>203.63999938965</ele>
        <time>2009-10-31T16:05:36Z</time>
      </trkpt>
      <trkpt lat="45.12006" lon="4.98437">
        <ele>203.68899536133</ele>
        <time>2009-10-31T16:05:41Z</time>
      </trkpt>
      <trkpt lat="45.12004" lon="4.9843">
        <ele>203.66299438477</ele>
        <time>2009-10-31T16:05:44Z</time>
      </trkpt>
      <trkpt lat="45.12001" lon="4.98429">
        <ele>203.38800048828</ele>
        <time>2009-10-31T16:05:45Z</time>
      </trkpt>
      <trkpt lat="45.11986" lon="4.9842">
        <ele>202.95399475098</ele>
        <time>2009-10-31T16:05:51Z</time>
      </trkpt>
      <trkpt lat="45.11983" lon="4.98399">
        <ele>202.85200500488</ele>
        <time>2009-10-31T16:05:56Z</time>
      </trkpt>
      <trkpt lat="45.11994" lon="4.98395">
        <ele>202.94700622559</ele>
        <time>2009-10-31T16:05:59Z</time>
      </trkpt>
      <trkpt lat="45.12004" lon="4.98398">
        <ele>203.23599243164</ele>
        <time>2009-10-31T16:06:01Z</time>
      </trkpt>
      <trkpt lat="45.12028" lon="4.98412">
        <ele>204.17399597168</ele>
        <time>2009-10-31T16:06:06Z</time>
      </trkpt>
      <trkpt lat="45.1204" lon="4.9843">
        <ele>204.77299499512</ele>
        <time>2009-10-31T16:06:10Z</time>
      </trkpt>
      <trkpt lat="45.12052" lon="4.9843">
        <ele>205.07600402832</ele>
        <time>2009-10-31T16:06:12Z</time>
      </trkpt>
      <trkpt lat="45.12057" lon="4.98414">
        <ele>204.56100463867</ele>
        <time>2009-10-31T16:06:14Z</time>
      </trkpt>
      <trkpt lat="45.12057" lon="4.98395">
        <ele>205.16799926758</ele>
        <time>2009-10-31T16:06:16Z</time>
      </trkpt>
      <trkpt lat="45.12065" lon="4.98334">
        <ele>204.33599853516</ele>
        <time>2009-10-31T16:06:22Z</time>
      </trkpt>
      <trkpt lat="45.12074" lon="4.98279">
        <ele>203.75300598144</ele>
        <time>2009-10-31T16:06:27Z</time>
      </trkpt>
      <trkpt lat="45.12078" lon="4.98198">
        <ele>203.31799316406</ele>
        <time>2009-10-31T16:06:34Z</time>
      </trkpt>
      <trkpt lat="45.12071" lon="4.98127">
        <ele>202.30099487305</ele>
        <time>2009-10-31T16:06:40Z</time>
      </trkpt>
      <trkpt lat="45.12051" lon="4.98043">
        <ele>201.81700134277</ele>
        <time>2009-10-31T16:06:47Z</time>
      </trkpt>
      <trkpt lat="45.12021" lon="4.97929">
        <ele>201.24200439453</ele>
        <time>2009-10-31T16:06:56Z</time>
      </trkpt>
      <trkpt lat="45.12001" lon="4.97818">
        <ele>200.23199462891</ele>
        <time>2009-10-31T16:07:04Z</time>
      </trkpt>
      <trkpt lat="45.11971" lon="4.97649">
        <ele>199.35699462891</ele>
        <time>2009-10-31T16:07:16Z</time>
      </trkpt>
      <trkpt lat="45.11965" lon="4.97612">
        <ele>199.30400085449</ele>
        <time>2009-10-31T16:07:19Z</time>
      </trkpt>
      <trkpt lat="45.1196" lon="4.97578">
        <ele>198.67700195312</ele>
        <time>2009-10-31T16:07:23Z</time>
      </trkpt>
      <trkpt lat="45.11955" lon="4.97559">
        <ele>198.78799438477</ele>
        <time>2009-10-31T16:07:25Z</time>
      </trkpt>
      <trkpt lat="45.11939" lon="4.97463">
        <ele>197.70300292969</ele>
        <time>2009-10-31T16:07:33Z</time>
      </trkpt>
      <trkpt lat="45.11914" lon="4.97319">
        <ele>196.96699523926</ele>
        <time>2009-10-31T16:07:44Z</time>
      </trkpt>
      <trkpt lat="45.11895" lon="4.97209">
        <ele>197.14700317383</ele>
        <time>2009-10-31T16:07:53Z</time>
      </trkpt>
      <trkpt lat="45.11886" lon="4.97152">
        <ele>197.45700073242</ele>
        <time>2009-10-31T16:07:58Z</time>
      </trkpt>
      <trkpt lat="45.1189" lon="4.97111">
        <ele>198.25399780273</ele>
        <time>2009-10-31T16:08:02Z</time>
      </trkpt>
      <trkpt lat="45.119" lon="4.97096">
        <ele>197.98599243164</ele>
        <time>2009-10-31T16:08:05Z</time>
      </trkpt>
      <trkpt lat="45.11908" lon="4.97067">
        <ele>198.48599243164</ele>
        <time>2009-10-31T16:08:10Z</time>
      </trkpt>
      <trkpt lat="45.11898" lon="4.97056">
        <ele>198.58599853516</ele>
        <time>2009-10-31T16:08:12Z</time>
      </trkpt>
      <trkpt lat="45.11861" lon="4.97016">
        <ele>198.27699279785</ele>
        <time>2009-10-31T16:08:19Z</time>
      </trkpt>
      <trkpt lat="45.11819" lon="4.96958">
        <ele>198.4940032959</ele>
        <time>2009-10-31T16:08:27Z</time>
      </trkpt>
      <trkpt lat="45.11778" lon="4.96894">
        <ele>197.95300292969</ele>
        <time>2009-10-31T16:08:35Z</time>
      </trkpt>
      <trkpt lat="45.11769" lon="4.96866">
        <ele>197.59300231934</ele>
        <time>2009-10-31T16:08:38Z</time>
      </trkpt>
      <trkpt lat="45.11769" lon="4.96856">
        <ele>197.72599792481</ele>
        <time>2009-10-31T16:08:39Z</time>
      </trkpt>
      <trkpt lat="45.11756" lon="4.96824">
        <ele>197.56300354004</ele>
        <time>2009-10-31T16:08:43Z</time>
      </trkpt>
      <trkpt lat="45.11749" lon="4.96821">
        <ele>197.84700012207</ele>
        <time>2009-10-31T16:08:44Z</time>
      </trkpt>
      <trkpt lat="45.11718" lon="4.96796">
        <ele>197.48699951172</ele>
        <time>2009-10-31T16:08:49Z</time>
      </trkpt>
      <trkpt lat="45.11677" lon="4.96728">
        <ele>196.88499450684</ele>
        <time>2009-10-31T16:08:57Z</time>
      </trkpt>
      <trkpt lat="45.11642" lon="4.96645">
        <ele>195.98300170898</ele>
        <time>2009-10-31T16:09:05Z</time>
      </trkpt>
      <trkpt lat="45.11615" lon="4.96576">
        <ele>195.38400268555</ele>
        <time>2009-10-31T16:09:12Z</time>
      </trkpt>
      <trkpt lat="45.11602" lon="4.96541">
        <ele>195.41600036621</ele>
        <time>2009-10-31T16:09:16Z</time>
      </trkpt>
      <trkpt lat="45.11589" lon="4.96509">
        <ele>195.59300231934</ele>
        <time>2009-10-31T16:09:20Z</time>
      </trkpt>
      <trkpt lat="45.11586" lon="4.96501">
        <ele>195.48399353027</ele>
        <time>2009-10-31T16:09:21Z</time>
      </trkpt>
      <trkpt lat="45.11584" lon="4.96466">
        <ele>196.36099243164</ele>
        <time>2009-10-31T16:09:26Z</time>
      </trkpt>
      <trkpt lat="45.11585" lon="4.96455">
        <ele>196.27900695801</ele>
        <time>2009-10-31T16:09:28Z</time>
      </trkpt>
      <trkpt lat="45.1158" lon="4.96447">
        <ele>196.26100158691</ele>
        <time>2009-10-31T16:09:33Z</time>
      </trkpt>
      <trkpt lat="45.11582" lon="4.96449">
        <ele>196.02200317383</ele>
        <time>2009-10-31T16:09:53Z</time>
      </trkpt>
    </trkseg>
  </trk>
</gpx>